<?xml version="1.0" encoding="UTF-8" standalone="no" ?><gpx xmlns="http://www.topografix.com/GPX/1/1" xmlns:gpxx="http://www.garmin.com/xmlschemas/GpxExtensions/v3" xmlns:wptx1="http://www.garmin.com/xmlschemas/WaypointExtension/v1" xmlns:gpxtpx="http://www.garmin.com/xmlschemas/TrackPointExtension/v1" creator="GuideVTT.com" version="1.1" xmlns:xsi="http://www.w3.org/2001/XMLSchema-instance" xsi:schemaLocation="http://www.topografix.com/GPX/1/1 http://www.topografix.com/GPX/1/1/gpx.xsd http://www.garmin.com/xmlschemas/GpxExtensions/v3 http://www8.garmin.com/xmlschemas/GpxExtensionsv3.xsd http://www.garmin.com/xmlschemas/WaypointExtension/v1 http://www8.garmin.com/xmlschemas/WaypointExtensionv1.xsd http://www.garmin.com/xmlschemas/TrackPointExtension/v1 http://www.garmin.com/xmlschemas/TrackPointExtensionv1.xsd">
<metadata><link href="http://www.garmin.com"><text>Garmin International</text></link><time>2013-06-22T15:13:50Z</time></metadata>
<trk><name>inzinzac_1t.gpx</name><extensions><gpxx:TrackExtension><gpxx:DisplayColor>Cyan</gpxx:DisplayColor></gpxx:TrackExtension></extensions><trkseg>
<trkpt lat="47.82698900" lon="-3.24785900"><ele>7.9999999512</ele><time>2007-04-30T15:01:28Z</time></trkpt>
<trkpt lat="47.82703100" lon="-3.24773300"><ele>7.9999999512</ele><time>2007-04-30T15:01:45Z</time></trkpt>
<trkpt lat="47.82706100" lon="-3.24758900"><ele>8.012326368</ele><time>2007-04-30T15:01:48Z</time></trkpt>
<trkpt lat="47.82706700" lon="-3.24744600"><ele>8.1851501016</ele><time>2007-04-30T15:01:52Z</time></trkpt>
<trkpt lat="47.82709700" lon="-3.24730200"><ele>8.339513928</ele><time>2007-04-30T15:01:55Z</time></trkpt>
<trkpt lat="47.82716400" lon="-3.24715800"><ele>8.4186936528</ele><time>2007-04-30T15:01:58Z</time></trkpt>
<trkpt lat="47.82721800" lon="-3.24696100"><ele>8.5086248928</ele><time>2007-04-30T15:02:01Z</time></trkpt>
<trkpt lat="47.82727900" lon="-3.24682600"><ele>8.3999996592</ele><time>2007-04-30T15:02:03Z</time></trkpt>
<trkpt lat="47.82733900" lon="-3.24670000"><ele>8.2799995944</ele><time>2007-04-30T15:02:05Z</time></trkpt>
<trkpt lat="47.82740600" lon="-3.24660100"><ele>8.1450003216</ele><time>2007-04-30T15:02:07Z</time></trkpt>
<trkpt lat="47.82748500" lon="-3.24650200"><ele>7.9999999512</ele><time>2007-04-30T15:02:09Z</time></trkpt>
<trkpt lat="47.82757500" lon="-3.24636800"><ele>7.9999999512</ele><time>2007-04-30T15:02:12Z</time></trkpt>
<trkpt lat="47.82766600" lon="-3.24629600"><ele>7.9999999512</ele><time>2007-04-30T15:02:15Z</time></trkpt>
<trkpt lat="47.82776900" lon="-3.24620600"><ele>7.9999999512</ele><time>2007-04-30T15:02:18Z</time></trkpt>
<trkpt lat="47.82787800" lon="-3.24611600"><ele>7.9999999512</ele><time>2007-04-30T15:02:21Z</time></trkpt>
<trkpt lat="47.82794400" lon="-3.24599000"><ele>7.9999999512</ele><time>2007-04-30T15:02:24Z</time></trkpt>
<trkpt lat="47.82791400" lon="-3.24581100"><ele>7.9999999512</ele><time>2007-04-30T15:02:28Z</time></trkpt>
<trkpt lat="47.82790200" lon="-3.24566700"><ele>7.9999999512</ele><time>2007-04-30T15:02:31Z</time></trkpt>
<trkpt lat="47.82794400" lon="-3.24551400"><ele>7.9999999512</ele><time>2007-04-30T15:02:35Z</time></trkpt>
<trkpt lat="47.82798700" lon="-3.24538900"><ele>7.9999999512</ele><time>2007-04-30T15:02:38Z</time></trkpt>
<trkpt lat="47.82810200" lon="-3.24535300"><ele>7.9999999512</ele><time>2007-04-30T15:02:42Z</time></trkpt>
<trkpt lat="47.82822300" lon="-3.24532600"><ele>7.9999999512</ele><time>2007-04-30T15:02:45Z</time></trkpt>
<trkpt lat="47.82835600" lon="-3.24527200"><ele>7.9999999512</ele><time>2007-04-30T15:02:48Z</time></trkpt>
<trkpt lat="47.82846500" lon="-3.24521800"><ele>7.9999999512</ele><time>2007-04-30T15:02:50Z</time></trkpt>
<trkpt lat="47.82856100" lon="-3.24517300"><ele>7.9999999512</ele><time>2007-04-30T15:02:52Z</time></trkpt>
<trkpt lat="47.82867000" lon="-3.24514600"><ele>7.9999999512</ele><time>2007-04-30T15:02:55Z</time></trkpt>
<trkpt lat="47.82877900" lon="-3.24514600"><ele>7.9999999512</ele><time>2007-04-30T15:02:58Z</time></trkpt>
<trkpt lat="47.82887600" lon="-3.24512800"><ele>7.9999999512</ele><time>2007-04-30T15:03:01Z</time></trkpt>
<trkpt lat="47.82898500" lon="-3.24503800"><ele>8.7041330616</ele><time>2007-04-30T15:03:04Z</time></trkpt>
<trkpt lat="47.82906300" lon="-3.24492100"><ele>9.0828610824</ele><time>2007-04-30T15:03:07Z</time></trkpt>
<trkpt lat="47.82917200" lon="-3.24493900"><ele>9.832227732</ele><time>2007-04-30T15:03:11Z</time></trkpt>
<trkpt lat="47.82924500" lon="-3.24483200"><ele>9.923515332</ele><time>2007-04-30T15:03:15Z</time></trkpt>
<trkpt lat="47.82926900" lon="-3.24468800"><ele>9.4981230408</ele><time>2007-04-30T15:03:17Z</time></trkpt>
<trkpt lat="47.82928100" lon="-3.24454400"><ele>8.9999609688</ele><time>2007-04-30T15:03:19Z</time></trkpt>
<trkpt lat="47.82928100" lon="-3.24435500"><ele>8.6226645936</ele><time>2007-04-30T15:03:22Z</time></trkpt>
<trkpt lat="47.82932400" lon="-3.24414000"><ele>8.4042814896</ele><time>2007-04-30T15:03:25Z</time></trkpt>
<trkpt lat="47.82936600" lon="-3.24398700"><ele>8.2222890672</ele><time>2007-04-30T15:03:27Z</time></trkpt>
<trkpt lat="47.82945700" lon="-3.24383400"><ele>8.6594496864</ele><time>2007-04-30T15:03:30Z</time></trkpt>
<trkpt lat="47.82954100" lon="-3.24371800"><ele>9.602234796</ele><time>2007-04-30T15:03:33Z</time></trkpt>
<trkpt lat="47.82963800" lon="-3.24359200"><ele>10.5553501872</ele><time>2007-04-30T15:03:36Z</time></trkpt>
<trkpt lat="47.82973500" lon="-3.24347500"><ele>11.3361502512</ele><time>2007-04-30T15:03:39Z</time></trkpt>
<trkpt lat="47.82980700" lon="-3.24338500"><ele>11.8162251864</ele><time>2007-04-30T15:03:41Z</time></trkpt>
<trkpt lat="47.82987400" lon="-3.24328600"><ele>12.1417244592</ele><time>2007-04-30T15:03:43Z</time></trkpt>
<trkpt lat="47.82994100" lon="-3.24317000"><ele>12.0381345216</ele><time>2007-04-30T15:03:45Z</time></trkpt>
<trkpt lat="47.83001900" lon="-3.24307100"><ele>11.7222623568</ele><time>2007-04-30T15:03:47Z</time></trkpt>
<trkpt lat="47.83011600" lon="-3.24298100"><ele>11.3786905776</ele><time>2007-04-30T15:03:49Z</time></trkpt>
<trkpt lat="47.83021900" lon="-3.24288200"><ele>10.7774067408</ele><time>2007-04-30T15:03:51Z</time></trkpt>
<trkpt lat="47.83031600" lon="-3.24280100"><ele>10.147290348</ele><time>2007-04-30T15:03:53Z</time></trkpt>
<trkpt lat="47.83041200" lon="-3.24273900"><ele>9.6358691712</ele><time>2007-04-30T15:03:55Z</time></trkpt>
<trkpt lat="47.83051500" lon="-3.24266700"><ele>9.1945629672</ele><time>2007-04-30T15:03:57Z</time></trkpt>
<trkpt lat="47.83062400" lon="-3.24261300"><ele>9.181249608</ele><time>2007-04-30T15:03:59Z</time></trkpt>
<trkpt lat="47.83074500" lon="-3.24257700"><ele>10.00249968</ele><time>2007-04-30T15:04:01Z</time></trkpt>
<trkpt lat="47.83085400" lon="-3.24260400"><ele>10.1599998984</ele><time>2007-04-30T15:04:03Z</time></trkpt>
<trkpt lat="47.83096300" lon="-3.24264000"><ele>9.768750084</ele><time>2007-04-30T15:04:05Z</time></trkpt>
<trkpt lat="47.83106600" lon="-3.24267600"><ele>9.472624692</ele><time>2007-04-30T15:04:07Z</time></trkpt>
<trkpt lat="47.83116200" lon="-3.24272100"><ele>9.3354454896</ele><time>2007-04-30T15:04:09Z</time></trkpt>
<trkpt lat="47.83125300" lon="-3.24276500"><ele>9.1377878712</ele><time>2007-04-30T15:04:11Z</time></trkpt>
<trkpt lat="47.83134400" lon="-3.24281000"><ele>9.137952768</ele><time>2007-04-30T15:04:13Z</time></trkpt>
<trkpt lat="47.83142900" lon="-3.24290000"><ele>9.179119056</ele><time>2007-04-30T15:04:15Z</time></trkpt>
<trkpt lat="47.83147100" lon="-3.24306200"><ele>9.2632807368</ele><time>2007-04-30T15:04:18Z</time></trkpt>
<trkpt lat="47.83151900" lon="-3.24320600"><ele>9.278944104</ele><time>2007-04-30T15:04:21Z</time></trkpt>
<trkpt lat="47.83157400" lon="-3.24336700"><ele>9.2318247672</ele><time>2007-04-30T15:04:24Z</time></trkpt>
<trkpt lat="47.83160400" lon="-3.24352000"><ele>10.2601870488</ele><time>2007-04-30T15:04:27Z</time></trkpt>
<trkpt lat="47.83165800" lon="-3.24367300"><ele>11.1246480072</ele><time>2007-04-30T15:04:30Z</time></trkpt>
<trkpt lat="47.83173100" lon="-3.24376300"><ele>11.5042191048</ele><time>2007-04-30T15:04:32Z</time></trkpt>
<trkpt lat="47.83182800" lon="-3.24387900"><ele>11.9351560128</ele><time>2007-04-30T15:04:35Z</time></trkpt>
<trkpt lat="47.83190600" lon="-3.24396000"><ele>12.101574984</ele><time>2007-04-30T15:04:37Z</time></trkpt>
<trkpt lat="47.83200900" lon="-3.24406800"><ele>12.2108744352</ele><time>2007-04-30T15:04:40Z</time></trkpt>
<trkpt lat="47.83213600" lon="-3.24408600"><ele>12.00595008</ele><time>2007-04-30T15:04:43Z</time></trkpt>
<trkpt lat="47.83222700" lon="-3.24404100"><ele>12.0960873648</ele><time>2007-04-30T15:04:46Z</time></trkpt>
<trkpt lat="47.83233600" lon="-3.24396900"><ele>12.0023497824</ele><time>2007-04-30T15:04:49Z</time></trkpt>
<trkpt lat="47.83246900" lon="-3.24395100"><ele>12.2125941168</ele><time>2007-04-30T15:04:52Z</time></trkpt>
<trkpt lat="47.83260200" lon="-3.24392400"><ele>12.4052505768</ele><time>2007-04-30T15:04:55Z</time></trkpt>
<trkpt lat="47.83270500" lon="-3.24387900"><ele>12.4343376408</ele><time>2007-04-30T15:04:57Z</time></trkpt>
<trkpt lat="47.83281400" lon="-3.24386100"><ele>12.6697243176</ele><time>2007-04-30T15:05:00Z</time></trkpt>
<trkpt lat="47.83291700" lon="-3.24383400"><ele>12.7517652</ele><time>2007-04-30T15:05:02Z</time></trkpt>
<trkpt lat="47.83305000" lon="-3.24379000"><ele>12.467400516</ele><time>2007-04-30T15:05:05Z</time></trkpt>
<trkpt lat="47.83317100" lon="-3.24376300"><ele>11.8211888544</ele><time>2007-04-30T15:05:08Z</time></trkpt>
<trkpt lat="47.83326700" lon="-3.24376300"><ele>11.5488177456</ele><time>2007-04-30T15:05:10Z</time></trkpt>
<trkpt lat="47.83340700" lon="-3.24379900"><ele>11.4130314792</ele><time>2007-04-30T15:05:13Z</time></trkpt>
<trkpt lat="47.83350300" lon="-3.24390600"><ele>11.8282785024</ele><time>2007-04-30T15:05:16Z</time></trkpt>
<trkpt lat="47.83358800" lon="-3.24403200"><ele>12.2934685296</ele><time>2007-04-30T15:05:19Z</time></trkpt>
<trkpt lat="47.83364200" lon="-3.24422100"><ele>12.9017667288</ele><time>2007-04-30T15:05:22Z</time></trkpt>
<trkpt lat="47.83366100" lon="-3.24440000"><ele>13.0898438736</ele><time>2007-04-30T15:05:25Z</time></trkpt>
<trkpt lat="47.83367300" lon="-3.24458000"><ele>13.1131857624</ele><time>2007-04-30T15:05:28Z</time></trkpt>
<trkpt lat="47.83369700" lon="-3.24478700"><ele>13.0457124912</ele><time>2007-04-30T15:05:31Z</time></trkpt>
<trkpt lat="47.83369100" lon="-3.24497500"><ele>13.133437284</ele><time>2007-04-30T15:05:34Z</time></trkpt>
<trkpt lat="47.83372100" lon="-3.24512800"><ele>12.9781502184</ele><time>2007-04-30T15:05:37Z</time></trkpt>
<trkpt lat="47.83373300" lon="-3.24528100"><ele>12.9920311152</ele><time>2007-04-30T15:05:40Z</time></trkpt>
<trkpt lat="47.83369100" lon="-3.24543300"><ele>13.2262345584</ele><time>2007-04-30T15:05:43Z</time></trkpt>
<trkpt lat="47.83369100" lon="-3.24558600"><ele>13.2895747416</ele><time>2007-04-30T15:05:47Z</time></trkpt>
<trkpt lat="47.83380600" lon="-3.24558600"><ele>12.991031676</ele><time>2007-04-30T15:05:54Z</time></trkpt>
<trkpt lat="47.83390300" lon="-3.24561300"><ele>13.6131248184</ele><time>2007-04-30T15:05:58Z</time></trkpt>
<trkpt lat="47.83401700" lon="-3.24562200"><ele>14.608437636</ele><time>2007-04-30T15:06:03Z</time></trkpt>
<trkpt lat="47.83411400" lon="-3.24564000"><ele>15.4999998864</ele><time>2007-04-30T15:06:06Z</time></trkpt>
<trkpt lat="47.83423500" lon="-3.24566700"><ele>16.6012496016</ele><time>2007-04-30T15:06:10Z</time></trkpt>
<trkpt lat="47.83433800" lon="-3.24571200"><ele>17.3443754712</ele><time>2007-04-30T15:06:14Z</time></trkpt>
<trkpt lat="47.83436200" lon="-3.24585600"><ele>17.8974990792</ele><time>2007-04-30T15:06:18Z</time></trkpt>
<trkpt lat="47.83438600" lon="-3.24601700"><ele>18.5206242744</ele><time>2007-04-30T15:06:22Z</time></trkpt>
<trkpt lat="47.83439800" lon="-3.24617900"><ele>19.0806253896</ele><time>2007-04-30T15:06:26Z</time></trkpt>
<trkpt lat="47.83440500" lon="-3.24633200"><ele>19.6056251016</ele><time>2007-04-30T15:06:30Z</time></trkpt>
<trkpt lat="47.83441700" lon="-3.24648400"><ele>19.9265212848</ele><time>2007-04-30T15:06:34Z</time></trkpt>
<trkpt lat="47.83442900" lon="-3.24664600"><ele>20.2432746264</ele><time>2007-04-30T15:06:38Z</time></trkpt>
<trkpt lat="47.83443500" lon="-3.24681700"><ele>20.5674495432</ele><time>2007-04-30T15:06:41Z</time></trkpt>
<trkpt lat="47.83444100" lon="-3.24702300"><ele>20.9938031736</ele><time>2007-04-30T15:06:44Z</time></trkpt>
<trkpt lat="47.83444100" lon="-3.24721200"><ele>21.3693905352</ele><time>2007-04-30T15:06:47Z</time></trkpt>
<trkpt lat="47.83444100" lon="-3.24738300"><ele>21.7379437224</ele><time>2007-04-30T15:06:50Z</time></trkpt>
<trkpt lat="47.83444700" lon="-3.24758000"><ele>22.2537994344</ele><time>2007-04-30T15:06:53Z</time></trkpt>
<trkpt lat="47.83445900" lon="-3.24772400"><ele>22.7683067112</ele><time>2007-04-30T15:06:56Z</time></trkpt>
<trkpt lat="47.83447100" lon="-3.24788600"><ele>23.6787357768</ele><time>2007-04-30T15:06:59Z</time></trkpt>
<trkpt lat="47.83447700" lon="-3.24803900"><ele>24.4796008248</ele><time>2007-04-30T15:07:02Z</time></trkpt>
<trkpt lat="47.83448900" lon="-3.24820900"><ele>25.4616069888</ele><time>2007-04-30T15:07:05Z</time></trkpt>
<trkpt lat="47.83450100" lon="-3.24836200"><ele>26.3618316552</ele><time>2007-04-30T15:07:08Z</time></trkpt>
<trkpt lat="47.83451300" lon="-3.24852400"><ele>27.2201956992</ele><time>2007-04-30T15:07:11Z</time></trkpt>
<trkpt lat="47.83451900" lon="-3.24867600"><ele>27.9086913504</ele><time>2007-04-30T15:07:14Z</time></trkpt>
<trkpt lat="47.83453200" lon="-3.24882900"><ele>28.6800938208</ele><time>2007-04-30T15:07:17Z</time></trkpt>
<trkpt lat="47.83455000" lon="-3.24898200"><ele>29.4903506712</ele><time>2007-04-30T15:07:20Z</time></trkpt>
<trkpt lat="47.83455600" lon="-3.24912600"><ele>29.9099999208</ele><time>2007-04-30T15:07:23Z</time></trkpt>
<trkpt lat="47.83455600" lon="-3.24928700"><ele>30.0133134048</ele><time>2007-04-30T15:07:26Z</time></trkpt>
<trkpt lat="47.83456800" lon="-3.24944900"><ele>30.10901268</ele><time>2007-04-30T15:07:29Z</time></trkpt>
<trkpt lat="47.83449500" lon="-3.24957500"><ele>29.3999997216</ele><time>2007-04-30T15:07:32Z</time></trkpt>
<trkpt lat="47.83439800" lon="-3.24964700"><ele>28.1399994984</ele><time>2007-04-30T15:07:34Z</time></trkpt>
<trkpt lat="47.83430200" lon="-3.24974500"><ele>26.8181056728</ele><time>2007-04-30T15:07:36Z</time></trkpt>
<trkpt lat="47.83427800" lon="-3.24996100"><ele>26.0148010056</ele><time>2007-04-30T15:07:38Z</time></trkpt>
<trkpt lat="47.83428400" lon="-3.25015000"><ele>25.6146373152</ele><time>2007-04-30T15:07:40Z</time></trkpt>
<trkpt lat="47.83437400" lon="-3.25025700"><ele>26.2439996328</ele><time>2007-04-30T15:07:42Z</time></trkpt>
<trkpt lat="47.83444700" lon="-3.25039200"><ele>26.5079994096</ele><time>2007-04-30T15:07:45Z</time></trkpt>
<trkpt lat="47.83442900" lon="-3.25054500"><ele>25.8825321312</ele><time>2007-04-30T15:07:51Z</time></trkpt>
<trkpt lat="47.83432600" lon="-3.25065300"><ele>25.0631254896</ele><time>2007-04-30T15:07:55Z</time></trkpt>
<trkpt lat="47.83430200" lon="-3.25079600"><ele>24.7687493448</ele><time>2007-04-30T15:08:00Z</time></trkpt>
<trkpt lat="47.83426500" lon="-3.25093100"><ele>24.5748118104</ele><time>2007-04-30T15:08:08Z</time></trkpt>
<trkpt lat="47.83425900" lon="-3.25107500"><ele>24.5196875112</ele><time>2007-04-30T15:08:30Z</time></trkpt>
<trkpt lat="47.83435600" lon="-3.25102100"><ele>24.32615658</ele><time>2007-04-30T15:09:47Z</time></trkpt>
<trkpt lat="47.83440500" lon="-3.25118300"><ele>24.3231259536</ele><time>2007-04-30T15:09:52Z</time></trkpt>
<trkpt lat="47.83445900" lon="-3.25129900"><ele>24.3578128032</ele><time>2007-04-30T15:09:55Z</time></trkpt>
<trkpt lat="47.83450700" lon="-3.25145200"><ele>24.8484383904</ele><time>2007-04-30T15:09:58Z</time></trkpt>
<trkpt lat="47.83456800" lon="-3.25160500"><ele>25.5111257112</ele><time>2007-04-30T15:10:02Z</time></trkpt>
<trkpt lat="47.83456800" lon="-3.25178500"><ele>25.9319268</ele><time>2007-04-30T15:10:05Z</time></trkpt>
<trkpt lat="47.83455000" lon="-3.25194600"><ele>26.0360717784</ele><time>2007-04-30T15:10:08Z</time></trkpt>
<trkpt lat="47.83450100" lon="-3.25208100"><ele>25.965631584</ele><time>2007-04-30T15:10:11Z</time></trkpt>
<trkpt lat="47.83445300" lon="-3.25221600"><ele>25.9215203184</ele><time>2007-04-30T15:10:14Z</time></trkpt>
<trkpt lat="47.83440500" lon="-3.25241300"><ele>26.030000772</ele><time>2007-04-30T15:10:17Z</time></trkpt>
<trkpt lat="47.83445900" lon="-3.25255700"><ele>26.4746265528</ele><time>2007-04-30T15:10:20Z</time></trkpt>
<trkpt lat="47.83451900" lon="-3.25270100"><ele>26.8861638552</ele><time>2007-04-30T15:10:23Z</time></trkpt>
<trkpt lat="47.83456200" lon="-3.25283600"><ele>27.1754989128</ele><time>2007-04-30T15:10:26Z</time></trkpt>
<trkpt lat="47.83461600" lon="-3.25297900"><ele>27.45582774</ele><time>2007-04-30T15:10:31Z</time></trkpt>
<trkpt lat="47.83468300" lon="-3.25311400"><ele>27.6900003984</ele><time>2007-04-30T15:10:35Z</time></trkpt>
<trkpt lat="47.83478000" lon="-3.25322200"><ele>27.92000004</ele><time>2007-04-30T15:10:39Z</time></trkpt>
<trkpt lat="47.83488200" lon="-3.25326700"><ele>28.2999993816</ele><time>2007-04-30T15:10:42Z</time></trkpt>
<trkpt lat="47.83500300" lon="-3.25329400"><ele>28.8400001304</ele><time>2007-04-30T15:10:45Z</time></trkpt>
<trkpt lat="47.83513600" lon="-3.25332100"><ele>29.4400004544</ele><time>2007-04-30T15:10:48Z</time></trkpt>
<trkpt lat="47.83525700" lon="-3.25333900"><ele>29.9799996792</ele><time>2007-04-30T15:10:51Z</time></trkpt>
<trkpt lat="47.83537200" lon="-3.25338400"><ele>30.7500000696</ele><time>2007-04-30T15:10:54Z</time></trkpt>
<trkpt lat="47.83549300" lon="-3.25344600"><ele>31.5750007056</ele><time>2007-04-30T15:10:57Z</time></trkpt>
<trkpt lat="47.83558400" lon="-3.25354500"><ele>32.205001884</ele><time>2007-04-30T15:11:00Z</time></trkpt>
<trkpt lat="47.83567500" lon="-3.25362600"><ele>32.8349991</ele><time>2007-04-30T15:11:03Z</time></trkpt>
<trkpt lat="47.83575900" lon="-3.25370700"><ele>33.3496514616</ele><time>2007-04-30T15:11:06Z</time></trkpt>
<trkpt lat="47.83586200" lon="-3.25379700"><ele>34.0388259024</ele><time>2007-04-30T15:11:10Z</time></trkpt>
<trkpt lat="47.83595300" lon="-3.25386900"><ele>34.7228010648</ele><time>2007-04-30T15:11:13Z</time></trkpt>
<trkpt lat="47.83603200" lon="-3.25395800"><ele>35.530593912</ele><time>2007-04-30T15:11:17Z</time></trkpt>
<trkpt lat="47.83612200" lon="-3.25406600"><ele>36.6306762432</ele><time>2007-04-30T15:11:21Z</time></trkpt>
<trkpt lat="47.83622500" lon="-3.25416500"><ele>37.3829765928</ele><time>2007-04-30T15:11:25Z</time></trkpt>
<trkpt lat="47.83632800" lon="-3.25426400"><ele>38.1650162784</ele><time>2007-04-30T15:11:29Z</time></trkpt>
<trkpt lat="47.83642500" lon="-3.25437200"><ele>39.0400696464</ele><time>2007-04-30T15:11:34Z</time></trkpt>
<trkpt lat="47.83651500" lon="-3.25448800"><ele>40.0029374184</ele><time>2007-04-30T15:11:38Z</time></trkpt>
<trkpt lat="47.83659400" lon="-3.25458700"><ele>40.8041572536</ele><time>2007-04-30T15:11:41Z</time></trkpt>
<trkpt lat="47.83669100" lon="-3.25469500"><ele>41.4936867864</ele><time>2007-04-30T15:11:44Z</time></trkpt>
<trkpt lat="47.83677500" lon="-3.25481200"><ele>42.1146698472</ele><time>2007-04-30T15:11:48Z</time></trkpt>
<trkpt lat="47.83683000" lon="-3.25493800"><ele>42.7580298</ele><time>2007-04-30T15:11:52Z</time></trkpt>
<trkpt lat="47.83691500" lon="-3.25507200"><ele>43.5733603512</ele><time>2007-04-30T15:11:56Z</time></trkpt>
<trkpt lat="47.83699300" lon="-3.25520700"><ele>44.4221878128</ele><time>2007-04-30T15:12:00Z</time></trkpt>
<trkpt lat="47.83707200" lon="-3.25531500"><ele>45.0534362328</ele><time>2007-04-30T15:12:05Z</time></trkpt>
<trkpt lat="47.83716300" lon="-3.25540500"><ele>45.5251349592</ele><time>2007-04-30T15:12:10Z</time></trkpt>
<trkpt lat="47.83723500" lon="-3.25550400"><ele>45.9249953736</ele><time>2007-04-30T15:12:13Z</time></trkpt>
<trkpt lat="47.83731400" lon="-3.25558400"><ele>46.3381880448</ele><time>2007-04-30T15:12:16Z</time></trkpt>
<trkpt lat="47.83740500" lon="-3.25565600"><ele>46.7987518176</ele><time>2007-04-30T15:12:20Z</time></trkpt>
<trkpt lat="47.83748900" lon="-3.25574600"><ele>47.1427725672</ele><time>2007-04-30T15:12:23Z</time></trkpt>
<trkpt lat="47.83757400" lon="-3.25581800"><ele>47.469100896</ele><time>2007-04-30T15:12:27Z</time></trkpt>
<trkpt lat="47.83767700" lon="-3.25588100"><ele>47.8178137368</ele><time>2007-04-30T15:12:31Z</time></trkpt>
<trkpt lat="47.83777300" lon="-3.25589900"><ele>47.9995385448</ele><time>2007-04-30T15:12:35Z</time></trkpt>
<trkpt lat="47.83785200" lon="-3.25598900"><ele>48.4441109856</ele><time>2007-04-30T15:12:39Z</time></trkpt>
<trkpt lat="47.83795500" lon="-3.25603400"><ele>48.3066025992</ele><time>2007-04-30T15:12:43Z</time></trkpt>
<trkpt lat="47.83805200" lon="-3.25607000"><ele>48.1846390128</ele><time>2007-04-30T15:12:47Z</time></trkpt>
<trkpt lat="47.83815400" lon="-3.25611400"><ele>48.1352998176</ele><time>2007-04-30T15:12:52Z</time></trkpt>
<trkpt lat="47.83826300" lon="-3.25617700"><ele>48.244350552</ele><time>2007-04-30T15:12:56Z</time></trkpt>
<trkpt lat="47.83836600" lon="-3.25622200"><ele>48.5169639768</ele><time>2007-04-30T15:13:01Z</time></trkpt>
<trkpt lat="47.83846900" lon="-3.25622200"><ele>48.4792824672</ele><time>2007-04-30T15:13:04Z</time></trkpt>
<trkpt lat="47.83857200" lon="-3.25625800"><ele>48.7944450576</ele><time>2007-04-30T15:13:08Z</time></trkpt>
<trkpt lat="47.83867500" lon="-3.25633900"><ele>49.6778106264</ele><time>2007-04-30T15:13:13Z</time></trkpt>
<trkpt lat="47.83876500" lon="-3.25639300"><ele>50.6599999752</ele><time>2007-04-30T15:13:16Z</time></trkpt>
<trkpt lat="47.83886200" lon="-3.25642900"><ele>51.8474998608</ele><time>2007-04-30T15:13:20Z</time></trkpt>
<trkpt lat="47.83897100" lon="-3.25644700"><ele>52.9049988888</ele><time>2007-04-30T15:13:25Z</time></trkpt>
<trkpt lat="47.83907400" lon="-3.25642900"><ele>53.4599991504</ele><time>2007-04-30T15:13:29Z</time></trkpt>
<trkpt lat="47.83918900" lon="-3.25640200"><ele>54.0543975552</ele><time>2007-04-30T15:13:35Z</time></trkpt>
<trkpt lat="47.83929800" lon="-3.25638400"><ele>55.0984381392</ele><time>2007-04-30T15:13:40Z</time></trkpt>
<trkpt lat="47.83939400" lon="-3.25638400"><ele>56.2331274624</ele><time>2007-04-30T15:13:46Z</time></trkpt>
<trkpt lat="47.83949100" lon="-3.25636600"><ele>57.1783485336</ele><time>2007-04-30T15:13:53Z</time></trkpt>
<trkpt lat="47.83959400" lon="-3.25636600"><ele>58.3842126192</ele><time>2007-04-30T15:14:01Z</time></trkpt>
<trkpt lat="47.83970900" lon="-3.25633900"><ele>59.2998238944</ele><time>2007-04-30T15:14:07Z</time></trkpt>
<trkpt lat="47.83980600" lon="-3.25634800"><ele>60.350624028</ele><time>2007-04-30T15:14:11Z</time></trkpt>
<trkpt lat="47.83994500" lon="-3.25633000"><ele>61.5525397344</ele><time>2007-04-30T15:14:16Z</time></trkpt>
<trkpt lat="47.84004100" lon="-3.25633900"><ele>62.6151999408</ele><time>2007-04-30T15:14:22Z</time></trkpt>
<trkpt lat="47.84013800" lon="-3.25634800"><ele>63.678665124</ele><time>2007-04-30T15:14:30Z</time></trkpt>
<trkpt lat="47.84024100" lon="-3.25638400"><ele>65.0646437592</ele><time>2007-04-30T15:14:37Z</time></trkpt>
<trkpt lat="47.84033200" lon="-3.25642900"><ele>66.3683318808</ele><time>2007-04-30T15:14:46Z</time></trkpt>
<trkpt lat="47.84042800" lon="-3.25643800"><ele>67.4156417496</ele><time>2007-04-30T15:14:57Z</time></trkpt>
<trkpt lat="47.84052500" lon="-3.25642000"><ele>68.2359390168</ele><time>2007-04-30T15:15:04Z</time></trkpt>
<trkpt lat="47.84062800" lon="-3.25643800"><ele>68.5323564072</ele><time>2007-04-30T15:15:10Z</time></trkpt>
<trkpt lat="47.84073100" lon="-3.25649200"><ele>69.1327514472</ele><time>2007-04-30T15:15:17Z</time></trkpt>
<trkpt lat="47.84081600" lon="-3.25655500"><ele>69.8079148416</ele><time>2007-04-30T15:15:21Z</time></trkpt>
<trkpt lat="47.84090600" lon="-3.25660900"><ele>70.4430543384</ele><time>2007-04-30T15:15:27Z</time></trkpt>
<trkpt lat="47.84100900" lon="-3.25666200"><ele>71.0912475048</ele><time>2007-04-30T15:15:32Z</time></trkpt>
<trkpt lat="47.84111200" lon="-3.25675200"><ele>72.0400009032</ele><time>2007-04-30T15:15:36Z</time></trkpt>
<trkpt lat="47.84119700" lon="-3.25685100"><ele>73.0462493352</ele><time>2007-04-30T15:15:40Z</time></trkpt>
<trkpt lat="47.84128700" lon="-3.25694100"><ele>73.9781265672</ele><time>2007-04-30T15:15:45Z</time></trkpt>
<trkpt lat="47.84139600" lon="-3.25699500"><ele>74.6037520368</ele><time>2007-04-30T15:15:49Z</time></trkpt>
<trkpt lat="47.84149900" lon="-3.25704000"><ele>75.1859895312</ele><time>2007-04-30T15:15:52Z</time></trkpt>
<trkpt lat="47.84159000" lon="-3.25707600"><ele>75.6472016136</ele><time>2007-04-30T15:15:55Z</time></trkpt>
<trkpt lat="47.84167400" lon="-3.25714700"><ele>76.3665314424</ele><time>2007-04-30T15:15:59Z</time></trkpt>
<trkpt lat="47.84176500" lon="-3.25719200"><ele>76.8424988928</ele><time>2007-04-30T15:16:03Z</time></trkpt>
<trkpt lat="47.84185000" lon="-3.25726400"><ele>77.2256239584</ele><time>2007-04-30T15:16:07Z</time></trkpt>
<trkpt lat="47.84194000" lon="-3.25733600"><ele>77.6224976376</ele><time>2007-04-30T15:16:11Z</time></trkpt>
<trkpt lat="47.84204900" lon="-3.25739000"><ele>77.9943771072</ele><time>2007-04-30T15:16:16Z</time></trkpt>
<trkpt lat="47.84216400" lon="-3.25745300"><ele>78.4112471904</ele><time>2007-04-30T15:16:20Z</time></trkpt>
<trkpt lat="47.84226100" lon="-3.25748900"><ele>78.7031248896</ele><time>2007-04-30T15:16:24Z</time></trkpt>
<trkpt lat="47.84235800" lon="-3.25754300"><ele>79.0587539472</ele><time>2007-04-30T15:16:27Z</time></trkpt>
<trkpt lat="47.84245400" lon="-3.25758800"><ele>79.3775025096</ele><time>2007-04-30T15:16:30Z</time></trkpt>
<trkpt lat="47.84254500" lon="-3.25762400"><ele>79.6612472304</ele><time>2007-04-30T15:16:34Z</time></trkpt>
<trkpt lat="47.84264800" lon="-3.25762400"><ele>79.8587494008</ele><time>2007-04-30T15:16:39Z</time></trkpt>
<trkpt lat="47.84276300" lon="-3.25763300"><ele>80.1514281144</ele><time>2007-04-30T15:16:44Z</time></trkpt>
<trkpt lat="47.84286000" lon="-3.25762400"><ele>80.4243317088</ele><time>2007-04-30T15:16:53Z</time></trkpt>
<trkpt lat="47.84288400" lon="-3.25776700"><ele>80.8707122232</ele><time>2007-04-30T15:17:01Z</time></trkpt>
<trkpt lat="47.84289600" lon="-3.25793800"><ele>81.3290253528</ele><time>2007-04-30T15:17:07Z</time></trkpt>
<trkpt lat="47.84289600" lon="-3.25810000"><ele>81.620941152</ele><time>2007-04-30T15:17:12Z</time></trkpt>
<trkpt lat="47.84289600" lon="-3.25827000"><ele>81.8946838608</ele><time>2007-04-30T15:17:18Z</time></trkpt>
<trkpt lat="47.84295600" lon="-3.25838700"><ele>82.20500196</ele><time>2007-04-30T15:17:22Z</time></trkpt>
<trkpt lat="47.84305900" lon="-3.25839600"><ele>82.4321898216</ele><time>2007-04-30T15:17:26Z</time></trkpt>
<trkpt lat="47.84315600" lon="-3.25835100"><ele>82.5596846136</ele><time>2007-04-30T15:17:29Z</time></trkpt>
<trkpt lat="47.84325900" lon="-3.25831500"><ele>82.7146836432</ele><time>2007-04-30T15:17:32Z</time></trkpt>
<trkpt lat="47.84336200" lon="-3.25825200"><ele>82.8240586848</ele><time>2007-04-30T15:17:35Z</time></trkpt>
<trkpt lat="47.84345200" lon="-3.25816300"><ele>82.86718758</ele><time>2007-04-30T15:17:38Z</time></trkpt>
<trkpt lat="47.84353100" lon="-3.25808200"><ele>82.8987502296</ele><time>2007-04-30T15:17:41Z</time></trkpt>
<trkpt lat="47.84361600" lon="-3.25801000"><ele>82.962501588</ele><time>2007-04-30T15:17:44Z</time></trkpt>
<trkpt lat="47.84372400" lon="-3.25796500"><ele>83.113433976</ele><time>2007-04-30T15:17:47Z</time></trkpt>
<trkpt lat="47.84382700" lon="-3.25796500"><ele>83.3221893624</ele><time>2007-04-30T15:17:50Z</time></trkpt>
<trkpt lat="47.84392400" lon="-3.25796500"><ele>83.521873596</ele><time>2007-04-30T15:17:53Z</time></trkpt>
<trkpt lat="47.84404500" lon="-3.25797400"><ele>83.7859343328</ele><time>2007-04-30T15:17:56Z</time></trkpt>
<trkpt lat="47.84416000" lon="-3.25797400"><ele>84.0228117864</ele><time>2007-04-30T15:17:59Z</time></trkpt>
<trkpt lat="47.84428100" lon="-3.25798300"><ele>84.2871855528</ele><time>2007-04-30T15:18:02Z</time></trkpt>
<trkpt lat="47.84440200" lon="-3.25799200"><ele>84.5515593192</ele><time>2007-04-30T15:18:05Z</time></trkpt>
<trkpt lat="47.84451100" lon="-3.25799200"><ele>84.7764206424</ele><time>2007-04-30T15:18:08Z</time></trkpt>
<trkpt lat="47.84462500" lon="-3.25795600"><ele>85.0324477656</ele><time>2007-04-30T15:18:11Z</time></trkpt>
<trkpt lat="47.84471600" lon="-3.25792000"><ele>85.257164004</ele><time>2007-04-30T15:18:13Z</time></trkpt>
<trkpt lat="47.84481900" lon="-3.25786600"><ele>85.5287017896</ele><time>2007-04-30T15:18:16Z</time></trkpt>
<trkpt lat="47.84493400" lon="-3.25779400"><ele>85.8881073192</ele><time>2007-04-30T15:18:19Z</time></trkpt>
<trkpt lat="47.84504300" lon="-3.25772200"><ele>86.1650010504</ele><time>2007-04-30T15:18:22Z</time></trkpt>
<trkpt lat="47.84516400" lon="-3.25768600"><ele>86.4250030704</ele><time>2007-04-30T15:18:25Z</time></trkpt>
<trkpt lat="47.84526600" lon="-3.25764200"><ele>86.6500015536</ele><time>2007-04-30T15:18:28Z</time></trkpt>
<trkpt lat="47.84538700" lon="-3.25757900"><ele>86.9100035736</ele><time>2007-04-30T15:18:31Z</time></trkpt>
<trkpt lat="47.84551400" lon="-3.25751600"><ele>87.1849974864</ele><time>2007-04-30T15:18:34Z</time></trkpt>
<trkpt lat="47.84561100" lon="-3.25745300"><ele>87.3949967616</ele><time>2007-04-30T15:18:36Z</time></trkpt>
<trkpt lat="47.84569600" lon="-3.25734500"><ele>87.5699998152</ele><time>2007-04-30T15:18:39Z</time></trkpt>
<trkpt lat="47.84578000" lon="-3.25721900"><ele>87.7450028688</ele><time>2007-04-30T15:18:42Z</time></trkpt>
<trkpt lat="47.84586500" lon="-3.25710300"><ele>87.9199983024</ele><time>2007-04-30T15:18:45Z</time></trkpt>
<trkpt lat="47.84593800" lon="-3.25697700"><ele>88.0015944816</ele><time>2007-04-30T15:18:48Z</time></trkpt>
<trkpt lat="47.84602200" lon="-3.25684200"><ele>87.616248948</ele><time>2007-04-30T15:18:51Z</time></trkpt>
<trkpt lat="47.84611900" lon="-3.25675200"><ele>87.3162535104</ele><time>2007-04-30T15:18:54Z</time></trkpt>
<trkpt lat="47.84622800" lon="-3.25670700"><ele>87.1474991616</ele><time>2007-04-30T15:18:57Z</time></trkpt>
<trkpt lat="47.84633100" lon="-3.25667100"><ele>87.0074996448</ele><time>2007-04-30T15:19:00Z</time></trkpt>
<trkpt lat="47.84644600" lon="-3.25675200"><ele>87.3831254112</ele><time>2007-04-30T15:19:04Z</time></trkpt>
<trkpt lat="47.84652400" lon="-3.25683300"><ele>87.7850036016</ele><time>2007-04-30T15:19:07Z</time></trkpt>
<trkpt lat="47.84660300" lon="-3.25693200"><ele>88.241248968</ele><time>2007-04-30T15:19:10Z</time></trkpt>
<trkpt lat="47.84670600" lon="-3.25704900"><ele>88.79557806</ele><time>2007-04-30T15:19:13Z</time></trkpt>
<trkpt lat="47.84682100" lon="-3.25716500"><ele>89.410743708</ele><time>2007-04-30T15:19:16Z</time></trkpt>
<trkpt lat="47.84689900" lon="-3.25724600"><ele>89.9423219184</ele><time>2007-04-30T15:19:18Z</time></trkpt>
<trkpt lat="47.84698400" lon="-3.25734500"><ele>90.4987946688</ele><time>2007-04-30T15:19:21Z</time></trkpt>
<trkpt lat="47.84703200" lon="-3.25749800"><ele>91.0103301456</ele><time>2007-04-30T15:19:24Z</time></trkpt>
<trkpt lat="47.84708700" lon="-3.25764200"><ele>91.472618172</ele><time>2007-04-30T15:19:27Z</time></trkpt>
<trkpt lat="47.84716500" lon="-3.25775800"><ele>91.8693772464</ele><time>2007-04-30T15:19:30Z</time></trkpt>
<trkpt lat="47.84726200" lon="-3.25785700"><ele>92.0999983752</ele><time>2007-04-30T15:19:33Z</time></trkpt>
<trkpt lat="47.84735900" lon="-3.25796500"><ele>92.3249968584</ele><time>2007-04-30T15:19:36Z</time></trkpt>
<trkpt lat="47.84743100" lon="-3.25808200"><ele>92.499999912</ele><time>2007-04-30T15:19:39Z</time></trkpt>
<trkpt lat="47.84751600" lon="-3.25819900"><ele>92.6999968704</ele><time>2007-04-30T15:19:43Z</time></trkpt>
<trkpt lat="47.84761300" lon="-3.25827900"><ele>92.9250029736</ele><time>2007-04-30T15:19:46Z</time></trkpt>
<trkpt lat="47.84770300" lon="-3.25837800"><ele>93.2478102528</ele><time>2007-04-30T15:19:49Z</time></trkpt>
<trkpt lat="47.84777600" lon="-3.25848600"><ele>93.6055220088</ele><time>2007-04-30T15:19:53Z</time></trkpt>
<trkpt lat="47.84786700" lon="-3.25853100"><ele>94.0103683416</ele><time>2007-04-30T15:19:56Z</time></trkpt>
<trkpt lat="47.84797000" lon="-3.25860300"><ele>94.4029693344</ele><time>2007-04-30T15:19:59Z</time></trkpt>
<trkpt lat="47.84806600" lon="-3.25869300"><ele>94.6990127352</ele><time>2007-04-30T15:20:02Z</time></trkpt>
<trkpt lat="47.84815100" lon="-3.25876400"><ele>94.8287505504</ele><time>2007-04-30T15:20:05Z</time></trkpt>
<trkpt lat="47.84818100" lon="-3.25861200"><ele>95.1106262376</ele><time>2007-04-30T15:20:11Z</time></trkpt>
<trkpt lat="47.84812100" lon="-3.25849500"><ele>95.0193709464</ele><time>2007-04-30T15:20:14Z</time></trkpt>
<trkpt lat="47.84802400" lon="-3.25837800"><ele>94.5083237592</ele><time>2007-04-30T15:20:18Z</time></trkpt>
<trkpt lat="47.84792700" lon="-3.25827000"><ele>94.0162201968</ele><time>2007-04-30T15:20:21Z</time></trkpt>
<trkpt lat="47.84782400" lon="-3.25816300"><ele>93.5683364088</ele><time>2007-04-30T15:20:24Z</time></trkpt>
<trkpt lat="47.84770900" lon="-3.25806400"><ele>93.157081656</ele><time>2007-04-30T15:20:27Z</time></trkpt>
<trkpt lat="47.84758900" lon="-3.25799200"><ele>92.8399963872</ele><time>2007-04-30T15:20:30Z</time></trkpt>
<trkpt lat="47.84747400" lon="-3.25790200"><ele>92.5749968664</ele><time>2007-04-30T15:20:33Z</time></trkpt>
<trkpt lat="47.84755200" lon="-3.25777600"><ele>92.6956254288</ele><time>2007-04-30T15:20:39Z</time></trkpt>
<trkpt lat="47.84762500" lon="-3.25763300"><ele>92.6156233536</ele><time>2007-04-30T15:20:42Z</time></trkpt>
<trkpt lat="47.84767900" lon="-3.25750700"><ele>92.5237502328</ele><time>2007-04-30T15:20:44Z</time></trkpt>
<trkpt lat="47.84774600" lon="-3.25739000"><ele>92.559257604</ele><time>2007-04-30T15:20:46Z</time></trkpt>
<trkpt lat="47.84783000" lon="-3.25725500"><ele>92.6878204152</ele><time>2007-04-30T15:20:49Z</time></trkpt>
<trkpt lat="47.84793900" lon="-3.25711200"><ele>92.9478148152</ele><time>2007-04-30T15:20:52Z</time></trkpt>
<trkpt lat="47.84801200" lon="-3.25700400"><ele>93.0749968824</ele><time>2007-04-30T15:20:54Z</time></trkpt>
<trkpt lat="47.84808400" lon="-3.25690500"><ele>93.2159348784</ele><time>2007-04-30T15:20:56Z</time></trkpt>
<trkpt lat="47.84816300" lon="-3.25680600"><ele>93.3856277064</ele><time>2007-04-30T15:20:58Z</time></trkpt>
<trkpt lat="47.84824200" lon="-3.25669800"><ele>93.5055924144</ele><time>2007-04-30T15:21:00Z</time></trkpt>
<trkpt lat="47.84834400" lon="-3.25655500"><ele>93.72779832</ele><time>2007-04-30T15:21:03Z</time></trkpt>
<trkpt lat="47.84844100" lon="-3.25642900"><ele>93.8555528016</ele><time>2007-04-30T15:21:06Z</time></trkpt>
<trkpt lat="47.84854400" lon="-3.25636600"><ele>94.2035981304</ele><time>2007-04-30T15:21:09Z</time></trkpt>
<trkpt lat="47.84845900" lon="-3.25626700"><ele>93.553146396</ele><time>2007-04-30T15:21:20Z</time></trkpt>
<trkpt lat="47.84834400" lon="-3.25620400"><ele>92.7926100456</ele><time>2007-04-30T15:21:23Z</time></trkpt>
<trkpt lat="47.84823000" lon="-3.25614100"><ele>91.992584112</ele><time>2007-04-30T15:21:26Z</time></trkpt>
<trkpt lat="47.84813300" lon="-3.25611400"><ele>91.4643782088</ele><time>2007-04-30T15:21:28Z</time></trkpt>
<trkpt lat="47.84802400" lon="-3.25612300"><ele>91.045623852</ele><time>2007-04-30T15:21:30Z</time></trkpt>
<trkpt lat="47.84792700" lon="-3.25613200"><ele>90.673126248</ele><time>2007-04-30T15:21:32Z</time></trkpt>
<trkpt lat="47.84781800" lon="-3.25612300"><ele>90.2006225448</ele><time>2007-04-30T15:21:34Z</time></trkpt>
<trkpt lat="47.84770900" lon="-3.25610500"><ele>89.6912535864</ele><time>2007-04-30T15:21:36Z</time></trkpt>
<trkpt lat="47.84760700" lon="-3.25606100"><ele>89.1324997128</ele><time>2007-04-30T15:21:38Z</time></trkpt>
<trkpt lat="47.84751000" lon="-3.25604300"><ele>88.669372572</ele><time>2007-04-30T15:21:40Z</time></trkpt>
<trkpt lat="47.84744900" lon="-3.25590800"><ele>87.98500056</ele><time>2007-04-30T15:21:47Z</time></trkpt>
<trkpt lat="47.84748000" lon="-3.25576400"><ele>87.6994017408</ele><time>2007-04-30T15:21:50Z</time></trkpt>
<trkpt lat="47.84754600" lon="-3.25560200"><ele>87.8348082264</ele><time>2007-04-30T15:21:53Z</time></trkpt>
<trkpt lat="47.84760100" lon="-3.25548600"><ele>88.013374392</ele><time>2007-04-30T15:21:55Z</time></trkpt>
<trkpt lat="47.84768500" lon="-3.25533300"><ele>88.3771285032</ele><time>2007-04-30T15:21:58Z</time></trkpt>
<trkpt lat="47.84774600" lon="-3.25518000"><ele>88.6759108368</ele><time>2007-04-30T15:22:01Z</time></trkpt>
<trkpt lat="47.84783000" lon="-3.25502700"><ele>89.1312866088</ele><time>2007-04-30T15:22:04Z</time></trkpt>
<trkpt lat="47.84791500" lon="-3.25490200"><ele>89.5612106664</ele><time>2007-04-30T15:22:07Z</time></trkpt>
<trkpt lat="47.84802400" lon="-3.25479400"><ele>90.1934509056</ele><time>2007-04-30T15:22:10Z</time></trkpt>
<trkpt lat="47.84811500" lon="-3.25474900"><ele>90.7477644528</ele><time>2007-04-30T15:22:12Z</time></trkpt>
<trkpt lat="47.84823000" lon="-3.25468600"><ele>91.51216902</ele><time>2007-04-30T15:22:15Z</time></trkpt>
<trkpt lat="47.84834400" lon="-3.25462300"><ele>92.0670241968</ele><time>2007-04-30T15:22:18Z</time></trkpt>
<trkpt lat="47.84845900" lon="-3.25456900"><ele>92.3995360032</ele><time>2007-04-30T15:22:21Z</time></trkpt>
<trkpt lat="47.84858000" lon="-3.25451500"><ele>92.5224990288</ele><time>2007-04-30T15:22:24Z</time></trkpt>
<trkpt lat="47.84867100" lon="-3.25447900"><ele>92.5862503872</ele><time>2007-04-30T15:22:27Z</time></trkpt>
<trkpt lat="47.84876800" lon="-3.25457800"><ele>92.986251924</ele><time>2007-04-30T15:22:31Z</time></trkpt>
<trkpt lat="47.84886400" lon="-3.25461400"><ele>93.0417556992</ele><time>2007-04-30T15:22:34Z</time></trkpt>
<trkpt lat="47.84897300" lon="-3.25462300"><ele>93.0435942528</ele><time>2007-04-30T15:22:37Z</time></trkpt>
<trkpt lat="47.84910000" lon="-3.25457800"><ele>92.881248324</ele><time>2007-04-30T15:22:40Z</time></trkpt>
<trkpt lat="47.84919700" lon="-3.25447900"><ele>92.5316771664</ele><time>2007-04-30T15:22:43Z</time></trkpt>
<trkpt lat="47.84927600" lon="-3.25434500"><ele>92.01982104</ele><time>2007-04-30T15:22:46Z</time></trkpt>
<trkpt lat="47.84934800" lon="-3.25422800"><ele>91.6292420904</ele><time>2007-04-30T15:22:48Z</time></trkpt>
<trkpt lat="47.84945100" lon="-3.25412900"><ele>91.3091505792</ele><time>2007-04-30T15:22:51Z</time></trkpt>
<trkpt lat="47.84955400" lon="-3.25408400"><ele>91.1601256296</ele><time>2007-04-30T15:22:54Z</time></trkpt>
<trkpt lat="47.84966900" lon="-3.25408400"><ele>91.1170881744</ele><time>2007-04-30T15:22:59Z</time></trkpt>
<trkpt lat="47.84976500" lon="-3.25406600"><ele>91.089065472</ele><time>2007-04-30T15:23:04Z</time></trkpt>
<trkpt lat="47.84986800" lon="-3.25400300"><ele>90.9397582776</ele><time>2007-04-30T15:23:07Z</time></trkpt>
<trkpt lat="47.84998900" lon="-3.25393200"><ele>90.7912444776</ele><time>2007-04-30T15:23:10Z</time></trkpt>
<trkpt lat="47.85012800" lon="-3.25388700"><ele>90.8515625688</ele><time>2007-04-30T15:23:13Z</time></trkpt>
<trkpt lat="47.85024300" lon="-3.25381500"><ele>91.4609376264</ele><time>2007-04-30T15:23:16Z</time></trkpt>
<trkpt lat="47.85036400" lon="-3.25374300"><ele>92.1140594088</ele><time>2007-04-30T15:23:19Z</time></trkpt>
<trkpt lat="47.85045500" lon="-3.25368900"><ele>92.6190642408</ele><time>2007-04-30T15:23:22Z</time></trkpt>
<trkpt lat="47.85053900" lon="-3.25362600"><ele>93.051872316</ele><time>2007-04-30T15:23:25Z</time></trkpt>
<trkpt lat="47.85062400" lon="-3.25356300"><ele>93.3843765024</ele><time>2007-04-30T15:23:28Z</time></trkpt>
<trkpt lat="47.85072100" lon="-3.25345500"><ele>93.6178130688</ele><time>2007-04-30T15:23:32Z</time></trkpt>
<trkpt lat="47.85080500" lon="-3.25333900"><ele>93.8741989416</ele><time>2007-04-30T15:23:36Z</time></trkpt>
<trkpt lat="47.85090200" lon="-3.25324000"><ele>94.127525232</ele><time>2007-04-30T15:23:39Z</time></trkpt>
<trkpt lat="47.85097500" lon="-3.25315000"><ele>94.2626799528</ele><time>2007-04-30T15:23:42Z</time></trkpt>
<trkpt lat="47.85106500" lon="-3.25309600"><ele>94.3697052912</ele><time>2007-04-30T15:23:45Z</time></trkpt>
<trkpt lat="47.85117400" lon="-3.25308700"><ele>93.9509353896</ele><time>2007-04-30T15:23:49Z</time></trkpt>
<trkpt lat="47.85127100" lon="-3.25306000"><ele>93.5297853048</ele><time>2007-04-30T15:23:52Z</time></trkpt>
<trkpt lat="47.85139800" lon="-3.25297000"><ele>92.7998658096</ele><time>2007-04-30T15:23:56Z</time></trkpt>
<trkpt lat="47.85151300" lon="-3.25291600"><ele>92.1452331336</ele><time>2007-04-30T15:23:59Z</time></trkpt>
<trkpt lat="47.85161600" lon="-3.25285400"><ele>91.5430373352</ele><time>2007-04-30T15:24:02Z</time></trkpt>
<trkpt lat="47.85170000" lon="-3.25279100"><ele>91.1339341656</ele><time>2007-04-30T15:24:05Z</time></trkpt>
<trkpt lat="47.85180300" lon="-3.25267400"><ele>90.5557861728</ele><time>2007-04-30T15:24:08Z</time></trkpt>
<trkpt lat="47.85187000" lon="-3.25257500"><ele>90.1092605736</ele><time>2007-04-30T15:24:10Z</time></trkpt>
<trkpt lat="47.85195400" lon="-3.25249400"><ele>89.5485459216</ele><time>2007-04-30T15:24:12Z</time></trkpt>
<trkpt lat="47.85206900" lon="-3.25237700"><ele>88.6449964968</ele><time>2007-04-30T15:24:15Z</time></trkpt>
<trkpt lat="47.85218400" lon="-3.25230600"><ele>87.7859344608</ele><time>2007-04-30T15:24:17Z</time></trkpt>
<trkpt lat="47.85231700" lon="-3.25226100"><ele>86.855003328</ele><time>2007-04-30T15:24:19Z</time></trkpt>
<trkpt lat="47.85243800" lon="-3.25234200"><ele>86.0896910664</ele><time>2007-04-30T15:24:22Z</time></trkpt>
<trkpt lat="47.85251700" lon="-3.25248500"><ele>86.243598912</ele><time>2007-04-30T15:24:25Z</time></trkpt>
<trkpt lat="47.85255300" lon="-3.25262900"><ele>86.612403864</ele><time>2007-04-30T15:24:28Z</time></trkpt>
<trkpt lat="47.85255900" lon="-3.25278200"><ele>87.0651245232</ele><time>2007-04-30T15:24:31Z</time></trkpt>
<trkpt lat="47.85254700" lon="-3.25293400"><ele>87.4883728512</ele><time>2007-04-30T15:24:35Z</time></trkpt>
<trkpt lat="47.85245000" lon="-3.25299700"><ele>87.2858046</ele><time>2007-04-30T15:24:41Z</time></trkpt>
<trkpt lat="47.85240200" lon="-3.25313200"><ele>87.5193786312</ele><time>2007-04-30T15:24:45Z</time></trkpt>
<trkpt lat="47.85234700" lon="-3.25326700"><ele>88.2182999664</ele><time>2007-04-30T15:24:49Z</time></trkpt>
<trkpt lat="47.85232900" lon="-3.25341900"><ele>88.7099152392</ele><time>2007-04-30T15:24:52Z</time></trkpt>
<trkpt lat="47.85228100" lon="-3.25357200"><ele>89.3362883832</ele><time>2007-04-30T15:24:56Z</time></trkpt>
<trkpt lat="47.85220800" lon="-3.25370700"><ele>90.0932768616</ele><time>2007-04-30T15:25:00Z</time></trkpt>
<trkpt lat="47.85216000" lon="-3.25384200"><ele>90.8127746352</ele><time>2007-04-30T15:25:03Z</time></trkpt>
<trkpt lat="47.85214800" lon="-3.25400300"><ele>91.4357757768</ele><time>2007-04-30T15:25:07Z</time></trkpt>
<trkpt lat="47.85222600" lon="-3.25410200"><ele>91.2652968696</ele><time>2007-04-30T15:25:10Z</time></trkpt>
<trkpt lat="47.85231100" lon="-3.25421000"><ele>91.027038672</ele><time>2007-04-30T15:25:13Z</time></trkpt>
<trkpt lat="47.85240800" lon="-3.25427300"><ele>91.4599381872</ele><time>2007-04-30T15:25:15Z</time></trkpt>
<trkpt lat="47.85248600" lon="-3.25435400"><ele>92.450469912</ele><time>2007-04-30T15:25:18Z</time></trkpt>
<trkpt lat="47.85260100" lon="-3.25435400"><ele>93.408332868</ele><time>2007-04-30T15:25:22Z</time></trkpt>
<trkpt lat="47.85269200" lon="-3.25426400"><ele>93.7752151416</ele><time>2007-04-30T15:25:26Z</time></trkpt>
<trkpt lat="47.85274600" lon="-3.25409300"><ele>93.429496656</ele><time>2007-04-30T15:25:29Z</time></trkpt>
<trkpt lat="47.85277100" lon="-3.25392300"><ele>92.809249992</ele><time>2007-04-30T15:25:32Z</time></trkpt>
<trkpt lat="47.85281300" lon="-3.25379700"><ele>92.4996795672</ele><time>2007-04-30T15:25:38Z</time></trkpt>
<trkpt lat="47.85291600" lon="-3.25374300"><ele>92.8691712336</ele><time>2007-04-30T15:25:44Z</time></trkpt>
<trkpt lat="47.85298200" lon="-3.25362600"><ele>92.7534865272</ele><time>2007-04-30T15:25:48Z</time></trkpt>
<trkpt lat="47.85304300" lon="-3.25350900"><ele>92.671974168</ele><time>2007-04-30T15:25:52Z</time></trkpt>
<trkpt lat="47.85308500" lon="-3.25338400"><ele>92.45919024</ele><time>2007-04-30T15:25:55Z</time></trkpt>
<trkpt lat="47.85311500" lon="-3.25324900"><ele>92.1357194112</ele><time>2007-04-30T15:25:57Z</time></trkpt>
<trkpt lat="47.85318200" lon="-3.25308700"><ele>92.0578308192</ele><time>2007-04-30T15:26:00Z</time></trkpt>
<trkpt lat="47.85326000" lon="-3.25299700"><ele>92.3671723392</ele><time>2007-04-30T15:26:03Z</time></trkpt>
<trkpt lat="47.85338100" lon="-3.25295200"><ele>92.6970595128</ele><time>2007-04-30T15:26:07Z</time></trkpt>
<trkpt lat="47.85344800" lon="-3.25281800"><ele>92.3579481768</ele><time>2007-04-30T15:26:10Z</time></trkpt>
<trkpt lat="47.85350800" lon="-3.25267400"><ele>92.0449905096</ele><time>2007-04-30T15:26:13Z</time></trkpt>
<trkpt lat="47.85358100" lon="-3.25256600"><ele>91.8850936488</ele><time>2007-04-30T15:26:16Z</time></trkpt>
<trkpt lat="47.85364700" lon="-3.25246700"><ele>91.7817000024</ele><time>2007-04-30T15:26:19Z</time></trkpt>
<trkpt lat="47.85369600" lon="-3.25234200"><ele>91.5102006216</ele><time>2007-04-30T15:26:22Z</time></trkpt>
<trkpt lat="47.85379200" lon="-3.25229700"><ele>91.5808410696</ele><time>2007-04-30T15:26:27Z</time></trkpt>
<trkpt lat="47.85388900" lon="-3.25229700"><ele>91.3462523592</ele><time>2007-04-30T15:26:30Z</time></trkpt>
<trkpt lat="47.85399800" lon="-3.25229700"><ele>91.0718765808</ele><time>2007-04-30T15:26:34Z</time></trkpt>
<trkpt lat="47.85410700" lon="-3.25230600"><ele>90.8243713608</ele><time>2007-04-30T15:26:37Z</time></trkpt>
<trkpt lat="47.85419100" lon="-3.25221600"><ele>90.3487471152</ele><time>2007-04-30T15:26:40Z</time></trkpt>
<trkpt lat="47.85423400" lon="-3.25208100"><ele>89.8518752616</ele><time>2007-04-30T15:26:42Z</time></trkpt>
<trkpt lat="47.85428800" lon="-3.25196400"><ele>89.2425538488</ele><time>2007-04-30T15:26:44Z</time></trkpt>
<trkpt lat="47.85433600" lon="-3.25175800"><ele>88.4964141168</ele><time>2007-04-30T15:26:47Z</time></trkpt>
<trkpt lat="47.85439700" lon="-3.25157800"><ele>87.9420396096</ele><time>2007-04-30T15:26:49Z</time></trkpt>
<trkpt lat="47.85448800" lon="-3.25141600"><ele>87.3143082768</ele><time>2007-04-30T15:26:51Z</time></trkpt>
<trkpt lat="47.85458400" lon="-3.25128100"><ele>86.774452308</ele><time>2007-04-30T15:26:53Z</time></trkpt>
<trkpt lat="47.85469300" lon="-3.25111100"><ele>86.35736856</ele><time>2007-04-30T15:26:55Z</time></trkpt>
<trkpt lat="47.85477800" lon="-3.25098500"><ele>86.2812499416</ele><time>2007-04-30T15:26:57Z</time></trkpt>
<trkpt lat="47.85483800" lon="-3.25085900"><ele>86.358749304</ele><time>2007-04-30T15:26:59Z</time></trkpt>
<trkpt lat="47.85491100" lon="-3.25072500"><ele>86.4203109792</ele><time>2007-04-30T15:27:02Z</time></trkpt>
<trkpt lat="47.85495300" lon="-3.25055400"><ele>86.6071853832</ele><time>2007-04-30T15:27:06Z</time></trkpt>
<trkpt lat="47.85499600" lon="-3.25042800"><ele>86.4348526824</ele><time>2007-04-30T15:27:09Z</time></trkpt>
<trkpt lat="47.85509200" lon="-3.25034700"><ele>86.2232666184</ele><time>2007-04-30T15:27:11Z</time></trkpt>
<trkpt lat="47.85520700" lon="-3.25024800"><ele>86.0434035288</ele><time>2007-04-30T15:27:14Z</time></trkpt>
<trkpt lat="47.85532200" lon="-3.25015000"><ele>85.6800002424</ele><time>2007-04-30T15:27:16Z</time></trkpt>
<trkpt lat="47.85540700" lon="-3.25007800"><ele>85.3199997432</ele><time>2007-04-30T15:27:18Z</time></trkpt>
<trkpt lat="47.85550300" lon="-3.24997900"><ele>84.9199982064</ele><time>2007-04-30T15:27:20Z</time></trkpt>
<trkpt lat="47.85558200" lon="-3.24985300"><ele>84.3137513112</ele><time>2007-04-30T15:27:22Z</time></trkpt>
<trkpt lat="47.85566700" lon="-3.24973600"><ele>83.587501608</ele><time>2007-04-30T15:27:24Z</time></trkpt>
<trkpt lat="47.85575100" lon="-3.24958400"><ele>82.6735304616</ele><time>2007-04-30T15:27:26Z</time></trkpt>
<trkpt lat="47.85578800" lon="-3.24944000"><ele>82.0311278856</ele><time>2007-04-30T15:27:28Z</time></trkpt>
<trkpt lat="47.85585400" lon="-3.24923300"><ele>80.9593733616</ele><time>2007-04-30T15:27:31Z</time></trkpt>
<trkpt lat="47.85592100" lon="-3.24905400"><ele>79.73593908</ele><time>2007-04-30T15:27:33Z</time></trkpt>
<trkpt lat="47.85598700" lon="-3.24888300"><ele>78.549064644</ele><time>2007-04-30T15:27:35Z</time></trkpt>
<trkpt lat="47.85609000" lon="-3.24871200"><ele>77.1043778712</ele><time>2007-04-30T15:27:37Z</time></trkpt>
<trkpt lat="47.85618100" lon="-3.24857800"><ele>75.7699966944</ele><time>2007-04-30T15:27:39Z</time></trkpt>
<trkpt lat="47.85630700" lon="-3.24843400"><ele>74.1538010952</ele><time>2007-04-30T15:27:41Z</time></trkpt>
<trkpt lat="47.85644700" lon="-3.24829900"><ele>72.796447752</ele><time>2007-04-30T15:27:43Z</time></trkpt>
<trkpt lat="47.85659200" lon="-3.24820000"><ele>71.8065643368</ele><time>2007-04-30T15:27:45Z</time></trkpt>
<trkpt lat="47.85673700" lon="-3.24811900"><ele>70.9995042288</ele><time>2007-04-30T15:27:47Z</time></trkpt>
<trkpt lat="47.85686400" lon="-3.24803000"><ele>69.713439948</ele><time>2007-04-30T15:27:49Z</time></trkpt>
<trkpt lat="47.85696000" lon="-3.24792200"><ele>67.926284772</ele><time>2007-04-30T15:27:51Z</time></trkpt>
<trkpt lat="47.85705100" lon="-3.24781400"><ele>66.495422508</ele><time>2007-04-30T15:27:53Z</time></trkpt>
<trkpt lat="47.85713600" lon="-3.24767900"><ele>65.1319960248</ele><time>2007-04-30T15:27:55Z</time></trkpt>
<trkpt lat="47.85723300" lon="-3.24758000"><ele>64.063438548</ele><time>2007-04-30T15:27:57Z</time></trkpt>
<trkpt lat="47.85732900" lon="-3.24749100"><ele>63.2202453144</ele><time>2007-04-30T15:27:59Z</time></trkpt>
<trkpt lat="47.85741400" lon="-3.24739200"><ele>61.8868751592</ele><time>2007-04-30T15:28:01Z</time></trkpt>
<trkpt lat="47.85749200" lon="-3.24731100"><ele>60.7346000952</ele><time>2007-04-30T15:28:03Z</time></trkpt>
<trkpt lat="47.85757700" lon="-3.24723900"><ele>60.0813140256</ele><time>2007-04-30T15:28:05Z</time></trkpt>
<trkpt lat="47.85763800" lon="-3.24712200"><ele>59.1119994288</ele><time>2007-04-30T15:28:08Z</time></trkpt>
<trkpt lat="47.85769200" lon="-3.24698800"><ele>57.4781495088</ele><time>2007-04-30T15:28:11Z</time></trkpt>
<trkpt lat="47.85778300" lon="-3.24684400"><ele>55.5883447032</ele><time>2007-04-30T15:28:14Z</time></trkpt>
<trkpt lat="47.85786100" lon="-3.24670000"><ele>52.5938605728</ele><time>2007-04-30T15:28:17Z</time></trkpt>
<trkpt lat="47.85794600" lon="-3.24657400"><ele>50.161624848</ele><time>2007-04-30T15:28:20Z</time></trkpt>
<trkpt lat="47.85786100" lon="-3.24648400"><ele>48.5495644704</ele><time>2007-04-30T15:28:44Z</time></trkpt>
<trkpt lat="47.85776500" lon="-3.24645800"><ele>47.9687958072</ele><time>2007-04-30T15:28:49Z</time></trkpt>
<trkpt lat="47.85765600" lon="-3.24644000"><ele>47.134925796</ele><time>2007-04-30T15:28:53Z</time></trkpt>
<trkpt lat="47.85755300" lon="-3.24649300"><ele>46.905998136</ele><time>2007-04-30T15:28:56Z</time></trkpt>
<trkpt lat="47.85745600" lon="-3.24653800"><ele>46.5208549896</ele><time>2007-04-30T15:28:58Z</time></trkpt>
<trkpt lat="47.85732900" lon="-3.24661900"><ele>46.432460856</ele><time>2007-04-30T15:29:00Z</time></trkpt>
<trkpt lat="47.85720200" lon="-3.24668200"><ele>45.8974990608</ele><time>2007-04-30T15:29:02Z</time></trkpt>
<trkpt lat="47.85708700" lon="-3.24670000"><ele>44.4264678144</ele><time>2007-04-30T15:29:04Z</time></trkpt>
<trkpt lat="47.85695400" lon="-3.24672700"><ele>42.55671702</ele><time>2007-04-30T15:29:06Z</time></trkpt>
<trkpt lat="47.85682100" lon="-3.24674500"><ele>40.6060143936</ele><time>2007-04-30T15:29:08Z</time></trkpt>
<trkpt lat="47.85669400" lon="-3.24677200"><ele>40.5012512808</ele><time>2007-04-30T15:29:10Z</time></trkpt>
<trkpt lat="47.85658000" lon="-3.24676300"><ele>40.0896874608</ele><time>2007-04-30T15:29:12Z</time></trkpt>
<trkpt lat="47.85647700" lon="-3.24673600"><ele>39.1243742784</ele><time>2007-04-30T15:29:14Z</time></trkpt>
<trkpt lat="47.85639200" lon="-3.24665500"><ele>37.2257500848</ele><time>2007-04-30T15:29:16Z</time></trkpt>
<trkpt lat="47.85629500" lon="-3.24655600"><ele>37.1912192928</ele><time>2007-04-30T15:29:18Z</time></trkpt>
<trkpt lat="47.85619300" lon="-3.24645800"><ele>38.4828111216</ele><time>2007-04-30T15:29:20Z</time></trkpt>
<trkpt lat="47.85608400" lon="-3.24636800"><ele>39.3742828464</ele><time>2007-04-30T15:29:22Z</time></trkpt>
<trkpt lat="47.85598700" lon="-3.24627800"><ele>39.5110627608</ele><time>2007-04-30T15:29:24Z</time></trkpt>
<trkpt lat="47.85591500" lon="-3.24615200"><ele>38.2631225592</ele><time>2007-04-30T15:29:26Z</time></trkpt>
<trkpt lat="47.85585400" lon="-3.24600800"><ele>37.5569381448</ele><time>2007-04-30T15:29:28Z</time></trkpt>
<trkpt lat="47.85579400" lon="-3.24585600"><ele>38.4785155752</ele><time>2007-04-30T15:29:30Z</time></trkpt>
<trkpt lat="47.85576900" lon="-3.24570300"><ele>38.5358429688</ele><time>2007-04-30T15:29:32Z</time></trkpt>
<trkpt lat="47.85575100" lon="-3.24555000"><ele>38.0286560736</ele><time>2007-04-30T15:29:34Z</time></trkpt>
<trkpt lat="47.85570300" lon="-3.24536200"><ele>37.4283600936</ele><time>2007-04-30T15:29:36Z</time></trkpt>
<trkpt lat="47.85568500" lon="-3.24520900"><ele>36.4276733472</ele><time>2007-04-30T15:29:38Z</time></trkpt>
<trkpt lat="47.85564200" lon="-3.24507400"><ele>36.0279007152</ele><time>2007-04-30T15:29:40Z</time></trkpt>
<trkpt lat="47.85558800" lon="-3.24494800"><ele>35.612380896</ele><time>2007-04-30T15:29:43Z</time></trkpt>
<trkpt lat="47.85550900" lon="-3.24485900"><ele>35.4783021192</ele><time>2007-04-30T15:29:47Z</time></trkpt>
<trkpt lat="47.85540100" lon="-3.24483200"><ele>36.3613549632</ele><time>2007-04-30T15:29:52Z</time></trkpt>
<trkpt lat="47.85530400" lon="-3.24483200"><ele>37.4601403704</ele><time>2007-04-30T15:29:56Z</time></trkpt>
<trkpt lat="47.85518900" lon="-3.24482300"><ele>38.6954307624</ele><time>2007-04-30T15:29:59Z</time></trkpt>
<trkpt lat="47.85509200" lon="-3.24485000"><ele>40.5455283576</ele><time>2007-04-30T15:30:02Z</time></trkpt>
<trkpt lat="47.85497700" lon="-3.24487700"><ele>41.9781264576</ele><time>2007-04-30T15:30:07Z</time></trkpt>
<trkpt lat="47.85489300" lon="-3.24495700"><ele>44.2359391632</ele><time>2007-04-30T15:30:11Z</time></trkpt>
<trkpt lat="47.85481400" lon="-3.24507400"><ele>47.4181252296</ele><time>2007-04-30T15:30:16Z</time></trkpt>
<trkpt lat="47.85470500" lon="-3.24516400"><ele>49.9946861928</ele><time>2007-04-30T15:30:20Z</time></trkpt>
<trkpt lat="47.85459600" lon="-3.24526300"><ele>52.4653739616</ele><time>2007-04-30T15:30:24Z</time></trkpt>
<trkpt lat="47.85450600" lon="-3.24534400"><ele>53.1835135464</ele><time>2007-04-30T15:30:28Z</time></trkpt>
<trkpt lat="47.85442100" lon="-3.24542400"><ele>53.5192986</ele><time>2007-04-30T15:30:31Z</time></trkpt>
<trkpt lat="47.85431200" lon="-3.24553200"><ele>53.7339058416</ele><time>2007-04-30T15:30:35Z</time></trkpt>
<trkpt lat="47.85422800" lon="-3.24564900"><ele>54.3897324192</ele><time>2007-04-30T15:30:38Z</time></trkpt>
<trkpt lat="47.85413100" lon="-3.24560400"><ele>51.568668516</ele><time>2007-04-30T15:30:44Z</time></trkpt>
<trkpt lat="47.85419100" lon="-3.24549600"><ele>50.7846564696</ele><time>2007-04-30T15:30:50Z</time></trkpt>
<trkpt lat="47.85425800" lon="-3.24539800"><ele>50.1729890112</ele><time>2007-04-30T15:30:54Z</time></trkpt>
<trkpt lat="47.85431200" lon="-3.24522700"><ele>47.722763076</ele><time>2007-04-30T15:30:58Z</time></trkpt>
<trkpt lat="47.85434300" lon="-3.24507400"><ele>45.1416014616</ele><time>2007-04-30T15:31:00Z</time></trkpt>
<trkpt lat="47.85437300" lon="-3.24493000"><ele>42.6324997488</ele><time>2007-04-30T15:31:02Z</time></trkpt>
<trkpt lat="47.85443900" lon="-3.24475100"><ele>39.3250006488</ele><time>2007-04-30T15:31:05Z</time></trkpt>
<trkpt lat="47.85453600" lon="-3.24461600"><ele>36.4217492544</ele><time>2007-04-30T15:31:08Z</time></trkpt>
<trkpt lat="47.85462100" lon="-3.24453500"><ele>34.2537498312</ele><time>2007-04-30T15:31:10Z</time></trkpt>
<trkpt lat="47.85474800" lon="-3.24442700"><ele>32.8925017536</ele><time>2007-04-30T15:31:12Z</time></trkpt>
<trkpt lat="47.85492900" lon="-3.24436400"><ele>32.7700005</ele><time>2007-04-30T15:31:14Z</time></trkpt>
<trkpt lat="47.85502600" lon="-3.24435500"><ele>32.7412490208</ele><time>2007-04-30T15:31:15Z</time></trkpt>
<trkpt lat="47.85520700" lon="-3.24435500"><ele>32.7958755816</ele><time>2007-04-30T15:31:17Z</time></trkpt>
<trkpt lat="47.85536400" lon="-3.24437300"><ele>32.8972892472</ele><time>2007-04-30T15:31:19Z</time></trkpt>
<trkpt lat="47.85550300" lon="-3.24440900"><ele>32.987327472</ele><time>2007-04-30T15:31:21Z</time></trkpt>
<trkpt lat="47.85563000" lon="-3.24445400"><ele>33.0073433832</ele><time>2007-04-30T15:31:23Z</time></trkpt>
<trkpt lat="47.85572100" lon="-3.24453500"><ele>32.7768057696</ele><time>2007-04-30T15:31:25Z</time></trkpt>
<trkpt lat="47.85580600" lon="-3.24463400"><ele>32.473632792</ele><time>2007-04-30T15:31:27Z</time></trkpt>
<trkpt lat="47.85588400" lon="-3.24477800"><ele>32.795917644</ele><time>2007-04-30T15:31:30Z</time></trkpt>
<trkpt lat="47.85595700" lon="-3.24490300"><ele>32.9220009072</ele><time>2007-04-30T15:31:32Z</time></trkpt>
<trkpt lat="47.85599900" lon="-3.24509200"><ele>34.312812756</ele><time>2007-04-30T15:31:34Z</time></trkpt>
<trkpt lat="47.85604800" lon="-3.24530800"><ele>35.2743110616</ele><time>2007-04-30T15:31:36Z</time></trkpt>
<trkpt lat="47.85607200" lon="-3.24544200"><ele>35.48056404</ele><time>2007-04-30T15:31:37Z</time></trkpt>
<trkpt lat="47.85608400" lon="-3.24564900"><ele>35.4199524264</ele><time>2007-04-30T15:31:39Z</time></trkpt>
<trkpt lat="47.85604800" lon="-3.24583800"><ele>35.1132660192</ele><time>2007-04-30T15:31:42Z</time></trkpt>
<trkpt lat="47.85610200" lon="-3.24597200"><ele>35.0179940736</ele><time>2007-04-30T15:31:45Z</time></trkpt>
<trkpt lat="47.85617400" lon="-3.24607100"><ele>35.7129706872</ele><time>2007-04-30T15:31:47Z</time></trkpt>
<trkpt lat="47.85627700" lon="-3.24621500"><ele>36.09012594</ele><time>2007-04-30T15:31:50Z</time></trkpt>
<trkpt lat="47.85636200" lon="-3.24629600"><ele>35.9033432808</ele><time>2007-04-30T15:31:52Z</time></trkpt>
<trkpt lat="47.85646500" lon="-3.24638600"><ele>36.4147873176</ele><time>2007-04-30T15:31:55Z</time></trkpt>
<trkpt lat="47.85659800" lon="-3.24645800"><ele>37.0186729272</ele><time>2007-04-30T15:31:58Z</time></trkpt>
<trkpt lat="47.85674300" lon="-3.24645800"><ele>37.3423994832</ele><time>2007-04-30T15:32:01Z</time></trkpt>
<trkpt lat="47.85685800" lon="-3.24645800"><ele>38.2264822464</ele><time>2007-04-30T15:32:04Z</time></trkpt>
<trkpt lat="47.85695400" lon="-3.24644000"><ele>38.9300459904</ele><time>2007-04-30T15:32:06Z</time></trkpt>
<trkpt lat="47.85706900" lon="-3.24640400"><ele>39.3103598856</ele><time>2007-04-30T15:32:09Z</time></trkpt>
<trkpt lat="47.85718400" lon="-3.24633200"><ele>38.6406097392</ele><time>2007-04-30T15:32:12Z</time></trkpt>
<trkpt lat="47.85730500" lon="-3.24625100"><ele>38.016391836</ele><time>2007-04-30T15:32:15Z</time></trkpt>
<trkpt lat="47.85739000" lon="-3.24618800"><ele>37.7746506888</ele><time>2007-04-30T15:32:17Z</time></trkpt>
<trkpt lat="47.85749200" lon="-3.24610700"><ele>37.6721001192</ele><time>2007-04-30T15:32:19Z</time></trkpt>
<trkpt lat="47.85758900" lon="-3.24605300"><ele>38.6078111256</ele><time>2007-04-30T15:32:21Z</time></trkpt>
<trkpt lat="47.85768600" lon="-3.24599000"><ele>39.1314124152</ele><time>2007-04-30T15:32:23Z</time></trkpt>
<trkpt lat="47.85778900" lon="-3.24591900"><ele>39.0056001192</ele><time>2007-04-30T15:32:25Z</time></trkpt>
<trkpt lat="47.85790400" lon="-3.24584700"><ele>38.694167976</ele><time>2007-04-30T15:32:28Z</time></trkpt>
<trkpt lat="47.85799400" lon="-3.24578400"><ele>38.2193755296</ele><time>2007-04-30T15:32:30Z</time></trkpt>
<trkpt lat="47.85808500" lon="-3.24574800"><ele>38.0186613768</ele><time>2007-04-30T15:32:32Z</time></trkpt>
<trkpt lat="47.85818800" lon="-3.24568500"><ele>37.272564012</ele><time>2007-04-30T15:32:34Z</time></trkpt>
<trkpt lat="47.85829700" lon="-3.24559500"><ele>35.9326552872</ele><time>2007-04-30T15:32:36Z</time></trkpt>
<trkpt lat="47.85840500" lon="-3.24552300"><ele>35.4321020592</ele><time>2007-04-30T15:32:38Z</time></trkpt>
<trkpt lat="47.85852000" lon="-3.24546000"><ele>35.473102536</ele><time>2007-04-30T15:32:40Z</time></trkpt>
<trkpt lat="47.85865300" lon="-3.24544200"><ele>35.5662649608</ele><time>2007-04-30T15:32:43Z</time></trkpt>
<trkpt lat="47.85884700" lon="-3.24554100"><ele>35.4616393128</ele><time>2007-04-30T15:32:50Z</time></trkpt>
<trkpt lat="47.85911300" lon="-3.24542400"><ele>35.3478279072</ele><time>2007-04-30T15:32:50Z</time></trkpt>
<trkpt lat="47.85908900" lon="-3.24555000"><ele>35.1217345824</ele><time>2007-04-30T15:33:48Z</time></trkpt>
<trkpt lat="47.85899800" lon="-3.24557700"><ele>35.2040939808</ele><time>2007-04-30T15:34:06Z</time></trkpt>
<trkpt lat="47.85891300" lon="-3.24554100"><ele>35.3553503712</ele><time>2007-04-30T15:35:13Z</time></trkpt>
<trkpt lat="47.85880400" lon="-3.24561300"><ele>35.7433738776</ele><time>2007-04-30T15:35:57Z</time></trkpt>
<trkpt lat="47.85872000" lon="-3.24565800"><ele>36.3654557424</ele><time>2007-04-30T15:36:00Z</time></trkpt>
<trkpt lat="47.85864700" lon="-3.24575700"><ele>37.3003120896</ele><time>2007-04-30T15:36:04Z</time></trkpt>
<trkpt lat="47.85864100" lon="-3.24591000"><ele>38.4942969</ele><time>2007-04-30T15:36:10Z</time></trkpt>
<trkpt lat="47.85861700" lon="-3.24606200"><ele>39.6549567072</ele><time>2007-04-30T15:36:15Z</time></trkpt>
<trkpt lat="47.85855700" lon="-3.24616100"><ele>40.7060012904</ele><time>2007-04-30T15:36:20Z</time></trkpt>
<trkpt lat="47.85847800" lon="-3.24625100"><ele>42.1417427928</ele><time>2007-04-30T15:36:25Z</time></trkpt>
<trkpt lat="47.85841100" lon="-3.24635900"><ele>43.6213264224</ele><time>2007-04-30T15:36:32Z</time></trkpt>
<trkpt lat="47.85835700" lon="-3.24647600"><ele>45.2912482032</ele><time>2007-04-30T15:36:37Z</time></trkpt>
<trkpt lat="47.85830900" lon="-3.24659200"><ele>47.0776785648</ele><time>2007-04-30T15:36:43Z</time></trkpt>
<trkpt lat="47.85822400" lon="-3.24667300"><ele>49.4334832512</ele><time>2007-04-30T15:36:50Z</time></trkpt>
<trkpt lat="47.85813300" lon="-3.24669100"><ele>51.4324073712</ele><time>2007-04-30T15:36:56Z</time></trkpt>
<trkpt lat="47.85805500" lon="-3.24676300"><ele>52.8839494008</ele><time>2007-04-30T15:37:00Z</time></trkpt>
<trkpt lat="47.85798800" lon="-3.24688000"><ele>54.6651076368</ele><time>2007-04-30T15:37:06Z</time></trkpt>
<trkpt lat="47.85799400" lon="-3.24702300"><ele>55.1221656</ele><time>2007-04-30T15:37:12Z</time></trkpt>
<trkpt lat="47.85794600" lon="-3.24714000"><ele>56.0119017936</ele><time>2007-04-30T15:37:17Z</time></trkpt>
<trkpt lat="47.85786100" lon="-3.24707700"><ele>56.5750731336</ele><time>2007-04-30T15:37:26Z</time></trkpt>
<trkpt lat="47.85777700" lon="-3.24703200"><ele>57.0733909584</ele><time>2007-04-30T15:37:30Z</time></trkpt>
<trkpt lat="47.85768600" lon="-3.24704100"><ele>58.0396231128</ele><time>2007-04-30T15:37:35Z</time></trkpt>
<trkpt lat="47.85763200" lon="-3.24715800"><ele>59.466926532</ele><time>2007-04-30T15:37:40Z</time></trkpt>
<trkpt lat="47.85755900" lon="-3.24728400"><ele>60.5752488264</ele><time>2007-04-30T15:37:46Z</time></trkpt>
<trkpt lat="47.85749200" lon="-3.24738300"><ele>61.7811013296</ele><time>2007-04-30T15:37:51Z</time></trkpt>
<trkpt lat="47.85740800" lon="-3.24747300"><ele>63.0507813912</ele><time>2007-04-30T15:37:57Z</time></trkpt>
<trkpt lat="47.85731700" lon="-3.24752700"><ele>63.4456824048</ele><time>2007-04-30T15:38:03Z</time></trkpt>
<trkpt lat="47.85723300" lon="-3.24759800"><ele>64.2011718768</ele><time>2007-04-30T15:38:10Z</time></trkpt>
<trkpt lat="47.85714200" lon="-3.24765200"><ele>64.881530892</ele><time>2007-04-30T15:38:16Z</time></trkpt>
<trkpt lat="47.85706300" lon="-3.24758900"><ele>64.0466385816</ele><time>2007-04-30T15:38:25Z</time></trkpt>
<trkpt lat="47.85697300" lon="-3.24760700"><ele>64.0347672312</ele><time>2007-04-30T15:38:44Z</time></trkpt>
<trkpt lat="47.85688200" lon="-3.24758900"><ele>63.60011664</ele><time>2007-04-30T15:38:56Z</time></trkpt>
<trkpt lat="47.85679700" lon="-3.24762500"><ele>63.983062788</ele><time>2007-04-30T15:38:59Z</time></trkpt>
<trkpt lat="47.85669400" lon="-3.24764300"><ele>64.2010651968</ele><time>2007-04-30T15:39:04Z</time></trkpt>
<trkpt lat="47.85659800" lon="-3.24764300"><ele>64.1981964192</ele><time>2007-04-30T15:39:10Z</time></trkpt>
<trkpt lat="47.85650700" lon="-3.24768800"><ele>65.0567092056</ele><time>2007-04-30T15:39:15Z</time></trkpt>
<trkpt lat="47.85640400" lon="-3.24766100"><ele>64.6147004376</ele><time>2007-04-30T15:39:20Z</time></trkpt>
<trkpt lat="47.85630700" lon="-3.24761600"><ele>63.7633132656</ele><time>2007-04-30T15:39:25Z</time></trkpt>
<trkpt lat="47.85621100" lon="-3.24756200"><ele>63.6071547768</ele><time>2007-04-30T15:39:29Z</time></trkpt>
<trkpt lat="47.85613800" lon="-3.24746400"><ele>62.8445701704</ele><time>2007-04-30T15:39:32Z</time></trkpt>
<trkpt lat="47.85606600" lon="-3.24736500"><ele>62.2505073504</ele><time>2007-04-30T15:39:35Z</time></trkpt>
<trkpt lat="47.85598700" lon="-3.24728400"><ele>61.9778747232</ele><time>2007-04-30T15:39:38Z</time></trkpt>
<trkpt lat="47.85592700" lon="-3.24718500"><ele>60.4404793728</ele><time>2007-04-30T15:39:46Z</time></trkpt>
<trkpt lat="47.85585400" lon="-3.24710400"><ele>59.746536336</ele><time>2007-04-30T15:39:50Z</time></trkpt>
<trkpt lat="47.85579400" lon="-3.24697000"><ele>58.3678857024</ele><time>2007-04-30T15:39:55Z</time></trkpt>
<trkpt lat="47.85576300" lon="-3.24684400"><ele>56.4937628568</ele><time>2007-04-30T15:39:59Z</time></trkpt>
<trkpt lat="47.85570900" lon="-3.24670900"><ele>55.59848418</ele><time>2007-04-30T15:40:03Z</time></trkpt>
<trkpt lat="47.85561800" lon="-3.24662800"><ele>57.6608009088</ele><time>2007-04-30T15:40:07Z</time></trkpt>
<trkpt lat="47.85556400" lon="-3.24651100"><ele>57.7475012688</ele><time>2007-04-30T15:40:10Z</time></trkpt>
<trkpt lat="47.85547900" lon="-3.24636800"><ele>58.6282501296</ele><time>2007-04-30T15:40:13Z</time></trkpt>
<trkpt lat="47.85539500" lon="-3.24625100"><ele>59.22801972</ele><time>2007-04-30T15:40:16Z</time></trkpt>
<trkpt lat="47.85529200" lon="-3.24617000"><ele>60.476913336</ele><time>2007-04-30T15:40:20Z</time></trkpt>
<trkpt lat="47.85518300" lon="-3.24615200"><ele>63.147689808</ele><time>2007-04-30T15:40:24Z</time></trkpt>
<trkpt lat="47.85509200" lon="-3.24615200"><ele>65.5848770088</ele><time>2007-04-30T15:40:28Z</time></trkpt>
<trkpt lat="47.85501400" lon="-3.24622400"><ele>68.682396036</ele><time>2007-04-30T15:40:31Z</time></trkpt>
<trkpt lat="47.85498900" lon="-3.24635000"><ele>71.1047897688</ele><time>2007-04-30T15:40:35Z</time></trkpt>
<trkpt lat="47.85502000" lon="-3.24649300"><ele>72.4142456208</ele><time>2007-04-30T15:40:39Z</time></trkpt>
<trkpt lat="47.85506200" lon="-3.24661000"><ele>72.7103880816</ele><time>2007-04-30T15:40:42Z</time></trkpt>
<trkpt lat="47.85510400" lon="-3.24672700"><ele>72.8778305712</ele><time>2007-04-30T15:40:46Z</time></trkpt>
<trkpt lat="47.85515900" lon="-3.24686200"><ele>73.2901381032</ele><time>2007-04-30T15:40:51Z</time></trkpt>
<trkpt lat="47.85521900" lon="-3.24697900"><ele>73.7736435624</ele><time>2007-04-30T15:40:55Z</time></trkpt>
<trkpt lat="47.85523100" lon="-3.24714000"><ele>75.6057585672</ele><time>2007-04-30T15:40:59Z</time></trkpt>
<trkpt lat="47.85523700" lon="-3.24728400"><ele>76.9654923984</ele><time>2007-04-30T15:41:04Z</time></trkpt>
<trkpt lat="47.85518300" lon="-3.24740100"><ele>77.820060768</ele><time>2007-04-30T15:41:07Z</time></trkpt>
<trkpt lat="47.85512200" lon="-3.24751800"><ele>78.670379616</ele><time>2007-04-30T15:41:09Z</time></trkpt>
<trkpt lat="47.85507400" lon="-3.24766100"><ele>79.549057056</ele><time>2007-04-30T15:41:12Z</time></trkpt>
<trkpt lat="47.85501400" lon="-3.24781400"><ele>80.4756774024</ele><time>2007-04-30T15:41:15Z</time></trkpt>
<trkpt lat="47.85494100" lon="-3.24790400"><ele>80.928985716</ele><time>2007-04-30T15:41:17Z</time></trkpt>
<trkpt lat="47.85485000" lon="-3.24799400"><ele>80.5684509024</ele><time>2007-04-30T15:41:19Z</time></trkpt>
<trkpt lat="47.85476600" lon="-3.24805700"><ele>80.0025330096</ele><time>2007-04-30T15:41:21Z</time></trkpt>
<trkpt lat="47.85464500" lon="-3.24813700"><ele>79.2770690808</ele><time>2007-04-30T15:41:24Z</time></trkpt>
<trkpt lat="47.85456600" lon="-3.24820000"><ele>78.9038466624</ele><time>2007-04-30T15:41:26Z</time></trkpt>
<trkpt lat="47.85448200" lon="-3.24827200"><ele>78.6017456664</ele><time>2007-04-30T15:41:28Z</time></trkpt>
<trkpt lat="47.85438500" lon="-3.24838000"><ele>78.4504700736</ele><time>2007-04-30T15:41:31Z</time></trkpt>
<trkpt lat="47.85428800" lon="-3.24849700"><ele>78.5175705744</ele><time>2007-04-30T15:41:34Z</time></trkpt>
<trkpt lat="47.85417300" lon="-3.24859600"><ele>78.6276628104</ele><time>2007-04-30T15:41:36Z</time></trkpt>
<trkpt lat="47.85406400" lon="-3.24868500"><ele>78.7761077256</ele><time>2007-04-30T15:41:38Z</time></trkpt>
<trkpt lat="47.85403400" lon="-3.24885600"><ele>79.6993103496</ele><time>2007-04-30T15:41:41Z</time></trkpt>
<trkpt lat="47.85398000" lon="-3.24897300"><ele>80.2696990488</ele><time>2007-04-30T15:41:43Z</time></trkpt>
<trkpt lat="47.85393700" lon="-3.24912600"><ele>80.9837494368</ele><time>2007-04-30T15:41:46Z</time></trkpt>
<trkpt lat="47.85389500" lon="-3.24926000"><ele>81.2284392192</ele><time>2007-04-30T15:41:49Z</time></trkpt>
<trkpt lat="47.85390100" lon="-3.24942200"><ele>82.101249564</ele><time>2007-04-30T15:41:52Z</time></trkpt>
<trkpt lat="47.85393100" lon="-3.24958400"><ele>83.177810784</ele><time>2007-04-30T15:41:55Z</time></trkpt>
<trkpt lat="47.85396800" lon="-3.24974500"><ele>83.9759368992</ele><time>2007-04-30T15:41:58Z</time></trkpt>
<trkpt lat="47.85399200" lon="-3.24989800"><ele>84.5400009984</ele><time>2007-04-30T15:42:01Z</time></trkpt>
<trkpt lat="47.85395600" lon="-3.25006000"><ele>84.974998452</ele><time>2007-04-30T15:42:04Z</time></trkpt>
<trkpt lat="47.85388900" lon="-3.25019500"><ele>85.2331619184</ele><time>2007-04-30T15:42:07Z</time></trkpt>
<trkpt lat="47.85381700" lon="-3.25031100"><ele>85.2318192744</ele><time>2007-04-30T15:42:11Z</time></trkpt>
<trkpt lat="47.85376200" lon="-3.25043700"><ele>85.5025024008</ele><time>2007-04-30T15:42:15Z</time></trkpt>
<trkpt lat="47.85373200" lon="-3.25057200"><ele>85.8050002464</ele><time>2007-04-30T15:42:19Z</time></trkpt>
<trkpt lat="47.85364100" lon="-3.25067100"><ele>85.7493742464</ele><time>2007-04-30T15:42:25Z</time></trkpt>
<trkpt lat="47.85355000" lon="-3.25071600"><ele>85.5224991096</ele><time>2007-04-30T15:42:28Z</time></trkpt>
<trkpt lat="47.85344200" lon="-3.25076900"><ele>85.2450027888</ele><time>2007-04-30T15:42:31Z</time></trkpt>
<trkpt lat="47.85335100" lon="-3.25081400"><ele>84.7181242896</ele><time>2007-04-30T15:42:34Z</time></trkpt>
<trkpt lat="47.85326600" lon="-3.25076000"><ele>83.8237533072</ele><time>2007-04-30T15:42:37Z</time></trkpt>
<trkpt lat="47.85317000" lon="-3.25066200"><ele>82.6612473264</ele><time>2007-04-30T15:42:40Z</time></trkpt>
<trkpt lat="47.85309700" lon="-3.25052700"><ele>81.581245524</ele><time>2007-04-30T15:42:43Z</time></trkpt>
<trkpt lat="47.85306100" lon="-3.25037400"><ele>80.7356260824</ele><time>2007-04-30T15:42:46Z</time></trkpt>
<trkpt lat="47.85300000" lon="-3.25025700"><ele>79.5687026352</ele><time>2007-04-30T15:42:49Z</time></trkpt>
<trkpt lat="47.85293400" lon="-3.25011400"><ele>79.3066483968</ele><time>2007-04-30T15:42:53Z</time></trkpt>
<trkpt lat="47.85286700" lon="-3.24997000"><ele>79.2443314272</ele><time>2007-04-30T15:42:56Z</time></trkpt>
<trkpt lat="47.85280100" lon="-3.24984400"><ele>79.3413163488</ele><time>2007-04-30T15:42:59Z</time></trkpt>
<trkpt lat="47.85270400" lon="-3.24973600"><ele>79.9428635328</ele><time>2007-04-30T15:43:03Z</time></trkpt>
<trkpt lat="47.85260100" lon="-3.24965600"><ele>80.7680052912</ele><time>2007-04-30T15:43:06Z</time></trkpt>
<trkpt lat="47.85251100" lon="-3.24960200"><ele>81.5915602608</ele><time>2007-04-30T15:43:09Z</time></trkpt>
<trkpt lat="47.85242000" lon="-3.24950300"><ele>82.2662506056</ele><time>2007-04-30T15:43:12Z</time></trkpt>
<trkpt lat="47.85232900" lon="-3.24940400"><ele>82.9159394256</ele><time>2007-04-30T15:43:15Z</time></trkpt>
<trkpt lat="47.85222000" lon="-3.24943100"><ele>84.2884367568</ele><time>2007-04-30T15:43:20Z</time></trkpt>
<trkpt lat="47.85211800" lon="-3.24948500"><ele>85.6381225512</ele><time>2007-04-30T15:43:23Z</time></trkpt>
<trkpt lat="47.85199100" lon="-3.24953000"><ele>86.7246857832</ele><time>2007-04-30T15:43:27Z</time></trkpt>
<trkpt lat="47.85189400" lon="-3.24952100"><ele>87.3903122904</ele><time>2007-04-30T15:43:30Z</time></trkpt>
<trkpt lat="47.85179100" lon="-3.24943100"><ele>87.7409362272</ele><time>2007-04-30T15:43:35Z</time></trkpt>
<trkpt lat="47.85172400" lon="-3.24931400"><ele>87.728752152</ele><time>2007-04-30T15:43:38Z</time></trkpt>
<trkpt lat="47.85164600" lon="-3.24923300"><ele>87.9584351064</ele><time>2007-04-30T15:43:41Z</time></trkpt>
<trkpt lat="47.85156700" lon="-3.24912600"><ele>88.0709380056</ele><time>2007-04-30T15:43:45Z</time></trkpt>
<trkpt lat="47.85161600" lon="-3.24900900"><ele>87.2393722824</ele><time>2007-04-30T15:43:49Z</time></trkpt>
<trkpt lat="47.85169400" lon="-3.24886500"><ele>86.0768739216</ele><time>2007-04-30T15:43:52Z</time></trkpt>
<trkpt lat="47.85177300" lon="-3.24871200"><ele>84.4907684832</ele><time>2007-04-30T15:43:55Z</time></trkpt>
<trkpt lat="47.85183900" lon="-3.24853300"><ele>83.0348281896</ele><time>2007-04-30T15:43:58Z</time></trkpt>
<trkpt lat="47.85190600" lon="-3.24833500"><ele>81.6738434592</ele><time>2007-04-30T15:44:00Z</time></trkpt>
<trkpt lat="47.85193600" lon="-3.24811000"><ele>80.599807812</ele><time>2007-04-30T15:44:02Z</time></trkpt>
<trkpt lat="47.85191800" lon="-3.24796700"><ele>80.108634804</ele><time>2007-04-30T15:44:03Z</time></trkpt>
<trkpt lat="47.85191200" lon="-3.24770600"><ele>79.2159118752</ele><time>2007-04-30T15:44:05Z</time></trkpt>
<trkpt lat="47.85194800" lon="-3.24752700"><ele>78.6724930992</ele><time>2007-04-30T15:44:07Z</time></trkpt>
<trkpt lat="47.85204500" lon="-3.24736500"><ele>78.7626648264</ele><time>2007-04-30T15:44:09Z</time></trkpt>
<trkpt lat="47.85216600" lon="-3.24721200"><ele>78.4069748088</ele><time>2007-04-30T15:44:11Z</time></trkpt>
<trkpt lat="47.85232300" lon="-3.24711300"><ele>76.6520461368</ele><time>2007-04-30T15:44:13Z</time></trkpt>
<trkpt lat="47.85240800" lon="-3.24707700"><ele>75.1549301064</ele><time>2007-04-30T15:44:14Z</time></trkpt>
<trkpt lat="47.85257100" lon="-3.24700600"><ele>71.8939514112</ele><time>2007-04-30T15:44:16Z</time></trkpt>
<trkpt lat="47.85272200" lon="-3.24690700"><ele>69.0020446728</ele><time>2007-04-30T15:44:18Z</time></trkpt>
<trkpt lat="47.85286700" lon="-3.24677200"><ele>67.0935288048</ele><time>2007-04-30T15:44:20Z</time></trkpt>
<trkpt lat="47.85295200" lon="-3.24671800"><ele>65.5737152328</ele><time>2007-04-30T15:44:21Z</time></trkpt>
<trkpt lat="47.85309700" lon="-3.24666400"><ele>62.4920921352</ele><time>2007-04-30T15:44:23Z</time></trkpt>
<trkpt lat="47.85323600" lon="-3.24659200"><ele>59.7262040424</ele><time>2007-04-30T15:44:25Z</time></trkpt>
<trkpt lat="47.85334500" lon="-3.24653800"><ele>57.7464064272</ele><time>2007-04-30T15:44:27Z</time></trkpt>
<trkpt lat="47.85343600" lon="-3.24645800"><ele>55.5791626032</ele><time>2007-04-30T15:44:30Z</time></trkpt>
<trkpt lat="47.85353800" lon="-3.24642200"><ele>53.2274169384</ele><time>2007-04-30T15:44:34Z</time></trkpt>
<trkpt lat="47.85362900" lon="-3.24641300"><ele>51.3758812968</ele><time>2007-04-30T15:44:37Z</time></trkpt>
<trkpt lat="47.85369600" lon="-3.24629600"><ele>52.2083321592</ele><time>2007-04-30T15:44:48Z</time></trkpt>
<trkpt lat="47.85369000" lon="-3.24616100"><ele>50.9207420496</ele><time>2007-04-30T15:44:56Z</time></trkpt>
<trkpt lat="47.85378600" lon="-3.24614300"><ele>53.0792198256</ele><time>2007-04-30T15:45:36Z</time></trkpt>
<trkpt lat="47.85379200" lon="-3.24628700"><ele>54.804725544</ele><time>2007-04-30T15:46:05Z</time></trkpt>
<trkpt lat="47.85376200" lon="-3.24643100"><ele>55.5811995816</ele><time>2007-04-30T15:46:13Z</time></trkpt>
<trkpt lat="47.85369000" lon="-3.24652900"><ele>54.8276672304</ele><time>2007-04-30T15:46:19Z</time></trkpt>
<trkpt lat="47.85361700" lon="-3.24642200"><ele>51.620231532</ele><time>2007-04-30T15:46:31Z</time></trkpt>
<trkpt lat="47.85362300" lon="-3.24627800"><ele>50.5316237016</ele><time>2007-04-30T15:46:36Z</time></trkpt>
<trkpt lat="47.85364700" lon="-3.24614300"><ele>49.6834524744</ele><time>2007-04-30T15:46:43Z</time></trkpt>
<trkpt lat="47.85364700" lon="-3.24599900"><ele>48.6525000024</ele><time>2007-04-30T15:46:48Z</time></trkpt>
<trkpt lat="47.85360500" lon="-3.24587400"><ele>49.2801094152</ele><time>2007-04-30T15:46:54Z</time></trkpt>
<trkpt lat="47.85358100" lon="-3.24573900"><ele>49.4922179064</ele><time>2007-04-30T15:47:00Z</time></trkpt>
<trkpt lat="47.85360500" lon="-3.24560400"><ele>47.8929518136</ele><time>2007-04-30T15:47:05Z</time></trkpt>
<trkpt lat="47.85363500" lon="-3.24547800"><ele>45.972148848</ele><time>2007-04-30T15:47:09Z</time></trkpt>
<trkpt lat="47.85367100" lon="-3.24534400"><ele>43.8079033416</ele><time>2007-04-30T15:47:11Z</time></trkpt>
<trkpt lat="47.85371400" lon="-3.24520900"><ele>42.54126366</ele><time>2007-04-30T15:47:14Z</time></trkpt>
<trkpt lat="47.85373800" lon="-3.24507400"><ele>41.3262253992</ele><time>2007-04-30T15:47:17Z</time></trkpt>
<trkpt lat="47.85376200" lon="-3.24493900"><ele>40.083438756</ele><time>2007-04-30T15:47:20Z</time></trkpt>
<trkpt lat="47.85372000" lon="-3.24481400"><ele>38.830898208</ele><time>2007-04-30T15:47:24Z</time></trkpt>
<trkpt lat="47.85364700" lon="-3.24468800"><ele>39.073936584</ele><time>2007-04-30T15:47:28Z</time></trkpt>
<trkpt lat="47.85356900" lon="-3.24457100"><ele>39.3392982072</ele><time>2007-04-30T15:47:31Z</time></trkpt>
<trkpt lat="47.85349600" lon="-3.24446300"><ele>39.0490609416</ele><time>2007-04-30T15:47:34Z</time></trkpt>
<trkpt lat="47.85342400" lon="-3.24434600"><ele>38.2970391792</ele><time>2007-04-30T15:47:37Z</time></trkpt>
<trkpt lat="47.85336900" lon="-3.24423000"><ele>38.3559341592</ele><time>2007-04-30T15:47:39Z</time></trkpt>
<trkpt lat="47.85333300" lon="-3.24405900"><ele>37.6348761144</ele><time>2007-04-30T15:47:42Z</time></trkpt>
<trkpt lat="47.85330900" lon="-3.24391500"><ele>36.7604521584</ele><time>2007-04-30T15:47:45Z</time></trkpt>
<trkpt lat="47.85323000" lon="-3.24377200"><ele>36.4600638336</ele><time>2007-04-30T15:47:49Z</time></trkpt>
<trkpt lat="47.85317000" lon="-3.24364600"><ele>35.5058173296</ele><time>2007-04-30T15:47:53Z</time></trkpt>
<trkpt lat="47.85320600" lon="-3.24352000"><ele>34.6149862944</ele><time>2007-04-30T15:47:57Z</time></trkpt>
<trkpt lat="47.85320600" lon="-3.24338500"><ele>33.8216019528</ele><time>2007-04-30T15:48:00Z</time></trkpt>
<trkpt lat="47.85313900" lon="-3.24326900"><ele>33.1155510408</ele><time>2007-04-30T15:48:03Z</time></trkpt>
<trkpt lat="47.85304900" lon="-3.24318800"><ele>32.4584388168</ele><time>2007-04-30T15:48:06Z</time></trkpt>
<trkpt lat="47.85297000" lon="-3.24309800"><ele>31.557800232</ele><time>2007-04-30T15:48:09Z</time></trkpt>
<trkpt lat="47.85286100" lon="-3.24304400"><ele>31.2211093128</ele><time>2007-04-30T15:48:13Z</time></trkpt>
<trkpt lat="47.85275200" lon="-3.24302600"><ele>32.6562500544</ele><time>2007-04-30T15:48:16Z</time></trkpt>
<trkpt lat="47.85266200" lon="-3.24302600"><ele>34.0600012728</ele><time>2007-04-30T15:48:19Z</time></trkpt>
<trkpt lat="47.85257100" lon="-3.24301700"><ele>35.333126184</ele><time>2007-04-30T15:48:22Z</time></trkpt>
<trkpt lat="47.85244400" lon="-3.24299900"><ele>37.0154533248</ele><time>2007-04-30T15:48:25Z</time></trkpt>
<trkpt lat="47.85232900" lon="-3.24298100"><ele>37.0168151712</ele><time>2007-04-30T15:48:28Z</time></trkpt>
<trkpt lat="47.85220200" lon="-3.24296300"><ele>36.9572983992</ele><time>2007-04-30T15:48:31Z</time></trkpt>
<trkpt lat="47.85209300" lon="-3.24295400"><ele>37.0799560152</ele><time>2007-04-30T15:48:34Z</time></trkpt>
<trkpt lat="47.85196000" lon="-3.24293600"><ele>36.909469488</ele><time>2007-04-30T15:48:37Z</time></trkpt>
<trkpt lat="47.85184500" lon="-3.24290000"><ele>35.760734676</ele><time>2007-04-30T15:48:40Z</time></trkpt>
<trkpt lat="47.85174300" lon="-3.24287300"><ele>34.8457564704</ele><time>2007-04-30T15:48:43Z</time></trkpt>
<trkpt lat="47.85163400" lon="-3.24284600"><ele>33.9015616608</ele><time>2007-04-30T15:48:46Z</time></trkpt>
<trkpt lat="47.85153100" lon="-3.24281900"><ele>33.1770173136</ele><time>2007-04-30T15:48:50Z</time></trkpt>
<trkpt lat="47.85142200" lon="-3.24280100"><ele>34.6020469248</ele><time>2007-04-30T15:48:54Z</time></trkpt>
<trkpt lat="47.85134400" lon="-3.24272100"><ele>35.0567244</ele><time>2007-04-30T15:48:58Z</time></trkpt>
<trkpt lat="47.85125300" lon="-3.24264900"><ele>35.5177307424</ele><time>2007-04-30T15:49:02Z</time></trkpt>
<trkpt lat="47.85119200" lon="-3.24251400"><ele>34.711811196</ele><time>2007-04-30T15:49:05Z</time></trkpt>
<trkpt lat="47.85116200" lon="-3.24236100"><ele>33.1256713152</ele><time>2007-04-30T15:49:08Z</time></trkpt>
<trkpt lat="47.85115000" lon="-3.24222600"><ele>31.5039006192</ele><time>2007-04-30T15:49:12Z</time></trkpt>
<trkpt lat="47.85125300" lon="-3.24218200"><ele>30.6697693944</ele><time>2007-04-30T15:49:34Z</time></trkpt>
<trkpt lat="47.85133800" lon="-3.24221700"><ele>30.8013381432</ele><time>2007-04-30T15:49:42Z</time></trkpt>
<trkpt lat="47.85142200" lon="-3.24228000"><ele>31.0535811744</ele><time>2007-04-30T15:49:48Z</time></trkpt>
<trkpt lat="47.85150100" lon="-3.24235200"><ele>31.1863974696</ele><time>2007-04-30T15:49:53Z</time></trkpt>
<trkpt lat="47.85160400" lon="-3.24242400"><ele>31.210847916</ele><time>2007-04-30T15:49:57Z</time></trkpt>
<trkpt lat="47.85168800" lon="-3.24248700"><ele>31.5605812272</ele><time>2007-04-30T15:50:01Z</time></trkpt>
<trkpt lat="47.85179100" lon="-3.24255900"><ele>32.0792008656</ele><time>2007-04-30T15:50:05Z</time></trkpt>
<trkpt lat="47.85190000" lon="-3.24259500"><ele>32.4467466888</ele><time>2007-04-30T15:50:09Z</time></trkpt>
<trkpt lat="47.85200900" lon="-3.24260400"><ele>32.612903532</ele><time>2007-04-30T15:50:13Z</time></trkpt>
<trkpt lat="47.85210500" lon="-3.24259500"><ele>32.3506697664</ele><time>2007-04-30T15:50:17Z</time></trkpt>
<trkpt lat="47.85219600" lon="-3.24257700"><ele>32.0026625376</ele><time>2007-04-30T15:50:20Z</time></trkpt>
<trkpt lat="47.85230500" lon="-3.24251400"><ele>31.1525783856</ele><time>2007-04-30T15:50:23Z</time></trkpt>
<trkpt lat="47.85238400" lon="-3.24245100"><ele>30.327007164</ele><time>2007-04-30T15:50:27Z</time></trkpt>
<trkpt lat="47.85229300" lon="-3.24252300"><ele>31.268552652</ele><time>2007-04-30T15:50:35Z</time></trkpt>
<trkpt lat="47.85217800" lon="-3.24257700"><ele>32.0392799904</ele><time>2007-04-30T15:50:38Z</time></trkpt>
<trkpt lat="47.85206900" lon="-3.24259500"><ele>32.4211998768</ele><time>2007-04-30T15:50:41Z</time></trkpt>
<trkpt lat="47.85195400" lon="-3.24258600"><ele>32.4214095792</ele><time>2007-04-30T15:50:44Z</time></trkpt>
<trkpt lat="47.85186400" lon="-3.24257700"><ele>32.273754096</ele><time>2007-04-30T15:50:46Z</time></trkpt>
<trkpt lat="47.85176700" lon="-3.24253200"><ele>31.8794575008</ele><time>2007-04-30T15:50:48Z</time></trkpt>
<trkpt lat="47.85165800" lon="-3.24245100"><ele>31.3512116688</ele><time>2007-04-30T15:50:50Z</time></trkpt>
<trkpt lat="47.85156700" lon="-3.24237900"><ele>31.0097350848</ele><time>2007-04-30T15:50:52Z</time></trkpt>
<trkpt lat="47.85147100" lon="-3.24231600"><ele>31.104675408</ele><time>2007-04-30T15:50:54Z</time></trkpt>
<trkpt lat="47.85136200" lon="-3.24222600"><ele>30.816618072</ele><time>2007-04-30T15:50:56Z</time></trkpt>
<trkpt lat="47.85126500" lon="-3.24216400"><ele>30.4507120728</ele><time>2007-04-30T15:50:58Z</time></trkpt>
<trkpt lat="47.85113200" lon="-3.24206500"><ele>30.3850499232</ele><time>2007-04-30T15:51:00Z</time></trkpt>
<trkpt lat="47.85103500" lon="-3.24195700"><ele>31.155206676</ele><time>2007-04-30T15:51:02Z</time></trkpt>
<trkpt lat="47.85092600" lon="-3.24184000"><ele>31.4572256808</ele><time>2007-04-30T15:51:04Z</time></trkpt>
<trkpt lat="47.85083000" lon="-3.24173200"><ele>31.2644387664</ele><time>2007-04-30T15:51:06Z</time></trkpt>
<trkpt lat="47.85073900" lon="-3.24166100"><ele>30.6861496512</ele><time>2007-04-30T15:51:08Z</time></trkpt>
<trkpt lat="47.85064800" lon="-3.24159800"><ele>30.731525532</ele><time>2007-04-30T15:51:10Z</time></trkpt>
<trkpt lat="47.85056400" lon="-3.24156200"><ele>31.2127495632</ele><time>2007-04-30T15:51:12Z</time></trkpt>
<trkpt lat="47.85045500" lon="-3.24151700"><ele>31.598625144</ele><time>2007-04-30T15:51:16Z</time></trkpt>
<trkpt lat="47.85036400" lon="-3.24146300"><ele>31.4946307368</ele><time>2007-04-30T15:51:19Z</time></trkpt>
<trkpt lat="47.85029100" lon="-3.24131900"><ele>29.9262009552</ele><time>2007-04-30T15:51:22Z</time></trkpt>
<trkpt lat="47.85023100" lon="-3.24113100"><ele>29.7921505248</ele><time>2007-04-30T15:51:24Z</time></trkpt>
<trkpt lat="47.85017100" lon="-3.24095100"><ele>29.4367619544</ele><time>2007-04-30T15:51:26Z</time></trkpt>
<trkpt lat="47.85009800" lon="-3.24085200"><ele>29.1243495744</ele><time>2007-04-30T15:51:27Z</time></trkpt>
<trkpt lat="47.85001300" lon="-3.24068100"><ele>27.6987496824</ele><time>2007-04-30T15:51:29Z</time></trkpt>
<trkpt lat="47.84994100" lon="-3.24052900"><ele>27.2677496808</ele><time>2007-04-30T15:51:31Z</time></trkpt>
<trkpt lat="47.84987400" lon="-3.24041200"><ele>27.0666752544</ele><time>2007-04-30T15:51:33Z</time></trkpt>
<trkpt lat="47.84980200" lon="-3.24032200"><ele>27.2938804896</ele><time>2007-04-30T15:51:35Z</time></trkpt>
<trkpt lat="47.84972900" lon="-3.24022300"><ele>27.4401530952</ele><time>2007-04-30T15:51:37Z</time></trkpt>
<trkpt lat="47.84964400" lon="-3.24011500"><ele>27.2809066776</ele><time>2007-04-30T15:51:39Z</time></trkpt>
<trkpt lat="47.84956000" lon="-3.24000800"><ele>26.7738112224</ele><time>2007-04-30T15:51:41Z</time></trkpt>
<trkpt lat="47.84950500" lon="-3.23988200"><ele>26.1650009592</ele><time>2007-04-30T15:51:43Z</time></trkpt>
<trkpt lat="47.84956000" lon="-3.23977400"><ele>26.2749996216</ele><time>2007-04-30T15:51:45Z</time></trkpt>
<trkpt lat="47.84966900" lon="-3.23970200"><ele>26.5100001168</ele><time>2007-04-30T15:51:47Z</time></trkpt>
<trkpt lat="47.84977700" lon="-3.23963000"><ele>26.7399997584</ele><time>2007-04-30T15:51:49Z</time></trkpt>
<trkpt lat="47.84988000" lon="-3.23955800"><ele>26.9599992168</ele><time>2007-04-30T15:51:51Z</time></trkpt>
<trkpt lat="47.84997700" lon="-3.23949600"><ele>28.3638248064</ele><time>2007-04-30T15:51:53Z</time></trkpt>
<trkpt lat="47.85007400" lon="-3.23942400"><ele>30.3743992968</ele><time>2007-04-30T15:51:56Z</time></trkpt>
<trkpt lat="47.85015800" lon="-3.23935200"><ele>32.3982429504</ele><time>2007-04-30T15:51:59Z</time></trkpt>
<trkpt lat="47.85024300" lon="-3.23928900"><ele>34.7066003352</ele><time>2007-04-30T15:52:02Z</time></trkpt>
<trkpt lat="47.85032800" lon="-3.23921700"><ele>37.116573468</ele><time>2007-04-30T15:52:05Z</time></trkpt>
<trkpt lat="47.85041200" lon="-3.23917200"><ele>39.5405616096</ele><time>2007-04-30T15:52:07Z</time></trkpt>
<trkpt lat="47.85049100" lon="-3.23910900"><ele>41.9848975896</ele><time>2007-04-30T15:52:09Z</time></trkpt>
<trkpt lat="47.85056400" lon="-3.23897500"><ele>44.358295332</ele><time>2007-04-30T15:52:12Z</time></trkpt>
<trkpt lat="47.85052700" lon="-3.23882200"><ele>44.174362248</ele><time>2007-04-30T15:52:15Z</time></trkpt>
<trkpt lat="47.85050900" lon="-3.23866900"><ele>44.4283066728</ele><time>2007-04-30T15:52:18Z</time></trkpt>
<trkpt lat="47.85049100" lon="-3.23848900"><ele>44.2630959288</ele><time>2007-04-30T15:52:21Z</time></trkpt>
<trkpt lat="47.85045500" lon="-3.23831900"><ele>43.8717497976</ele><time>2007-04-30T15:52:24Z</time></trkpt>
<trkpt lat="47.85042400" lon="-3.23814800"><ele>43.733211492</ele><time>2007-04-30T15:52:27Z</time></trkpt>
<trkpt lat="47.85037600" lon="-3.23800400"><ele>42.97136694</ele><time>2007-04-30T15:52:30Z</time></trkpt>
<trkpt lat="47.85033400" lon="-3.23788800"><ele>42.4694823456</ele><time>2007-04-30T15:52:32Z</time></trkpt>
<trkpt lat="47.85024900" lon="-3.23774400"><ele>41.5780755432</ele><time>2007-04-30T15:52:35Z</time></trkpt>
<trkpt lat="47.85019500" lon="-3.23762700"><ele>41.4089737224</ele><time>2007-04-30T15:52:39Z</time></trkpt>
<trkpt lat="47.85017100" lon="-3.23748300"><ele>42.1388359152</ele><time>2007-04-30T15:52:45Z</time></trkpt>
<trkpt lat="47.85013400" lon="-3.23734000"><ele>42.9174231312</ele><time>2007-04-30T15:52:50Z</time></trkpt>
<trkpt lat="47.85008000" lon="-3.23720500"><ele>41.824195752</ele><time>2007-04-30T15:52:54Z</time></trkpt>
<trkpt lat="47.85005000" lon="-3.23707900"><ele>40.5856019376</ele><time>2007-04-30T15:52:57Z</time></trkpt>
<trkpt lat="47.85000100" lon="-3.23695300"><ele>39.1193237424</ele><time>2007-04-30T15:53:01Z</time></trkpt>
<trkpt lat="47.85002500" lon="-3.23682800"><ele>38.4268800168</ele><time>2007-04-30T15:53:07Z</time></trkpt>
<trkpt lat="47.85013400" lon="-3.23685500"><ele>39.367324872</ele><time>2007-04-30T15:53:12Z</time></trkpt>
<trkpt lat="47.85023100" lon="-3.23687300"><ele>40.144691364</ele><time>2007-04-30T15:53:16Z</time></trkpt>
<trkpt lat="47.85032800" lon="-3.23694400"><ele>41.4078484008</ele><time>2007-04-30T15:53:21Z</time></trkpt>
<trkpt lat="47.85042400" lon="-3.23699800"><ele>42.5274964536</ele><time>2007-04-30T15:53:25Z</time></trkpt>
<trkpt lat="47.85050900" lon="-3.23706100"><ele>43.6487501928</ele><time>2007-04-30T15:53:28Z</time></trkpt>
<trkpt lat="47.85061800" lon="-3.23711500"><ele>44.7793768368</ele><time>2007-04-30T15:53:32Z</time></trkpt>
<trkpt lat="47.85070900" lon="-3.23719600"><ele>46.0487517936</ele><time>2007-04-30T15:53:35Z</time></trkpt>
<trkpt lat="47.85079300" lon="-3.23727700"><ele>47.2787514672</ele><time>2007-04-30T15:53:39Z</time></trkpt>
<trkpt lat="47.85089600" lon="-3.23734000"><ele>48.4524993864</ele><time>2007-04-30T15:53:43Z</time></trkpt>
<trkpt lat="47.85098700" lon="-3.23742000"><ele>49.4082640992</ele><time>2007-04-30T15:53:46Z</time></trkpt>
<trkpt lat="47.85106500" lon="-3.23753700"><ele>50.0060921136</ele><time>2007-04-30T15:53:50Z</time></trkpt>
<trkpt lat="47.85114400" lon="-3.23764500"><ele>50.6426010768</ele><time>2007-04-30T15:53:54Z</time></trkpt>
<trkpt lat="47.85121700" lon="-3.23774400"><ele>51.2876167032</ele><time>2007-04-30T15:53:57Z</time></trkpt>
<trkpt lat="47.85128900" lon="-3.23785200"><ele>51.9934807728</ele><time>2007-04-30T15:54:01Z</time></trkpt>
<trkpt lat="47.85130100" lon="-3.23771700"><ele>51.6422006016</ele><time>2007-04-30T15:54:10Z</time></trkpt>
<trkpt lat="47.85132500" lon="-3.23754600"><ele>51.219745668</ele><time>2007-04-30T15:54:14Z</time></trkpt>
<trkpt lat="47.85136200" lon="-3.23742000"><ele>50.8834381872</ele><time>2007-04-30T15:54:19Z</time></trkpt>
<trkpt lat="47.85141600" lon="-3.23728600"><ele>50.169685284</ele><time>2007-04-30T15:54:23Z</time></trkpt>
<trkpt lat="47.85147100" lon="-3.23716900"><ele>49.5690613392</ele><time>2007-04-30T15:54:27Z</time></trkpt>
<trkpt lat="47.85153100" lon="-3.23707000"><ele>49.1565626976</ele><time>2007-04-30T15:54:30Z</time></trkpt>
<trkpt lat="47.85161600" lon="-3.23700700"><ele>49.159061448</ele><time>2007-04-30T15:54:34Z</time></trkpt>
<trkpt lat="47.85172400" lon="-3.23696200"><ele>49.4437486104</ele><time>2007-04-30T15:54:38Z</time></trkpt>
<trkpt lat="47.85182700" lon="-3.23696200"><ele>50.0504225304</ele><time>2007-04-30T15:54:42Z</time></trkpt>
<trkpt lat="47.85192400" lon="-3.23698900"><ele>50.7328758264</ele><time>2007-04-30T15:54:46Z</time></trkpt>
<trkpt lat="47.85201500" lon="-3.23697100"><ele>51.0686873976</ele><time>2007-04-30T15:54:49Z</time></trkpt>
<trkpt lat="47.85209900" lon="-3.23689000"><ele>51.017311224</ele><time>2007-04-30T15:54:52Z</time></trkpt>
<trkpt lat="47.85219600" lon="-3.23684600"><ele>51.2682609888</ele><time>2007-04-30T15:54:56Z</time></trkpt>
<trkpt lat="47.85224400" lon="-3.23672900"><ele>50.2908438936</ele><time>2007-04-30T15:55:02Z</time></trkpt>
<trkpt lat="47.85236500" lon="-3.23671100"><ele>50.6604309624</ele><time>2007-04-30T15:55:05Z</time></trkpt>
<trkpt lat="47.85247400" lon="-3.23668400"><ele>50.9061317664</ele><time>2007-04-30T15:55:08Z</time></trkpt>
<trkpt lat="47.85242600" lon="-3.23655800"><ele>49.4342001408</ele><time>2007-04-30T15:55:17Z</time></trkpt>
<trkpt lat="47.85233500" lon="-3.23650400"><ele>48.3708114624</ele><time>2007-04-30T15:55:20Z</time></trkpt>
<trkpt lat="47.85222600" lon="-3.23646800"><ele>47.4651640992</ele><time>2007-04-30T15:55:23Z</time></trkpt>
<trkpt lat="47.85213600" lon="-3.23644100"><ele>46.797519816</ele><time>2007-04-30T15:55:25Z</time></trkpt>
<trkpt lat="47.85202700" lon="-3.23636900"><ele>45.6256409304</ele><time>2007-04-30T15:55:28Z</time></trkpt>
<trkpt lat="47.85202100" lon="-3.23651300"><ele>47.0169334488</ele><time>2007-04-30T15:55:34Z</time></trkpt>
<trkpt lat="47.85192400" lon="-3.23652200"><ele>46.6555558632</ele><time>2007-04-30T15:55:41Z</time></trkpt>
<trkpt lat="47.85182100" lon="-3.23644100"><ele>45.462768612</ele><time>2007-04-30T15:55:45Z</time></trkpt>
<trkpt lat="47.85171800" lon="-3.23639600"><ele>44.7591094656</ele><time>2007-04-30T15:55:48Z</time></trkpt>
<trkpt lat="47.85162200" lon="-3.23641400"><ele>44.5893821952</ele><time>2007-04-30T15:55:51Z</time></trkpt>
<trkpt lat="47.85153100" lon="-3.23641400"><ele>44.2865944848</ele><time>2007-04-30T15:55:53Z</time></trkpt>
<trkpt lat="47.85144000" lon="-3.23642300"><ele>44.028472776</ele><time>2007-04-30T15:55:56Z</time></trkpt>
<trkpt lat="47.85135000" lon="-3.23646800"><ele>43.8172262592</ele><time>2007-04-30T15:56:00Z</time></trkpt>
<trkpt lat="47.85125300" lon="-3.23648600"><ele>43.256649072</ele><time>2007-04-30T15:56:04Z</time></trkpt>
<trkpt lat="47.85114400" lon="-3.23650400"><ele>42.6385003464</ele><time>2007-04-30T15:56:07Z</time></trkpt>
<trkpt lat="47.85104700" lon="-3.23652200"><ele>42.1322976504</ele><time>2007-04-30T15:56:10Z</time></trkpt>
<trkpt lat="47.85097500" lon="-3.23640500"><ele>40.7419509264</ele><time>2007-04-30T15:56:14Z</time></trkpt>
<trkpt lat="47.85088400" lon="-3.23627100"><ele>39.1418761992</ele><time>2007-04-30T15:56:17Z</time></trkpt>
<trkpt lat="47.85079900" lon="-3.23620800"><ele>38.15375148</ele><time>2007-04-30T15:56:19Z</time></trkpt>
<trkpt lat="47.85070900" lon="-3.23620800"><ele>37.6240615056</ele><time>2007-04-30T15:56:23Z</time></trkpt>
<trkpt lat="47.85061800" lon="-3.23625300"><ele>37.4468763888</ele><time>2007-04-30T15:56:27Z</time></trkpt>
<trkpt lat="47.85052700" lon="-3.23634300"><ele>37.605625068</ele><time>2007-04-30T15:56:31Z</time></trkpt>
<trkpt lat="47.85044300" lon="-3.23640500"><ele>37.5953139888</ele><time>2007-04-30T15:56:34Z</time></trkpt>
<trkpt lat="47.85034600" lon="-3.23647700"><ele>37.5928115808</ele><time>2007-04-30T15:56:37Z</time></trkpt>
<trkpt lat="47.85024900" lon="-3.23643200"><ele>36.6734390736</ele><time>2007-04-30T15:56:40Z</time></trkpt>
<trkpt lat="47.85016400" lon="-3.23634300"><ele>35.4765626256</ele><time>2007-04-30T15:56:43Z</time></trkpt>
<trkpt lat="47.85006800" lon="-3.23630700"><ele>34.6378136808</ele><time>2007-04-30T15:56:45Z</time></trkpt>
<trkpt lat="47.84995300" lon="-3.23624400"><ele>34.0507737576</ele><time>2007-04-30T15:56:48Z</time></trkpt>
<trkpt lat="47.84985600" lon="-3.23620800"><ele>33.8997496248</ele><time>2007-04-30T15:56:52Z</time></trkpt>
<trkpt lat="47.84975900" lon="-3.23633400"><ele>33.8308754928</ele><time>2007-04-30T15:56:56Z</time></trkpt>
<trkpt lat="47.84967500" lon="-3.23647700"><ele>33.1768990512</ele><time>2007-04-30T15:56:59Z</time></trkpt>
<trkpt lat="47.84960200" lon="-3.23659400"><ele>32.1682893336</ele><time>2007-04-30T15:57:01Z</time></trkpt>
<trkpt lat="47.84958400" lon="-3.23676500"><ele>32.591754984</ele><time>2007-04-30T15:57:04Z</time></trkpt>
<trkpt lat="47.84960800" lon="-3.23690800"><ele>33.4353523824</ele><time>2007-04-30T15:57:07Z</time></trkpt>
<trkpt lat="47.84968100" lon="-3.23701600"><ele>34.9721869008</ele><time>2007-04-30T15:57:10Z</time></trkpt>
<trkpt lat="47.84976500" lon="-3.23713300"><ele>36.8891716368</ele><time>2007-04-30T15:57:14Z</time></trkpt>
<trkpt lat="47.84984400" lon="-3.23724100"><ele>38.8322752944</ele><time>2007-04-30T15:57:17Z</time></trkpt>
<trkpt lat="47.84993500" lon="-3.23735800"><ele>40.0540618272</ele><time>2007-04-30T15:57:20Z</time></trkpt>
<trkpt lat="47.85003800" lon="-3.23745600"><ele>40.667514804</ele><time>2007-04-30T15:57:23Z</time></trkpt>
<trkpt lat="47.85014600" lon="-3.23756400"><ele>41.1473501664</ele><time>2007-04-30T15:57:26Z</time></trkpt>
<trkpt lat="47.85022500" lon="-3.23765400"><ele>41.7083434056</ele><time>2007-04-30T15:57:28Z</time></trkpt>
<trkpt lat="47.85027900" lon="-3.23777100"><ele>41.9363441688</ele><time>2007-04-30T15:57:30Z</time></trkpt>
<trkpt lat="47.85032200" lon="-3.23789700"><ele>42.193470096</ele><time>2007-04-30T15:57:32Z</time></trkpt>
<trkpt lat="47.85036400" lon="-3.23807600"><ele>42.5732002992</ele><time>2007-04-30T15:57:35Z</time></trkpt>
<trkpt lat="47.85037000" lon="-3.23821100"><ele>42.3888932256</ele><time>2007-04-30T15:57:37Z</time></trkpt>
<trkpt lat="47.85040000" lon="-3.23840000"><ele>42.7296638928</ele><time>2007-04-30T15:57:40Z</time></trkpt>
<trkpt lat="47.85043100" lon="-3.23857000"><ele>43.0219497192</ele><time>2007-04-30T15:57:43Z</time></trkpt>
<trkpt lat="47.85047300" lon="-3.23874100"><ele>43.3827247152</ele><time>2007-04-30T15:57:46Z</time></trkpt>
<trkpt lat="47.85052700" lon="-3.23887600"><ele>43.9248429096</ele><time>2007-04-30T15:57:49Z</time></trkpt>
<trkpt lat="47.85057000" lon="-3.23903700"><ele>44.2727736336</ele><time>2007-04-30T15:57:52Z</time></trkpt>
<trkpt lat="47.85053900" lon="-3.23916300"><ele>42.9948767736</ele><time>2007-04-30T15:57:55Z</time></trkpt>
<trkpt lat="47.85046100" lon="-3.23924400"><ele>40.4987982504</ele><time>2007-04-30T15:57:58Z</time></trkpt>
<trkpt lat="47.85035800" lon="-3.23928900"><ele>37.3819466736</ele><time>2007-04-30T15:58:00Z</time></trkpt>
<trkpt lat="47.85024300" lon="-3.23937000"><ele>34.1762123688</ele><time>2007-04-30T15:58:03Z</time></trkpt>
<trkpt lat="47.85013400" lon="-3.23946900"><ele>31.365913392</ele><time>2007-04-30T15:58:06Z</time></trkpt>
<trkpt lat="47.85004400" lon="-3.23953200"><ele>29.5084914528</ele><time>2007-04-30T15:58:08Z</time></trkpt>
<trkpt lat="47.84995300" lon="-3.23960300"><ele>27.8939131224</ele><time>2007-04-30T15:58:10Z</time></trkpt>
<trkpt lat="47.84986800" lon="-3.23968400"><ele>26.9500008624</ele><time>2007-04-30T15:58:12Z</time></trkpt>
<trkpt lat="47.84979000" lon="-3.23977400"><ele>26.7849998208</ele><time>2007-04-30T15:58:14Z</time></trkpt>
<trkpt lat="47.84971100" lon="-3.23983700"><ele>26.6149997544</ele><time>2007-04-30T15:58:16Z</time></trkpt>
<trkpt lat="47.84963200" lon="-3.23994500"><ele>26.4747506064</ele><time>2007-04-30T15:58:19Z</time></trkpt>
<trkpt lat="47.84961400" lon="-3.24007900"><ele>27.1505775504</ele><time>2007-04-30T15:58:22Z</time></trkpt>
<trkpt lat="47.84968700" lon="-3.24016900"><ele>27.3994997856</ele><time>2007-04-30T15:58:25Z</time></trkpt>
<trkpt lat="47.84977700" lon="-3.24028600"><ele>27.3728752008</ele><time>2007-04-30T15:58:28Z</time></trkpt>
<trkpt lat="47.84984400" lon="-3.24037600"><ele>27.0811502064</ele><time>2007-04-30T15:58:30Z</time></trkpt>
<trkpt lat="47.84991700" lon="-3.24045700"><ele>27.216474396</ele><time>2007-04-30T15:58:32Z</time></trkpt>
<trkpt lat="47.84998900" lon="-3.24055600"><ele>27.3946687056</ele><time>2007-04-30T15:58:34Z</time></trkpt>
<trkpt lat="47.85006200" lon="-3.24064500"><ele>27.4943998752</ele><time>2007-04-30T15:58:36Z</time></trkpt>
<trkpt lat="47.85015200" lon="-3.24076200"><ele>28.3401869568</ele><time>2007-04-30T15:58:39Z</time></trkpt>
<trkpt lat="47.85025500" lon="-3.24086100"><ele>28.6387995168</ele><time>2007-04-30T15:58:42Z</time></trkpt>
<trkpt lat="47.85031600" lon="-3.24098700"><ele>29.1725503416</ele><time>2007-04-30T15:58:45Z</time></trkpt>
<trkpt lat="47.85039400" lon="-3.24108600"><ele>29.8322850648</ele><time>2007-04-30T15:58:48Z</time></trkpt>
<trkpt lat="47.85044300" lon="-3.24120200"><ele>30.0754660872</ele><time>2007-04-30T15:58:51Z</time></trkpt>
<trkpt lat="47.85044300" lon="-3.24133700"><ele>30.0167503296</ele><time>2007-04-30T15:58:55Z</time></trkpt>
<trkpt lat="47.85035800" lon="-3.24137300"><ele>30.243885156</ele><time>2007-04-30T15:59:01Z</time></trkpt>
<trkpt lat="47.85024900" lon="-3.24135500"><ele>30.3984373488</ele><time>2007-04-30T15:59:05Z</time></trkpt>
<trkpt lat="47.85014600" lon="-3.24135500"><ele>32.2190741952</ele><time>2007-04-30T15:59:10Z</time></trkpt>
<trkpt lat="47.85006200" lon="-3.24131900"><ele>33.10099806</ele><time>2007-04-30T15:59:15Z</time></trkpt>
<trkpt lat="47.84997100" lon="-3.24132800"><ele>34.803531612</ele><time>2007-04-30T15:59:21Z</time></trkpt>
<trkpt lat="47.84988000" lon="-3.24128300"><ele>35.6866493784</ele><time>2007-04-30T15:59:28Z</time></trkpt>
<trkpt lat="47.84978400" lon="-3.24125600"><ele>37.0228386288</ele><time>2007-04-30T15:59:34Z</time></trkpt>
<trkpt lat="47.84969300" lon="-3.24121100"><ele>38.2759512864</ele><time>2007-04-30T15:59:39Z</time></trkpt>
<trkpt lat="47.84959600" lon="-3.24114000"><ele>39.0699997872</ele><time>2007-04-30T15:59:43Z</time></trkpt>
<trkpt lat="47.84952400" lon="-3.24105900"><ele>39.071464656</ele><time>2007-04-30T15:59:49Z</time></trkpt>
<trkpt lat="47.84942700" lon="-3.24101400"><ele>40.0733145192</ele><time>2007-04-30T15:59:57Z</time></trkpt>
<trkpt lat="47.84933600" lon="-3.24098700"><ele>41.31615054</ele><time>2007-04-30T16:00:02Z</time></trkpt>
<trkpt lat="47.84924500" lon="-3.24097800"><ele>42.9624442248</ele><time>2007-04-30T16:00:07Z</time></trkpt>
<trkpt lat="47.84916100" lon="-3.24090600"><ele>43.372527936</ele><time>2007-04-30T16:00:13Z</time></trkpt>
<trkpt lat="47.84907600" lon="-3.24084300"><ele>44.0572739376</ele><time>2007-04-30T16:00:17Z</time></trkpt>
<trkpt lat="47.84896700" lon="-3.24077100"><ele>45.2192727312</ele><time>2007-04-30T16:00:21Z</time></trkpt>
<trkpt lat="47.84887000" lon="-3.24069900"><ele>45.9078141024</ele><time>2007-04-30T16:00:26Z</time></trkpt>
<trkpt lat="47.84878600" lon="-3.24066300"><ele>46.790939184</ele><time>2007-04-30T16:00:31Z</time></trkpt>
<trkpt lat="47.84867100" lon="-3.24064500"><ele>48.479686632</ele><time>2007-04-30T16:00:37Z</time></trkpt>
<trkpt lat="47.84858000" lon="-3.24061000"><ele>49.498748856</ele><time>2007-04-30T16:00:41Z</time></trkpt>
<trkpt lat="47.84849600" lon="-3.24052000"><ele>49.5332107632</ele><time>2007-04-30T16:00:45Z</time></trkpt>
<trkpt lat="47.84840500" lon="-3.24043900"><ele>49.8191948496</ele><time>2007-04-30T16:00:49Z</time></trkpt>
<trkpt lat="47.84832600" lon="-3.24037600"><ele>50.3115004944</ele><time>2007-04-30T16:00:53Z</time></trkpt>
<trkpt lat="47.84824200" lon="-3.24033100"><ele>51.2321242056</ele><time>2007-04-30T16:00:56Z</time></trkpt>
<trkpt lat="47.84815100" lon="-3.24027700"><ele>52.28174964</ele><time>2007-04-30T16:00:59Z</time></trkpt>
<trkpt lat="47.84806000" lon="-3.24025900"><ele>53.7924996792</ele><time>2007-04-30T16:01:02Z</time></trkpt>
<trkpt lat="47.84800000" lon="-3.24036700"><ele>55.2981263352</ele><time>2007-04-30T16:01:07Z</time></trkpt>
<trkpt lat="47.84790300" lon="-3.24043900"><ele>56.5022469648</ele><time>2007-04-30T16:01:11Z</time></trkpt>
<trkpt lat="47.84780000" lon="-3.24044800"><ele>57.0083999784</ele><time>2007-04-30T16:01:15Z</time></trkpt>
<trkpt lat="47.84770900" lon="-3.24051100"><ele>58.1966438808</ele><time>2007-04-30T16:01:19Z</time></trkpt>
<trkpt lat="47.84763100" lon="-3.24057400"><ele>59.3006630088</ele><time>2007-04-30T16:01:23Z</time></trkpt>
<trkpt lat="47.84757000" lon="-3.24069900"><ele>61.0026131736</ele><time>2007-04-30T16:01:27Z</time></trkpt>
<trkpt lat="47.84754600" lon="-3.24083400"><ele>62.7599488512</ele><time>2007-04-30T16:01:31Z</time></trkpt>
<trkpt lat="47.84752200" lon="-3.24096900"><ele>64.5501404448</ele><time>2007-04-30T16:01:35Z</time></trkpt>
<trkpt lat="47.84750400" lon="-3.24110400"><ele>66.2262496656</ele><time>2007-04-30T16:01:39Z</time></trkpt>
<trkpt lat="47.84748600" lon="-3.24125600"><ele>67.7840653968</ele><time>2007-04-30T16:01:44Z</time></trkpt>
<trkpt lat="47.84748600" lon="-3.24140900"><ele>69.4131241656</ele><time>2007-04-30T16:01:49Z</time></trkpt>
<trkpt lat="47.84747400" lon="-3.24154400"><ele>70.8171844512</ele><time>2007-04-30T16:01:53Z</time></trkpt>
<trkpt lat="47.84745600" lon="-3.24168700"><ele>72.2831267568</ele><time>2007-04-30T16:01:57Z</time></trkpt>
<trkpt lat="47.84741900" lon="-3.24181300"><ele>72.7712478024</ele><time>2007-04-30T16:02:00Z</time></trkpt>
<trkpt lat="47.84741900" lon="-3.24196600"><ele>73.2681275808</ele><time>2007-04-30T16:02:04Z</time></trkpt>
<trkpt lat="47.84739500" lon="-3.24211000"><ele>73.6262511216</ele><time>2007-04-30T16:02:07Z</time></trkpt>
<trkpt lat="47.84737700" lon="-3.24225300"><ele>74.0087510424</ele><time>2007-04-30T16:02:10Z</time></trkpt>
<trkpt lat="47.84735300" lon="-3.24239700"><ele>74.300300472</ele><time>2007-04-30T16:02:13Z</time></trkpt>
<trkpt lat="47.84732900" lon="-3.24254100"><ele>74.1461868864</ele><time>2007-04-30T16:02:16Z</time></trkpt>
<trkpt lat="47.84730400" lon="-3.24269400"><ele>73.958663868</ele><time>2007-04-30T16:02:19Z</time></trkpt>
<trkpt lat="47.84729200" lon="-3.24283700"><ele>73.8412856928</ele><time>2007-04-30T16:02:22Z</time></trkpt>
<trkpt lat="47.84727400" lon="-3.24299000"><ele>73.6685561424</ele><time>2007-04-30T16:02:25Z</time></trkpt>
<trkpt lat="47.84724400" lon="-3.24312500"><ele>73.6175003136</ele><time>2007-04-30T16:02:28Z</time></trkpt>
<trkpt lat="47.84723800" lon="-3.24326900"><ele>73.8334349592</ele><time>2007-04-30T16:02:31Z</time></trkpt>
<trkpt lat="47.84720800" lon="-3.24340300"><ele>73.88812248</ele><time>2007-04-30T16:02:34Z</time></trkpt>
<trkpt lat="47.84709900" lon="-3.24343900"><ele>73.2390594144</ele><time>2007-04-30T16:02:38Z</time></trkpt>
<trkpt lat="47.84698400" lon="-3.24341200"><ele>72.4587708048</ele><time>2007-04-30T16:02:41Z</time></trkpt>
<trkpt lat="47.84686300" lon="-3.24339400"><ele>71.7509916768</ele><time>2007-04-30T16:02:44Z</time></trkpt>
<trkpt lat="47.84673600" lon="-3.24335800"><ele>70.9986419496</ele><time>2007-04-30T16:02:47Z</time></trkpt>
<trkpt lat="47.84662700" lon="-3.24334000"><ele>70.3698883176</ele><time>2007-04-30T16:02:49Z</time></trkpt>
<trkpt lat="47.84652400" lon="-3.24330400"><ele>69.7450025976</ele><time>2007-04-30T16:02:51Z</time></trkpt>
<trkpt lat="47.84639100" lon="-3.24323300"><ele>68.8300018368</ele><time>2007-04-30T16:02:53Z</time></trkpt>
<trkpt lat="47.84625800" lon="-3.24320600"><ele>67.9449997968</ele><time>2007-04-30T16:02:55Z</time></trkpt>
<trkpt lat="47.84615500" lon="-3.24323300"><ele>67.2699967272</ele><time>2007-04-30T16:02:57Z</time></trkpt>
<trkpt lat="47.84603400" lon="-3.24328600"><ele>66.1473159144</ele><time>2007-04-30T16:02:59Z</time></trkpt>
<trkpt lat="47.84594400" lon="-3.24340300"><ele>65.3817979128</ele><time>2007-04-30T16:03:01Z</time></trkpt>
<trkpt lat="47.84590700" lon="-3.24356500"><ele>65.3001328488</ele><time>2007-04-30T16:03:03Z</time></trkpt>
<trkpt lat="47.84587100" lon="-3.24373600"><ele>65.1680145456</ele><time>2007-04-30T16:03:05Z</time></trkpt>
<trkpt lat="47.84576800" lon="-3.24383400"><ele>64.4789656824</ele><time>2007-04-30T16:03:07Z</time></trkpt>
<trkpt lat="47.84561700" lon="-3.24381600"><ele>63.1769941944</ele><time>2007-04-30T16:03:09Z</time></trkpt>
<trkpt lat="47.84552000" lon="-3.24374500"><ele>61.9177779168</ele><time>2007-04-30T16:03:10Z</time></trkpt>
<trkpt lat="47.84537500" lon="-3.24360100"><ele>60.0295602048</ele><time>2007-04-30T16:03:12Z</time></trkpt>
<trkpt lat="47.84526600" lon="-3.24350200"><ele>58.726085748</ele><time>2007-04-30T16:03:14Z</time></trkpt>
<trkpt lat="47.84524200" lon="-3.24364600"><ele>58.5487555464</ele><time>2007-04-30T16:03:18Z</time></trkpt>
<trkpt lat="47.84526000" lon="-3.24380800"><ele>58.9017752112</ele><time>2007-04-30T16:03:21Z</time></trkpt>
<trkpt lat="47.84527900" lon="-3.24396900"><ele>59.2831345704</ele><time>2007-04-30T16:03:24Z</time></trkpt>
<trkpt lat="47.84529700" lon="-3.24414900"><ele>59.7010955328</ele><time>2007-04-30T16:03:27Z</time></trkpt>
<trkpt lat="47.84532100" lon="-3.24434600"><ele>58.5756264096</ele><time>2007-04-30T16:03:30Z</time></trkpt>
<trkpt lat="47.84535100" lon="-3.24448100"><ele>57.9043732944</ele><time>2007-04-30T16:03:32Z</time></trkpt>
<trkpt lat="47.84536900" lon="-3.24463400"><ele>56.8806265992</ele><time>2007-04-30T16:03:34Z</time></trkpt>
<trkpt lat="47.84540000" lon="-3.24484100"><ele>55.5962487768</ele><time>2007-04-30T16:03:36Z</time></trkpt>
<trkpt lat="47.84544800" lon="-3.24505600"><ele>53.5103036472</ele><time>2007-04-30T16:03:38Z</time></trkpt>
<trkpt lat="47.84547800" lon="-3.24518200"><ele>52.3257103344</ele><time>2007-04-30T16:03:39Z</time></trkpt>
<trkpt lat="47.84551400" lon="-3.24530800"><ele>51.2485236648</ele><time>2007-04-30T16:03:40Z</time></trkpt>
<trkpt lat="47.84555100" lon="-3.24544200"><ele>50.1627349296</ele><time>2007-04-30T16:03:41Z</time></trkpt>
<trkpt lat="47.84559300" lon="-3.24557700"><ele>49.2137489688</ele><time>2007-04-30T16:03:42Z</time></trkpt>
<trkpt lat="47.84562900" lon="-3.24572100"><ele>48.5275003032</ele><time>2007-04-30T16:03:43Z</time></trkpt>
<trkpt lat="47.84566600" lon="-3.24585600"><ele>47.9537505744</ele><time>2007-04-30T16:03:44Z</time></trkpt>
<trkpt lat="47.84569600" lon="-3.24600800"><ele>47.1006242136</ele><time>2007-04-30T16:03:45Z</time></trkpt>
<trkpt lat="47.84573200" lon="-3.24613400"><ele>46.5756263304</ele><time>2007-04-30T16:03:46Z</time></trkpt>
<trkpt lat="47.84578000" lon="-3.24632300"><ele>46.2664948176</ele><time>2007-04-30T16:03:48Z</time></trkpt>
<trkpt lat="47.84584100" lon="-3.24643100"><ele>46.7442170016</ele><time>2007-04-30T16:03:51Z</time></trkpt>
<trkpt lat="47.84595000" lon="-3.24648400"><ele>47.8436507184</ele><time>2007-04-30T16:03:55Z</time></trkpt>
<trkpt lat="47.84603400" lon="-3.24652900"><ele>49.2740630976</ele><time>2007-04-30T16:03:58Z</time></trkpt>
<trkpt lat="47.84613100" lon="-3.24657400"><ele>50.989620144</ele><time>2007-04-30T16:04:02Z</time></trkpt>
<trkpt lat="47.84622200" lon="-3.24661000"><ele>52.5694619424</ele><time>2007-04-30T16:04:05Z</time></trkpt>
<trkpt lat="47.84631300" lon="-3.24668200"><ele>53.8517646864</ele><time>2007-04-30T16:04:09Z</time></trkpt>
<trkpt lat="47.84640900" lon="-3.24674500"><ele>55.2233924232</ele><time>2007-04-30T16:04:13Z</time></trkpt>
<trkpt lat="47.84650600" lon="-3.24679900"><ele>56.924850336</ele><time>2007-04-30T16:04:17Z</time></trkpt>
<trkpt lat="47.84660300" lon="-3.24685300"><ele>58.5688324176</ele><time>2007-04-30T16:04:20Z</time></trkpt>
<trkpt lat="47.84668800" lon="-3.24691600"><ele>59.8115385936</ele><time>2007-04-30T16:04:23Z</time></trkpt>
<trkpt lat="47.84678400" lon="-3.24695200"><ele>61.5432244368</ele><time>2007-04-30T16:04:29Z</time></trkpt>
<trkpt lat="47.84689300" lon="-3.24702300"><ele>63.2284508352</ele><time>2007-04-30T16:04:34Z</time></trkpt>
<trkpt lat="47.84696600" lon="-3.24713100"><ele>63.766624308</ele><time>2007-04-30T16:04:38Z</time></trkpt>
<trkpt lat="47.84703800" lon="-3.24723900"><ele>64.56230928</ele><time>2007-04-30T16:04:40Z</time></trkpt>
<trkpt lat="47.84709300" lon="-3.24734700"><ele>65.019088656</ele><time>2007-04-30T16:04:43Z</time></trkpt>
<trkpt lat="47.84713500" lon="-3.24746400"><ele>65.226898248</ele><time>2007-04-30T16:04:46Z</time></trkpt>
<trkpt lat="47.84717700" lon="-3.24759800"><ele>65.4970854648</ele><time>2007-04-30T16:04:49Z</time></trkpt>
<trkpt lat="47.84722600" lon="-3.24772400"><ele>66.1532515896</ele><time>2007-04-30T16:04:51Z</time></trkpt>
<trkpt lat="47.84725600" lon="-3.24788600"><ele>66.5559387192</ele><time>2007-04-30T16:04:54Z</time></trkpt>
<trkpt lat="47.84722600" lon="-3.24804800"><ele>65.2520293128</ele><time>2007-04-30T16:04:58Z</time></trkpt>
<trkpt lat="47.84719500" lon="-3.24818200"><ele>64.0827485424</ele><time>2007-04-30T16:05:01Z</time></trkpt>
<trkpt lat="47.84714700" lon="-3.24833500"><ele>62.6258734272</ele><time>2007-04-30T16:05:05Z</time></trkpt>
<trkpt lat="47.84717100" lon="-3.24846100"><ele>63.2784996048</ele><time>2007-04-30T16:05:09Z</time></trkpt>
<trkpt lat="47.84718900" lon="-3.24862200"><ele>64.038704028</ele><time>2007-04-30T16:05:15Z</time></trkpt>
<trkpt lat="47.84733500" lon="-3.24877500"><ele>66.9815215104</ele><time>2007-04-30T16:05:35Z</time></trkpt>
<trkpt lat="47.84726800" lon="-3.24880200"><ele>65.8014069288</ele><time>2007-04-30T16:05:35Z</time></trkpt>
<trkpt lat="47.84732900" lon="-3.24869400"><ele>66.861991752</ele><time>2007-04-30T16:05:49Z</time></trkpt>
<trkpt lat="47.84738300" lon="-3.24858700"><ele>67.9403762856</ele><time>2007-04-30T16:05:54Z</time></trkpt>
<trkpt lat="47.84743700" lon="-3.24847000"><ele>69.2694700968</ele><time>2007-04-30T16:05:58Z</time></trkpt>
<trkpt lat="47.84749200" lon="-3.24832600"><ele>70.9668732552</ele><time>2007-04-30T16:06:02Z</time></trkpt>
<trkpt lat="47.84754600" lon="-3.24820000"><ele>72.7115630856</ele><time>2007-04-30T16:06:05Z</time></trkpt>
<trkpt lat="47.84760100" lon="-3.24806600"><ele>74.547813312</ele><time>2007-04-30T16:06:09Z</time></trkpt>
<trkpt lat="47.84763700" lon="-3.24792200"><ele>75.9246903144</ele><time>2007-04-30T16:06:14Z</time></trkpt>
<trkpt lat="47.84767300" lon="-3.24778700"><ele>77.2621841088</ele><time>2007-04-30T16:06:19Z</time></trkpt>
<trkpt lat="47.84775800" lon="-3.24772400"><ele>78.4800033648</ele><time>2007-04-30T16:06:32Z</time></trkpt>
<trkpt lat="47.84785500" lon="-3.24769700"><ele>79.33999626</ele><time>2007-04-30T16:06:47Z</time></trkpt>
<trkpt lat="47.84795100" lon="-3.24767900"><ele>80.1800003712</ele><time>2007-04-30T16:06:54Z</time></trkpt>
<trkpt lat="47.84803600" lon="-3.24771500"><ele>80.9400024072</ele><time>2007-04-30T16:06:59Z</time></trkpt>
<trkpt lat="47.84813300" lon="-3.24767000"><ele>81.8000029224</ele><time>2007-04-30T16:07:05Z</time></trkpt>
<trkpt lat="47.84821700" lon="-3.24758900"><ele>82.3305435936</ele><time>2007-04-30T16:07:09Z</time></trkpt>
<trkpt lat="47.84832000" lon="-3.24756200"><ele>82.905731064</ele><time>2007-04-30T16:07:14Z</time></trkpt>
<trkpt lat="47.84841700" lon="-3.24752700"><ele>83.4239730552</ele><time>2007-04-30T16:07:18Z</time></trkpt>
<trkpt lat="47.84850800" lon="-3.24750000"><ele>83.8738785816</ele><time>2007-04-30T16:07:22Z</time></trkpt>
<trkpt lat="47.84861700" lon="-3.24748200"><ele>84.4215621192</ele><time>2007-04-30T16:07:26Z</time></trkpt>
<trkpt lat="47.84870700" lon="-3.24749100"><ele>85.0209351648</ele><time>2007-04-30T16:07:29Z</time></trkpt>
<trkpt lat="47.84879800" lon="-3.24746400"><ele>85.5662461392</ele><time>2007-04-30T16:07:32Z</time></trkpt>
<trkpt lat="47.84892500" lon="-3.24741900"><ele>86.3187485712</ele><time>2007-04-30T16:07:35Z</time></trkpt>
<trkpt lat="47.84903400" lon="-3.24736500"><ele>86.9259339456</ele><time>2007-04-30T16:07:38Z</time></trkpt>
<trkpt lat="47.84914900" lon="-3.24735600"><ele>87.8039780112</ele><time>2007-04-30T16:07:41Z</time></trkpt>
<trkpt lat="47.84927000" lon="-3.24736500"><ele>88.8212202744</ele><time>2007-04-30T16:07:44Z</time></trkpt>
<trkpt lat="47.84939700" lon="-3.24739200"><ele>89.9259337368</ele><time>2007-04-30T16:07:47Z</time></trkpt>
<trkpt lat="47.84949300" lon="-3.24742800"><ele>90.772148148</ele><time>2007-04-30T16:07:50Z</time></trkpt>
<trkpt lat="47.84960200" lon="-3.24751800"><ele>91.3799973768</ele><time>2007-04-30T16:07:53Z</time></trkpt>
<trkpt lat="47.84968700" lon="-3.24758000"><ele>91.7699965968</ele><time>2007-04-30T16:07:55Z</time></trkpt>
<trkpt lat="47.84972300" lon="-3.24770600"><ele>91.9599991632</ele><time>2007-04-30T16:07:58Z</time></trkpt>
<trkpt lat="47.84976500" lon="-3.24786800"><ele>92.1800004504</ele><time>2007-04-30T16:08:01Z</time></trkpt>
<trkpt lat="47.84982600" lon="-3.24803000"><ele>92.394630552</ele><time>2007-04-30T16:08:04Z</time></trkpt>
<trkpt lat="47.84988600" lon="-3.24817300"><ele>92.3015900472</ele><time>2007-04-30T16:08:07Z</time></trkpt>
<trkpt lat="47.84996500" lon="-3.24829900"><ele>92.2110976704</ele><time>2007-04-30T16:08:10Z</time></trkpt>
<trkpt lat="47.85002500" lon="-3.24845200"><ele>92.0028534336</ele><time>2007-04-30T16:08:13Z</time></trkpt>
<trkpt lat="47.85009800" lon="-3.24860500"><ele>91.971389844</ele><time>2007-04-30T16:08:16Z</time></trkpt>
<trkpt lat="47.85016400" lon="-3.24873900"><ele>92.0524215336</ele><time>2007-04-30T16:08:19Z</time></trkpt>
<trkpt lat="47.85023700" lon="-3.24889200"><ele>92.14958202</ele><time>2007-04-30T16:08:22Z</time></trkpt>
<trkpt lat="47.85025500" lon="-3.24906300"><ele>91.9844895384</ele><time>2007-04-30T16:08:25Z</time></trkpt>
<trkpt lat="47.85027300" lon="-3.24924200"><ele>91.8215407152</ele><time>2007-04-30T16:08:28Z</time></trkpt>
<trkpt lat="47.85032200" lon="-3.24941300"><ele>91.9703599248</ele><time>2007-04-30T16:08:31Z</time></trkpt>
<trkpt lat="47.85037600" lon="-3.24957500"><ele>92.1249999</ele><time>2007-04-30T16:08:34Z</time></trkpt>
<trkpt lat="47.85042400" lon="-3.24973600"><ele>92.249999904</ele><time>2007-04-30T16:08:37Z</time></trkpt>
<trkpt lat="47.85047900" lon="-3.24991600"><ele>92.3899994208</ele><time>2007-04-30T16:08:40Z</time></trkpt>
<trkpt lat="47.85051500" lon="-3.25005100"><ele>92.485000704</ele><time>2007-04-30T16:08:43Z</time></trkpt>
<trkpt lat="47.85042400" lon="-3.25005100"><ele>92.2850037456</ele><time>2007-04-30T16:08:47Z</time></trkpt>
<trkpt lat="47.85033400" lon="-3.25009600"><ele>92.0899963632</ele><time>2007-04-30T16:08:50Z</time></trkpt>
<trkpt lat="47.85024300" lon="-3.25014100"><ele>91.7948533416</ele><time>2007-04-30T16:08:54Z</time></trkpt>
<trkpt lat="47.85015200" lon="-3.25015900"><ele>91.4346388728</ele><time>2007-04-30T16:08:57Z</time></trkpt>
<trkpt lat="47.85005600" lon="-3.25018600"><ele>91.0805740488</ele><time>2007-04-30T16:09:00Z</time></trkpt>
<trkpt lat="47.84995300" lon="-3.25022100"><ele>90.733734204</ele><time>2007-04-30T16:09:04Z</time></trkpt>
<trkpt lat="47.84985600" lon="-3.25029300"><ele>90.5019682464</ele><time>2007-04-30T16:09:08Z</time></trkpt>
<trkpt lat="47.84977100" lon="-3.25034700"><ele>90.1168290624</ele><time>2007-04-30T16:09:11Z</time></trkpt>
<trkpt lat="47.84968100" lon="-3.25040100"><ele>89.6962279224</ele><time>2007-04-30T16:09:13Z</time></trkpt>
<trkpt lat="47.84951700" lon="-3.25043700"><ele>88.885917732</ele><time>2007-04-30T16:09:16Z</time></trkpt>
<trkpt lat="47.84942100" lon="-3.25042800"><ele>88.3416290568</ele><time>2007-04-30T16:09:18Z</time></trkpt>
<trkpt lat="47.84930600" lon="-3.25041000"><ele>87.574066152</ele><time>2007-04-30T16:09:20Z</time></trkpt>
<trkpt lat="47.84920900" lon="-3.25036500"><ele>86.758438116</ele><time>2007-04-30T16:09:22Z</time></trkpt>
<trkpt lat="47.84910600" lon="-3.25028400"><ele>85.7393722344</ele><time>2007-04-30T16:09:24Z</time></trkpt>
<trkpt lat="47.84903400" lon="-3.25020400"><ele>84.9049986936</ele><time>2007-04-30T16:09:26Z</time></trkpt>
<trkpt lat="47.84894900" lon="-3.25009600"><ele>83.8615570416</ele><time>2007-04-30T16:09:29Z</time></trkpt>
<trkpt lat="47.84884600" lon="-3.25002400"><ele>82.702621488</ele><time>2007-04-30T16:09:32Z</time></trkpt>
<trkpt lat="47.84873700" lon="-3.24996100"><ele>81.48109434</ele><time>2007-04-30T16:09:35Z</time></trkpt>
<trkpt lat="47.84865300" lon="-3.24984400"><ele>80.45381928</ele><time>2007-04-30T16:09:38Z</time></trkpt>
<trkpt lat="47.84855000" lon="-3.24977200"><ele>79.7971115256</ele><time>2007-04-30T16:09:40Z</time></trkpt>
<trkpt lat="47.84845900" lon="-3.24972700"><ele>79.2294769992</ele><time>2007-04-30T16:09:42Z</time></trkpt>
<trkpt lat="47.84836300" lon="-3.24971800"><ele>78.4942628232</ele><time>2007-04-30T16:09:45Z</time></trkpt>
<trkpt lat="47.84829000" lon="-3.24982600"><ele>77.6300963016</ele><time>2007-04-30T16:09:49Z</time></trkpt>
<trkpt lat="47.84819900" lon="-3.24988900"><ele>77.2616043792</ele><time>2007-04-30T16:09:54Z</time></trkpt>
<trkpt lat="47.84810300" lon="-3.24988900"><ele>76.646766696</ele><time>2007-04-30T16:09:57Z</time></trkpt>
<trkpt lat="47.84800600" lon="-3.24984400"><ele>75.6241761072</ele><time>2007-04-30T16:10:01Z</time></trkpt>
<trkpt lat="47.84790900" lon="-3.24977200"><ele>74.4068527608</ele><time>2007-04-30T16:10:05Z</time></trkpt>
<trkpt lat="47.84782400" lon="-3.24980800"><ele>73.5406035408</ele><time>2007-04-30T16:10:08Z</time></trkpt>
<trkpt lat="47.84775800" lon="-3.24991600"><ele>73.7203599504</ele><time>2007-04-30T16:10:11Z</time></trkpt>
<trkpt lat="47.84772800" lon="-3.25005100"><ele>74.5288392072</ele><time>2007-04-30T16:10:14Z</time></trkpt>
<trkpt lat="47.84765500" lon="-3.25016800"><ele>75.0077821152</ele><time>2007-04-30T16:10:20Z</time></trkpt>
<trkpt lat="47.84764900" lon="-3.25032000"><ele>76.27045452</ele><time>2007-04-30T16:10:23Z</time></trkpt>
<trkpt lat="47.84760100" lon="-3.25043700"><ele>77.0872648752</ele><time>2007-04-30T16:10:26Z</time></trkpt>
<trkpt lat="47.84763100" lon="-3.25058100"><ele>77.7587356176</ele><time>2007-04-30T16:10:30Z</time></trkpt>
<trkpt lat="47.84764300" lon="-3.25072500"><ele>78.3602142216</ele><time>2007-04-30T16:10:34Z</time></trkpt>
<trkpt lat="47.84755800" lon="-3.25078700"><ele>78.062736432</ele><time>2007-04-30T16:10:38Z</time></trkpt>
<trkpt lat="47.84743100" lon="-3.25076900"><ele>77.193748584</ele><time>2007-04-30T16:10:41Z</time></trkpt>
<trkpt lat="47.84733500" lon="-3.25083200"><ele>76.7975006592</ele><time>2007-04-30T16:10:44Z</time></trkpt>
<trkpt lat="47.84729200" lon="-3.25094900"><ele>76.9056244968</ele><time>2007-04-30T16:10:47Z</time></trkpt>
<trkpt lat="47.84728000" lon="-3.25108400"><ele>77.2825011624</ele><time>2007-04-30T16:10:51Z</time></trkpt>
<trkpt lat="47.84725000" lon="-3.25125500"><ele>77.6525039784</ele><time>2007-04-30T16:10:55Z</time></trkpt>
<trkpt lat="47.84717700" lon="-3.25135300"><ele>77.518127412</ele><time>2007-04-30T16:10:57Z</time></trkpt>
<trkpt lat="47.84708100" lon="-3.25150600"><ele>77.4056245128</ele><time>2007-04-30T16:11:00Z</time></trkpt>
<trkpt lat="47.84699600" lon="-3.25165000"><ele>77.3821259568</ele><time>2007-04-30T16:11:02Z</time></trkpt>
<trkpt lat="47.84693500" lon="-3.25176700"><ele>76.856048472</ele><time>2007-04-30T16:11:04Z</time></trkpt>
<trkpt lat="47.84692900" lon="-3.25192800"><ele>75.9707565672</ele><time>2007-04-30T16:11:08Z</time></trkpt>
<trkpt lat="47.84685100" lon="-3.25200900"><ele>75.053985528</ele><time>2007-04-30T16:11:14Z</time></trkpt>
<trkpt lat="47.84677200" lon="-3.25207200"><ele>74.2604597592</ele><time>2007-04-30T16:11:16Z</time></trkpt>
<trkpt lat="47.84668800" lon="-3.25212600"><ele>73.5210954264</ele><time>2007-04-30T16:11:18Z</time></trkpt>
<trkpt lat="47.84654200" lon="-3.25211700"><ele>72.5853271176</ele><time>2007-04-30T16:11:21Z</time></trkpt>
<trkpt lat="47.84644000" lon="-3.25206300"><ele>71.95721448</ele><time>2007-04-30T16:11:23Z</time></trkpt>
<trkpt lat="47.84633100" lon="-3.25196400"><ele>71.5073775336</ele><time>2007-04-30T16:11:25Z</time></trkpt>
<trkpt lat="47.84622800" lon="-3.25186500"><ele>71.1946335312</ele><time>2007-04-30T16:11:27Z</time></trkpt>
<trkpt lat="47.84612500" lon="-3.25180300"><ele>70.68861402</ele><time>2007-04-30T16:11:29Z</time></trkpt>
<trkpt lat="47.84604100" lon="-3.25173100"><ele>70.312515204</ele><time>2007-04-30T16:11:31Z</time></trkpt>
<trkpt lat="47.84596800" lon="-3.25164100"><ele>70.0806349464</ele><time>2007-04-30T16:11:33Z</time></trkpt>
<trkpt lat="47.84589500" lon="-3.25176700"><ele>68.8249970208</ele><time>2007-04-30T16:11:37Z</time></trkpt>
<trkpt lat="47.84588300" lon="-3.25191000"><ele>68.0356140936</ele><time>2007-04-30T16:11:39Z</time></trkpt>
<trkpt lat="47.84585300" lon="-3.25204500"><ele>67.1669081856</ele><time>2007-04-30T16:11:41Z</time></trkpt>
<trkpt lat="47.84575000" lon="-3.25207200"><ele>66.2409669336</ele><time>2007-04-30T16:11:44Z</time></trkpt>
<trkpt lat="47.84566600" lon="-3.25201800"><ele>65.9165039808</ele><time>2007-04-30T16:11:46Z</time></trkpt>
<trkpt lat="47.84554500" lon="-3.25194600"><ele>65.6518019448</ele><time>2007-04-30T16:11:49Z</time></trkpt>
<trkpt lat="47.84545400" lon="-3.25192800"><ele>65.30480208</ele><time>2007-04-30T16:11:51Z</time></trkpt>
<trkpt lat="47.84536900" lon="-3.25189200"><ele>64.9998780264</ele><time>2007-04-30T16:11:53Z</time></trkpt>
<trkpt lat="47.84527300" lon="-3.25180300"><ele>64.6969528512</ele><time>2007-04-30T16:11:56Z</time></trkpt>
<trkpt lat="47.84518800" lon="-3.25169500"><ele>65.0584563192</ele><time>2007-04-30T16:11:59Z</time></trkpt>
<trkpt lat="47.84512100" lon="-3.25157800"><ele>65.3451996624</ele><time>2007-04-30T16:12:02Z</time></trkpt>
<trkpt lat="47.84504300" lon="-3.25146100"><ele>65.5408858344</ele><time>2007-04-30T16:12:05Z</time></trkpt>
<trkpt lat="47.84500600" lon="-3.25131700"><ele>65.7126235656</ele><time>2007-04-30T16:12:08Z</time></trkpt>
<trkpt lat="47.84497000" lon="-3.25111100"><ele>65.8771134576</ele><time>2007-04-30T16:12:11Z</time></trkpt>
<trkpt lat="47.84492200" lon="-3.25096700"><ele>65.963416968</ele><time>2007-04-30T16:12:13Z</time></trkpt>
<trkpt lat="47.84491000" lon="-3.25081400"><ele>65.9697266328</ele><time>2007-04-30T16:12:15Z</time></trkpt>
<trkpt lat="47.84489200" lon="-3.25067100"><ele>65.5779647544</ele><time>2007-04-30T16:12:17Z</time></trkpt>
<trkpt lat="47.84490400" lon="-3.25050000"><ele>65.1113052864</ele><time>2007-04-30T16:12:20Z</time></trkpt>
<trkpt lat="47.84497600" lon="-3.25035600"><ele>64.9037093592</ele><time>2007-04-30T16:12:23Z</time></trkpt>
<trkpt lat="47.84505500" lon="-3.25028400"><ele>65.00174706</ele><time>2007-04-30T16:12:25Z</time></trkpt>
<trkpt lat="47.84511500" lon="-3.25018600"><ele>65.0516967696</ele><time>2007-04-30T16:12:27Z</time></trkpt>
<trkpt lat="47.84517000" lon="-3.25000600"><ele>64.5203934888</ele><time>2007-04-30T16:12:30Z</time></trkpt>
<trkpt lat="47.84520000" lon="-3.24981700"><ele>63.871181376</ele><time>2007-04-30T16:12:33Z</time></trkpt>
<trkpt lat="47.84525400" lon="-3.24970900"><ele>63.7986258696</ele><time>2007-04-30T16:12:35Z</time></trkpt>
<trkpt lat="47.84527900" lon="-3.24958400"><ele>63.4864996968</ele><time>2007-04-30T16:12:38Z</time></trkpt>
<trkpt lat="47.84517600" lon="-3.24951200"><ele>62.3256378072</ele><time>2007-04-30T16:12:41Z</time></trkpt>
<trkpt lat="47.84517600" lon="-3.24937700"><ele>61.4874954144</ele><time>2007-04-30T16:12:44Z</time></trkpt>
<trkpt lat="47.84518200" lon="-3.24922400"><ele>60.5777588544</ele><time>2007-04-30T16:12:47Z</time></trkpt>
<trkpt lat="47.84520600" lon="-3.24909000"><ele>59.999137812</ele><time>2007-04-30T16:12:50Z</time></trkpt>
<trkpt lat="47.84520600" lon="-3.24895500"><ele>59.1500052456</ele><time>2007-04-30T16:12:52Z</time></trkpt>
<trkpt lat="47.84520000" lon="-3.24879300"><ele>57.8984985792</ele><time>2007-04-30T16:12:54Z</time></trkpt>
<trkpt lat="47.84518800" lon="-3.24864000"><ele>56.408561808</ele><time>2007-04-30T16:12:56Z</time></trkpt>
<trkpt lat="47.84513900" lon="-3.24852400"><ele>54.9152259072</ele><time>2007-04-30T16:12:58Z</time></trkpt>
<trkpt lat="47.84507900" lon="-3.24841600"><ele>53.5312501128</ele><time>2007-04-30T16:13:00Z</time></trkpt>
<trkpt lat="47.84501900" lon="-3.24831700"><ele>52.3543167288</ele><time>2007-04-30T16:13:02Z</time></trkpt>
<trkpt lat="47.84497000" lon="-3.24820000"><ele>51.3774985656</ele><time>2007-04-30T16:13:05Z</time></trkpt>
<trkpt lat="47.84497000" lon="-3.24804800"><ele>50.5172234256</ele><time>2007-04-30T16:13:09Z</time></trkpt>
<trkpt lat="47.84495200" lon="-3.24789500"><ele>49.9669417728</ele><time>2007-04-30T16:13:12Z</time></trkpt>
<trkpt lat="47.84495200" lon="-3.24775100"><ele>49.0691872056</ele><time>2007-04-30T16:13:15Z</time></trkpt>
<trkpt lat="47.84492800" lon="-3.24758900"><ele>48.660911568</ele><time>2007-04-30T16:13:19Z</time></trkpt>
<trkpt lat="47.84488500" lon="-3.24747300"><ele>49.0676269344</ele><time>2007-04-30T16:13:22Z</time></trkpt>
<trkpt lat="47.84484900" lon="-3.24729300"><ele>48.8300780064</ele><time>2007-04-30T16:13:26Z</time></trkpt>
<trkpt lat="47.84483100" lon="-3.24711300"><ele>48.0341644344</ele><time>2007-04-30T16:13:30Z</time></trkpt>
<trkpt lat="47.84480100" lon="-3.24698800"><ele>47.6858444808</ele><time>2007-04-30T16:13:32Z</time></trkpt>
<trkpt lat="47.84480100" lon="-3.24683500"><ele>46.5066412512</ele><time>2007-04-30T16:13:34Z</time></trkpt>
<trkpt lat="47.84481900" lon="-3.24670000"><ele>45.1476934992</ele><time>2007-04-30T16:13:36Z</time></trkpt>
<trkpt lat="47.84481300" lon="-3.24652900"><ele>43.7702254896</ele><time>2007-04-30T16:13:39Z</time></trkpt>
<trkpt lat="47.84492200" lon="-3.24644900"><ele>42.0242500128</ele><time>2007-04-30T16:13:42Z</time></trkpt>
<trkpt lat="47.84500600" lon="-3.24652900"><ele>41.7438620544</ele><time>2007-04-30T16:13:45Z</time></trkpt>
<trkpt lat="47.84511500" lon="-3.24661900"><ele>41.9185487256</ele><time>2007-04-30T16:13:48Z</time></trkpt>
<trkpt lat="47.84519400" lon="-3.24668200"><ele>42.3722496216</ele><time>2007-04-30T16:13:51Z</time></trkpt>
<trkpt lat="47.84515800" lon="-3.24653800"><ele>41.6390227416</ele><time>2007-04-30T16:13:55Z</time></trkpt>
<trkpt lat="47.84510300" lon="-3.24640400"><ele>40.6942863024</ele><time>2007-04-30T16:13:58Z</time></trkpt>
<trkpt lat="47.84504300" lon="-3.24629600"><ele>40.0159798104</ele><time>2007-04-30T16:14:01Z</time></trkpt>
<trkpt lat="47.84495800" lon="-3.24617900"><ele>39.7782553176</ele><time>2007-04-30T16:14:05Z</time></trkpt>
<trkpt lat="47.84486700" lon="-3.24609800"><ele>39.9411584208</ele><time>2007-04-30T16:14:08Z</time></trkpt>
<trkpt lat="47.84478900" lon="-3.24600800"><ele>40.1374779672</ele><time>2007-04-30T16:14:11Z</time></trkpt>
<trkpt lat="47.84468600" lon="-3.24591000"><ele>40.0647276936</ele><time>2007-04-30T16:14:14Z</time></trkpt>
<trkpt lat="47.84459500" lon="-3.24586500"><ele>40.0089300912</ele><time>2007-04-30T16:14:16Z</time></trkpt>
<trkpt lat="47.84451100" lon="-3.24582000"><ele>39.9822235152</ele><time>2007-04-30T16:14:18Z</time></trkpt>
<trkpt lat="47.84439000" lon="-3.24574800"><ele>39.7785378672</ele><time>2007-04-30T16:14:21Z</time></trkpt>
<trkpt lat="47.84429300" lon="-3.24568500"><ele>39.4678040208</ele><time>2007-04-30T16:14:23Z</time></trkpt>
<trkpt lat="47.84420200" lon="-3.24561300"><ele>38.9651757144</ele><time>2007-04-30T16:14:25Z</time></trkpt>
<trkpt lat="47.84410500" lon="-3.24555000"><ele>38.7609825744</ele><time>2007-04-30T16:14:27Z</time></trkpt>
<trkpt lat="47.84400900" lon="-3.24548700"><ele>38.5230980616</ele><time>2007-04-30T16:14:29Z</time></trkpt>
<trkpt lat="47.84392400" lon="-3.24544200"><ele>38.3951567376</ele><time>2007-04-30T16:14:31Z</time></trkpt>
<trkpt lat="47.84380900" lon="-3.24534400"><ele>37.874088336</ele><time>2007-04-30T16:14:33Z</time></trkpt>
<trkpt lat="47.84370000" lon="-3.24527200"><ele>38.5632514992</ele><time>2007-04-30T16:14:35Z</time></trkpt>
<trkpt lat="47.84364000" lon="-3.24538900"><ele>40.0054017264</ele><time>2007-04-30T16:14:42Z</time></trkpt>
<trkpt lat="47.84359700" lon="-3.24550500"><ele>41.3610420936</ele><time>2007-04-30T16:14:46Z</time></trkpt>
<trkpt lat="47.84364000" lon="-3.24564900"><ele>42.0373000248</ele><time>2007-04-30T16:14:50Z</time></trkpt>
<trkpt lat="47.84371200" lon="-3.24575700"><ele>42.4767990696</ele><time>2007-04-30T16:14:55Z</time></trkpt>
<trkpt lat="47.84381500" lon="-3.24579300"><ele>42.3207244008</ele><time>2007-04-30T16:15:01Z</time></trkpt>
<trkpt lat="47.84391200" lon="-3.24579300"><ele>41.863071468</ele><time>2007-04-30T16:15:06Z</time></trkpt>
<trkpt lat="47.84399700" lon="-3.24582900"><ele>41.8100624808</ele><time>2007-04-30T16:15:10Z</time></trkpt>
<trkpt lat="47.84405700" lon="-3.24594500"><ele>42.585220392</ele><time>2007-04-30T16:15:16Z</time></trkpt>
<trkpt lat="47.84409900" lon="-3.24606200"><ele>43.4956817664</ele><time>2007-04-30T16:15:21Z</time></trkpt>
<trkpt lat="47.84409900" lon="-3.24620600"><ele>45.797573124</ele><time>2007-04-30T16:15:28Z</time></trkpt>
<trkpt lat="47.84411100" lon="-3.24635900"><ele>48.1928786712</ele><time>2007-04-30T16:15:32Z</time></trkpt>
<trkpt lat="47.84411100" lon="-3.24649300"><ele>50.3531264208</ele><time>2007-04-30T16:15:36Z</time></trkpt>
<trkpt lat="47.84409900" lon="-3.24664600"><ele>52.8746642784</ele><time>2007-04-30T16:15:42Z</time></trkpt>
<trkpt lat="47.84408700" lon="-3.24679900"><ele>55.0550001768</ele><time>2007-04-30T16:15:47Z</time></trkpt>
<trkpt lat="47.84408700" lon="-3.24695200"><ele>56.8675003872</ele><time>2007-04-30T16:15:52Z</time></trkpt>
<trkpt lat="47.84404500" lon="-3.24708600"><ele>58.6025009304</ele><time>2007-04-30T16:15:57Z</time></trkpt>
<trkpt lat="47.84400300" lon="-3.24720300"><ele>60.1324996992</ele><time>2007-04-30T16:16:02Z</time></trkpt>
<trkpt lat="47.84399000" lon="-3.24735600"><ele>61.987499088</ele><time>2007-04-30T16:16:07Z</time></trkpt>
<trkpt lat="47.84406900" lon="-3.24744600"><ele>62.5119513792</ele><time>2007-04-30T16:16:13Z</time></trkpt>
<trkpt lat="47.84416600" lon="-3.24750000"><ele>62.0865859104</ele><time>2007-04-30T16:16:17Z</time></trkpt>
<trkpt lat="47.84419600" lon="-3.24763400"><ele>62.6100348</ele><time>2007-04-30T16:16:22Z</time></trkpt>
<trkpt lat="47.84423200" lon="-3.24779600"><ele>63.1833916416</ele><time>2007-04-30T16:16:27Z</time></trkpt>
<trkpt lat="47.84425100" lon="-3.24794900"><ele>63.920658036</ele><time>2007-04-30T16:16:32Z</time></trkpt>
<trkpt lat="47.84426900" lon="-3.24810100"><ele>64.5911482368</ele><time>2007-04-30T16:16:37Z</time></trkpt>
<trkpt lat="47.84431100" lon="-3.24823600"><ele>64.623077256</ele><time>2007-04-30T16:16:42Z</time></trkpt>
<trkpt lat="47.84436500" lon="-3.24837100"><ele>64.5504455496</ele><time>2007-04-30T16:16:47Z</time></trkpt>
<trkpt lat="47.84439000" lon="-3.24849700"><ele>64.8485106888</ele><time>2007-04-30T16:16:50Z</time></trkpt>
<trkpt lat="47.84439000" lon="-3.24864000"><ele>65.5679703624</ele><time>2007-04-30T16:16:54Z</time></trkpt>
<trkpt lat="47.84436500" lon="-3.24876600"><ele>66.5132063688</ele><time>2007-04-30T16:16:58Z</time></trkpt>
<trkpt lat="47.84433500" lon="-3.24890100"><ele>67.516532988</ele><time>2007-04-30T16:17:02Z</time></trkpt>
<trkpt lat="47.84426300" lon="-3.24899100"><ele>68.74555974</ele><time>2007-04-30T16:17:10Z</time></trkpt>
<trkpt lat="47.84419000" lon="-3.24909900"><ele>70.0209730896</ele><time>2007-04-30T16:17:15Z</time></trkpt>
<trkpt lat="47.84411700" lon="-3.24918800"><ele>71.175003192</ele><time>2007-04-30T16:17:35Z</time></trkpt>
<trkpt lat="47.84403300" lon="-3.24914400"><ele>71.8378371216</ele><time>2007-04-30T16:18:33Z</time></trkpt>
<trkpt lat="47.84391800" lon="-3.24910800"><ele>71.626800612</ele><time>2007-04-30T16:18:37Z</time></trkpt>
<trkpt lat="47.84381500" lon="-3.24904500"><ele>71.2920838824</ele><time>2007-04-30T16:18:40Z</time></trkpt>
<trkpt lat="47.84368800" lon="-3.24900900"><ele>71.0703964416</ele><time>2007-04-30T16:18:43Z</time></trkpt>
<trkpt lat="47.84356100" lon="-3.24894600"><ele>70.6675185072</ele><time>2007-04-30T16:18:46Z</time></trkpt>
<trkpt lat="47.84347000" lon="-3.24891000"><ele>70.1059876008</ele><time>2007-04-30T16:18:48Z</time></trkpt>
<trkpt lat="47.84336200" lon="-3.24891900"><ele>69.5837935728</ele><time>2007-04-30T16:18:51Z</time></trkpt>
<trkpt lat="47.84332500" lon="-3.24908100"><ele>69.7823485224</ele><time>2007-04-30T16:18:54Z</time></trkpt>
<trkpt lat="47.84329500" lon="-3.24925100"><ele>70.0212632592</ele><time>2007-04-30T16:18:57Z</time></trkpt>
<trkpt lat="47.84326500" lon="-3.24943100"><ele>70.2994996344</ele><time>2007-04-30T16:19:00Z</time></trkpt>
<trkpt lat="47.84324100" lon="-3.24960200"><ele>70.641624528</ele><time>2007-04-30T16:19:03Z</time></trkpt>
<trkpt lat="47.84319800" lon="-3.24977200"><ele>70.9119568296</ele><time>2007-04-30T16:19:06Z</time></trkpt>
<trkpt lat="47.84317400" lon="-3.24989800"><ele>71.1680833176</ele><time>2007-04-30T16:19:08Z</time></trkpt>
<trkpt lat="47.84314400" lon="-3.25007800"><ele>71.7346650648</ele><time>2007-04-30T16:19:11Z</time></trkpt>
<trkpt lat="47.84310800" lon="-3.25024800"><ele>72.3839875152</ele><time>2007-04-30T16:19:14Z</time></trkpt>
<trkpt lat="47.84307700" lon="-3.25041900"><ele>73.0795060632</ele><time>2007-04-30T16:19:17Z</time></trkpt>
<trkpt lat="47.84304700" lon="-3.25058100"><ele>73.7594682288</ele><time>2007-04-30T16:19:20Z</time></trkpt>
<trkpt lat="47.84303500" lon="-3.25074300"><ele>74.303962644</ele><time>2007-04-30T16:19:23Z</time></trkpt>
<trkpt lat="47.84301700" lon="-3.25090400"><ele>74.7539977104</ele><time>2007-04-30T16:19:26Z</time></trkpt>
<trkpt lat="47.84302300" lon="-3.25107500"><ele>75.29886642</ele><time>2007-04-30T16:19:29Z</time></trkpt>
<trkpt lat="47.84300500" lon="-3.25121000"><ele>75.6556396968</ele><time>2007-04-30T16:19:32Z</time></trkpt>
<trkpt lat="47.84290800" lon="-3.25131700"><ele>75.4899979656</ele><time>2007-04-30T16:19:35Z</time></trkpt>
<trkpt lat="47.84283500" lon="-3.25146100"><ele>75.19999692</ele><time>2007-04-30T16:19:38Z</time></trkpt>
<trkpt lat="47.84275100" lon="-3.25150600"><ele>74.830001724</ele><time>2007-04-30T16:19:40Z</time></trkpt>
<trkpt lat="47.84264800" lon="-3.25143400"><ele>74.3600007336</ele><time>2007-04-30T16:19:42Z</time></trkpt>
<trkpt lat="47.84253900" lon="-3.25138900"><ele>73.8190154808</ele><time>2007-04-30T16:19:44Z</time></trkpt>
<trkpt lat="47.84240000" lon="-3.25129000"><ele>72.8795319648</ele><time>2007-04-30T16:19:46Z</time></trkpt>
<trkpt lat="47.84226100" lon="-3.25121000"><ele>71.8976593032</ele><time>2007-04-30T16:19:48Z</time></trkpt>
<trkpt lat="47.84211600" lon="-3.25113800"><ele>70.912773084</ele><time>2007-04-30T16:19:50Z</time></trkpt>
<trkpt lat="47.84198300" lon="-3.25106600"><ele>70.0548781272</ele><time>2007-04-30T16:19:52Z</time></trkpt>
<trkpt lat="47.84186800" lon="-3.25099400"><ele>69.3745346568</ele><time>2007-04-30T16:19:54Z</time></trkpt>
<trkpt lat="47.84177100" lon="-3.25094000"><ele>68.8267517544</ele><time>2007-04-30T16:19:56Z</time></trkpt>
<trkpt lat="47.84164400" lon="-3.25089500"><ele>68.0256578016</ele><time>2007-04-30T16:19:58Z</time></trkpt>
<trkpt lat="47.84154100" lon="-3.25081400"><ele>67.3003081728</ele><time>2007-04-30T16:20:00Z</time></trkpt>
<trkpt lat="47.84145100" lon="-3.25073400"><ele>66.6157837608</ele><time>2007-04-30T16:20:02Z</time></trkpt>
<trkpt lat="47.84135400" lon="-3.25075100"><ele>65.851997328</ele><time>2007-04-30T16:20:06Z</time></trkpt>
<trkpt lat="47.84125100" lon="-3.25076900"><ele>65.035072368</ele><time>2007-04-30T16:20:09Z</time></trkpt>
<trkpt lat="47.84114800" lon="-3.25075100"><ele>64.2261505416</ele><time>2007-04-30T16:20:11Z</time></trkpt>
<trkpt lat="47.84102700" lon="-3.25072500"><ele>63.2667769968</ele><time>2007-04-30T16:20:13Z</time></trkpt>
<trkpt lat="47.84090600" lon="-3.25068900"><ele>62.2675133616</ele><time>2007-04-30T16:20:15Z</time></trkpt>
<trkpt lat="47.84080300" lon="-3.25064400"><ele>61.3956107112</ele><time>2007-04-30T16:20:17Z</time></trkpt>
<trkpt lat="47.84070100" lon="-3.25058100"><ele>60.5405196096</ele><time>2007-04-30T16:20:19Z</time></trkpt>
<trkpt lat="47.84060400" lon="-3.25046400"><ele>59.711299932</ele><time>2007-04-30T16:20:21Z</time></trkpt>
<trkpt lat="47.84051900" lon="-3.25041900"><ele>59.080188672</ele><time>2007-04-30T16:20:23Z</time></trkpt>
<trkpt lat="47.84037400" lon="-3.25036500"><ele>58.0757102136</ele><time>2007-04-30T16:20:25Z</time></trkpt>
<trkpt lat="47.84024700" lon="-3.25033800"><ele>56.7042235992</ele><time>2007-04-30T16:20:27Z</time></trkpt>
<trkpt lat="47.84013800" lon="-3.25034700"><ele>55.5141371808</ele><time>2007-04-30T16:20:29Z</time></trkpt>
<trkpt lat="47.84001100" lon="-3.25035600"><ele>54.188823804</ele><time>2007-04-30T16:20:31Z</time></trkpt>
<trkpt lat="47.83985400" lon="-3.25034700"><ele>52.6048888464</ele><time>2007-04-30T16:20:33Z</time></trkpt>
<trkpt lat="47.83970300" lon="-3.25032900"><ele>51.2054633496</ele><time>2007-04-30T16:20:35Z</time></trkpt>
<trkpt lat="47.83957600" lon="-3.25025700"><ele>49.9445990184</ele><time>2007-04-30T16:20:37Z</time></trkpt>
<trkpt lat="47.83947300" lon="-3.25021200"><ele>48.9237976056</ele><time>2007-04-30T16:20:40Z</time></trkpt>
<trkpt lat="47.83940000" lon="-3.25029300"><ele>48.1408310232</ele><time>2007-04-30T16:20:44Z</time></trkpt>
<trkpt lat="47.83927900" lon="-3.25030200"><ele>46.55448144</ele><time>2007-04-30T16:20:46Z</time></trkpt>
<trkpt lat="47.83916400" lon="-3.25031100"><ele>45.1024742856</ele><time>2007-04-30T16:20:48Z</time></trkpt>
<trkpt lat="47.83909200" lon="-3.25047300"><ele>44.4576720192</ele><time>2007-04-30T16:20:52Z</time></trkpt>
<trkpt lat="47.83902500" lon="-3.25063500"><ele>43.9660073688</ele><time>2007-04-30T16:20:55Z</time></trkpt>
<trkpt lat="47.83894700" lon="-3.25072500"><ele>43.3103331912</ele><time>2007-04-30T16:20:57Z</time></trkpt>
<trkpt lat="47.83889200" lon="-3.25086800"><ele>42.9854736936</ele><time>2007-04-30T16:21:00Z</time></trkpt>
<trkpt lat="47.83884400" lon="-3.25103000"><ele>43.1315003256</ele><time>2007-04-30T16:21:03Z</time></trkpt>
<trkpt lat="47.83882000" lon="-3.25115600"><ele>43.356323244</ele><time>2007-04-30T16:21:05Z</time></trkpt>
<trkpt lat="47.83878300" lon="-3.25132600"><ele>43.5408516024</ele><time>2007-04-30T16:21:08Z</time></trkpt>
<trkpt lat="47.83877700" lon="-3.25149700"><ele>44.1367493184</ele><time>2007-04-30T16:21:11Z</time></trkpt>
<trkpt lat="47.83874700" lon="-3.25167700"><ele>44.5109748336</ele><time>2007-04-30T16:21:14Z</time></trkpt>
<trkpt lat="47.83872900" lon="-3.25185600"><ele>45.012950868</ele><time>2007-04-30T16:21:17Z</time></trkpt>
<trkpt lat="47.83869900" lon="-3.25204500"><ele>45.3876570528</ele><time>2007-04-30T16:21:20Z</time></trkpt>
<trkpt lat="47.83869300" lon="-3.25222500"><ele>45.9918745896</ele><time>2007-04-30T16:21:23Z</time></trkpt>
<trkpt lat="47.83876500" lon="-3.25232400"><ele>47.488124988</ele><time>2007-04-30T16:21:26Z</time></trkpt>
<trkpt lat="47.83885000" lon="-3.25238600"><ele>49.1274984936</ele><time>2007-04-30T16:21:30Z</time></trkpt>
<trkpt lat="47.83890400" lon="-3.25253900"><ele>50.4674986584</ele><time>2007-04-30T16:21:34Z</time></trkpt>
<trkpt lat="47.83895900" lon="-3.25265600"><ele>51.7134399816</ele><time>2007-04-30T16:21:37Z</time></trkpt>
<trkpt lat="47.83900100" lon="-3.25278200"><ele>52.7350006512</ele><time>2007-04-30T16:21:40Z</time></trkpt>
<trkpt lat="47.83901300" lon="-3.25292500"><ele>53.236610316</ele><time>2007-04-30T16:21:44Z</time></trkpt>
<trkpt lat="47.83900700" lon="-3.25309600"><ele>53.4207762672</ele><time>2007-04-30T16:21:48Z</time></trkpt>
<trkpt lat="47.83900700" lon="-3.25325800"><ele>53.73899844</ele><time>2007-04-30T16:21:51Z</time></trkpt>
<trkpt lat="47.83898900" lon="-3.25339300"><ele>53.6231573712</ele><time>2007-04-30T16:21:53Z</time></trkpt>
<trkpt lat="47.83897700" lon="-3.25356300"><ele>53.6683768896</ele><time>2007-04-30T16:21:56Z</time></trkpt>
<trkpt lat="47.83895300" lon="-3.25369800"><ele>53.4287336808</ele><time>2007-04-30T16:21:58Z</time></trkpt>
<trkpt lat="47.83888600" lon="-3.25386900"><ele>52.3993911624</ele><time>2007-04-30T16:22:00Z</time></trkpt>
<trkpt lat="47.83880800" lon="-3.25401200"><ele>51.0905379</ele><time>2007-04-30T16:22:02Z</time></trkpt>
<trkpt lat="47.83875300" lon="-3.25417400"><ele>50.2776948216</ele><time>2007-04-30T16:22:04Z</time></trkpt>
<trkpt lat="47.83869900" lon="-3.25428200"><ele>49.2250061472</ele><time>2007-04-30T16:22:06Z</time></trkpt>
<trkpt lat="47.83872300" lon="-3.25440800"><ele>49.7789420472</ele><time>2007-04-30T16:22:08Z</time></trkpt>
<trkpt lat="47.83879600" lon="-3.25455100"><ele>51.2182692168</ele><time>2007-04-30T16:22:11Z</time></trkpt>
<trkpt lat="47.83885600" lon="-3.25465000"><ele>52.2490769088</ele><time>2007-04-30T16:22:13Z</time></trkpt>
<trkpt lat="47.83888600" lon="-3.25477600"><ele>52.6973837592</ele><time>2007-04-30T16:22:15Z</time></trkpt>
<trkpt lat="47.83896500" lon="-3.25493800"><ele>53.7079161552</ele><time>2007-04-30T16:22:18Z</time></trkpt>
<trkpt lat="47.83900700" lon="-3.25509900"><ele>53.5437392928</ele><time>2007-04-30T16:22:21Z</time></trkpt>
<trkpt lat="47.83904400" lon="-3.25527000"><ele>53.2766799336</ele><time>2007-04-30T16:22:24Z</time></trkpt>
<trkpt lat="47.83909200" lon="-3.25539600"><ele>53.530353696</ele><time>2007-04-30T16:22:27Z</time></trkpt>
<trkpt lat="47.83918300" lon="-3.25542300"><ele>55.2171248208</ele><time>2007-04-30T16:22:45Z</time></trkpt>
<trkpt lat="47.83928500" lon="-3.25540500"><ele>56.8940237784</ele><time>2007-04-30T16:22:51Z</time></trkpt>
<trkpt lat="47.83938200" lon="-3.25544100"><ele>57.906249948</ele><time>2007-04-30T16:22:55Z</time></trkpt>
<trkpt lat="47.83947900" lon="-3.25545900"><ele>59.049713244</ele><time>2007-04-30T16:23:00Z</time></trkpt>
<trkpt lat="47.83958200" lon="-3.25545000"><ele>60.441524532</ele><time>2007-04-30T16:23:04Z</time></trkpt>
<trkpt lat="47.83967900" lon="-3.25547700"><ele>61.3877526624</ele><time>2007-04-30T16:23:07Z</time></trkpt>
<trkpt lat="47.83978100" lon="-3.25550400"><ele>61.4259377016</ele><time>2007-04-30T16:23:11Z</time></trkpt>
<trkpt lat="47.83987200" lon="-3.25550400"><ele>61.700851452</ele><time>2007-04-30T16:23:15Z</time></trkpt>
<trkpt lat="47.83996300" lon="-3.25548600"><ele>62.2304268216</ele><time>2007-04-30T16:23:19Z</time></trkpt>
<trkpt lat="47.84005400" lon="-3.25546800"><ele>62.8260002304</ele><time>2007-04-30T16:23:23Z</time></trkpt>
<trkpt lat="47.84016200" lon="-3.25544100"><ele>63.6360397584</ele><time>2007-04-30T16:23:28Z</time></trkpt>
<trkpt lat="47.84026500" lon="-3.25547700"><ele>63.4210015296</ele><time>2007-04-30T16:23:33Z</time></trkpt>
<trkpt lat="47.84036200" lon="-3.25548600"><ele>63.5849379048</ele><time>2007-04-30T16:23:38Z</time></trkpt>
<trkpt lat="47.84046500" lon="-3.25549500"><ele>63.7668647952</ele><time>2007-04-30T16:23:42Z</time></trkpt>
<trkpt lat="47.84056200" lon="-3.25549500"><ele>64.0501023288</ele><time>2007-04-30T16:23:47Z</time></trkpt>
<trkpt lat="47.84065800" lon="-3.25549500"><ele>64.3267516104</ele><time>2007-04-30T16:23:51Z</time></trkpt>
<trkpt lat="47.84077300" lon="-3.25548600"><ele>64.7608489896</ele><time>2007-04-30T16:23:56Z</time></trkpt>
<trkpt lat="47.84087600" lon="-3.25550400"><ele>64.813522392</ele><time>2007-04-30T16:24:00Z</time></trkpt>
<trkpt lat="47.84096700" lon="-3.25549500"><ele>65.1639710688</ele><time>2007-04-30T16:24:03Z</time></trkpt>
<trkpt lat="47.84108800" lon="-3.25551300"><ele>65.4824980416</ele><time>2007-04-30T16:24:06Z</time></trkpt>
<trkpt lat="47.84119700" lon="-3.25550400"><ele>66.2075041608</ele><time>2007-04-30T16:24:09Z</time></trkpt>
<trkpt lat="47.84129300" lon="-3.25551300"><ele>66.6500015232</ele><time>2007-04-30T16:24:12Z</time></trkpt>
<trkpt lat="47.84141400" lon="-3.25551300"><ele>67.3450013016</ele><time>2007-04-30T16:24:15Z</time></trkpt>
<trkpt lat="47.84151100" lon="-3.25551300"><ele>67.948471164</ele><time>2007-04-30T16:24:17Z</time></trkpt>
<trkpt lat="47.84162600" lon="-3.25551300"><ele>68.7339553944</ele><time>2007-04-30T16:24:20Z</time></trkpt>
<trkpt lat="47.84175300" lon="-3.25550400"><ele>69.6855467856</ele><time>2007-04-30T16:24:24Z</time></trkpt>
<trkpt lat="47.84184400" lon="-3.25552200"><ele>70.0929260064</ele><time>2007-04-30T16:24:27Z</time></trkpt>
<trkpt lat="47.84194600" lon="-3.25555700"><ele>70.3878020232</ele><time>2007-04-30T16:24:30Z</time></trkpt>
<trkpt lat="47.84204900" lon="-3.25555700"><ele>70.969657908</ele><time>2007-04-30T16:24:33Z</time></trkpt>
<trkpt lat="47.84216400" lon="-3.25555700"><ele>71.5955427624</ele><time>2007-04-30T16:24:36Z</time></trkpt>
<trkpt lat="47.84226700" lon="-3.25554000"><ele>72.281623788</ele><time>2007-04-30T16:24:39Z</time></trkpt>
<trkpt lat="47.84237600" lon="-3.25554000"><ele>72.8350448808</ele><time>2007-04-30T16:24:42Z</time></trkpt>
<trkpt lat="47.84248500" lon="-3.25554000"><ele>73.5022734168</ele><time>2007-04-30T16:24:45Z</time></trkpt>
<trkpt lat="47.84257500" lon="-3.25554800"><ele>73.998260436</ele><time>2007-04-30T16:24:48Z</time></trkpt>
<trkpt lat="47.84267200" lon="-3.25555700"><ele>74.5389097992</ele><time>2007-04-30T16:24:51Z</time></trkpt>
<trkpt lat="47.84278100" lon="-3.25556600"><ele>75.1347273528</ele><time>2007-04-30T16:24:54Z</time></trkpt>
<trkpt lat="47.84287200" lon="-3.25556600"><ele>75.7425003816</ele><time>2007-04-30T16:24:57Z</time></trkpt>
<trkpt lat="47.84298100" lon="-3.25560200"><ele>76.3462524888</ele><time>2007-04-30T16:25:01Z</time></trkpt>
<trkpt lat="47.84298100" lon="-3.25576400"><ele>75.4237518192</ele><time>2007-04-30T16:25:06Z</time></trkpt>
<trkpt lat="47.84297500" lon="-3.25592600"><ele>74.4674988168</ele><time>2007-04-30T16:25:09Z</time></trkpt>
<trkpt lat="47.84296200" lon="-3.25607000"><ele>74.4757384752</ele><time>2007-04-30T16:25:12Z</time></trkpt>
<trkpt lat="47.84293800" lon="-3.25624000"><ele>75.0618362616</ele><time>2007-04-30T16:25:16Z</time></trkpt>
<trkpt lat="47.84295000" lon="-3.25637500"><ele>75.6909791232</ele><time>2007-04-30T16:25:20Z</time></trkpt>
<trkpt lat="47.84293200" lon="-3.25652800"><ele>76.254562248</ele><time>2007-04-30T16:25:25Z</time></trkpt>
<trkpt lat="47.84292600" lon="-3.25668000"><ele>76.87687698</ele><time>2007-04-30T16:25:30Z</time></trkpt>
<trkpt lat="47.84292000" lon="-3.25682400"><ele>77.5346908536</ele><time>2007-04-30T16:25:34Z</time></trkpt>
<trkpt lat="47.84292600" lon="-3.25698600"><ele>78.3174971112</ele><time>2007-04-30T16:25:38Z</time></trkpt>
<trkpt lat="47.84291400" lon="-3.25713900"><ele>78.9893723232</ele><time>2007-04-30T16:25:42Z</time></trkpt>
<trkpt lat="47.84290800" lon="-3.25729100"><ele>79.672813476</ele><time>2007-04-30T16:25:46Z</time></trkpt>
<trkpt lat="47.84289600" lon="-3.25745300"><ele>80.089942944</ele><time>2007-04-30T16:25:50Z</time></trkpt>
<trkpt lat="47.84289600" lon="-3.25761500"><ele>80.5150679256</ele><time>2007-04-30T16:25:54Z</time></trkpt>
<trkpt lat="47.84289000" lon="-3.25775800"><ele>80.8607102112</ele><time>2007-04-30T16:25:58Z</time></trkpt>
<trkpt lat="47.84287800" lon="-3.25792900"><ele>81.2640685104</ele><time>2007-04-30T16:26:03Z</time></trkpt>
<trkpt lat="47.84287800" lon="-3.25808200"><ele>81.5568770688</ele><time>2007-04-30T16:26:06Z</time></trkpt>
<trkpt lat="47.84287800" lon="-3.25823400"><ele>81.7987517184</ele><time>2007-04-30T16:26:09Z</time></trkpt>
<trkpt lat="47.84287200" lon="-3.25837800"><ele>82.0149993936</ele><time>2007-04-30T16:26:12Z</time></trkpt>
<trkpt lat="47.84287800" lon="-3.25854000"><ele>82.2859345896</ele><time>2007-04-30T16:26:15Z</time></trkpt>
<trkpt lat="47.84289000" lon="-3.25870200"><ele>82.4899978848</ele><time>2007-04-30T16:26:18Z</time></trkpt>
<trkpt lat="47.84290200" lon="-3.25885400"><ele>82.5350037384</ele><time>2007-04-30T16:26:21Z</time></trkpt>
<trkpt lat="47.84292000" lon="-3.25904300"><ele>82.59500118</ele><time>2007-04-30T16:26:24Z</time></trkpt>
<trkpt lat="47.84295000" lon="-3.25923200"><ele>82.6800004512</ele><time>2007-04-30T16:26:27Z</time></trkpt>
<trkpt lat="47.84297500" lon="-3.25936600"><ele>82.6909409424</ele><time>2007-04-30T16:26:29Z</time></trkpt>
<trkpt lat="47.84301700" lon="-3.25954600"><ele>82.5437469264</ele><time>2007-04-30T16:26:32Z</time></trkpt>
<trkpt lat="47.84305900" lon="-3.25969000"><ele>82.4406279048</ele><time>2007-04-30T16:26:35Z</time></trkpt>
<trkpt lat="47.84296200" lon="-3.25976200"><ele>82.1125030848</ele><time>2007-04-30T16:26:44Z</time></trkpt>
<trkpt lat="47.84283500" lon="-3.25975300"><ele>81.8209381104</ele><time>2007-04-30T16:26:47Z</time></trkpt>
<trkpt lat="47.84272700" lon="-3.25974400"><ele>81.5771865024</ele><time>2007-04-30T16:26:49Z</time></trkpt>
<trkpt lat="47.84261800" lon="-3.25976200"><ele>81.2931214368</ele><time>2007-04-30T16:26:51Z</time></trkpt>
<trkpt lat="47.84251500" lon="-3.25984200"><ele>80.9028472872</ele><time>2007-04-30T16:26:54Z</time></trkpt>
<trkpt lat="47.84239400" lon="-3.25992300"><ele>80.5289381544</ele><time>2007-04-30T16:26:57Z</time></trkpt>
<trkpt lat="47.84230900" lon="-3.25996800"><ele>80.2081221336</ele><time>2007-04-30T16:26:59Z</time></trkpt>
<trkpt lat="47.84220600" lon="-3.26003100"><ele>79.7675017296</ele><time>2007-04-30T16:27:01Z</time></trkpt>
<trkpt lat="47.84208600" lon="-3.26008500"><ele>79.2027740808</ele><time>2007-04-30T16:27:03Z</time></trkpt>
<trkpt lat="47.84194000" lon="-3.26011200"><ele>78.552894456</ele><time>2007-04-30T16:27:05Z</time></trkpt>
<trkpt lat="47.84182500" lon="-3.26016600"><ele>78.0102233544</ele><time>2007-04-30T16:27:07Z</time></trkpt>
<trkpt lat="47.84172300" lon="-3.26022900"><ele>77.5485763224</ele><time>2007-04-30T16:27:09Z</time></trkpt>
<trkpt lat="47.84161400" lon="-3.26030100"><ele>76.9893722592</ele><time>2007-04-30T16:27:11Z</time></trkpt>
<trkpt lat="47.84152900" lon="-3.26039000"><ele>76.4831238432</ele><time>2007-04-30T16:27:13Z</time></trkpt>
<trkpt lat="47.84142600" lon="-3.26046200"><ele>75.9193724688</ele><time>2007-04-30T16:27:15Z</time></trkpt>
<trkpt lat="47.84133000" lon="-3.26051600"><ele>75.3686445888</ele><time>2007-04-30T16:27:17Z</time></trkpt>
<trkpt lat="47.84122100" lon="-3.26061500"><ele>74.5858688112</ele><time>2007-04-30T16:27:19Z</time></trkpt>
<trkpt lat="47.84114200" lon="-3.26075000"><ele>73.7574157056</ele><time>2007-04-30T16:27:21Z</time></trkpt>
<trkpt lat="47.84108800" lon="-3.26086700"><ele>73.0871352072</ele><time>2007-04-30T16:27:23Z</time></trkpt>
<trkpt lat="47.84100900" lon="-3.26080400"><ele>72.8195342184</ele><time>2007-04-30T16:27:28Z</time></trkpt>
<trkpt lat="47.84094900" lon="-3.26070500"><ele>72.8144379624</ele><time>2007-04-30T16:27:30Z</time></trkpt>
<trkpt lat="47.84087000" lon="-3.26056100"><ele>72.9273910512</ele><time>2007-04-30T16:27:33Z</time></trkpt>
<trkpt lat="47.84078500" lon="-3.26044400"><ele>72.9641417016</ele><time>2007-04-30T16:27:37Z</time></trkpt>
<trkpt lat="47.84068200" lon="-3.26040800"><ele>72.34719084</ele><time>2007-04-30T16:27:42Z</time></trkpt>
<trkpt lat="47.84064000" lon="-3.26027400"><ele>72.2256241032</ele><time>2007-04-30T16:27:46Z</time></trkpt>
<trkpt lat="47.84056200" lon="-3.26014800"><ele>71.8315658616</ele><time>2007-04-30T16:27:49Z</time></trkpt>
<trkpt lat="47.84050700" lon="-3.26003100"><ele>71.5924987248</ele><time>2007-04-30T16:27:52Z</time></trkpt>
<trkpt lat="47.84048300" lon="-3.25990500"><ele>71.5818785784</ele><time>2007-04-30T16:27:54Z</time></trkpt>
<trkpt lat="47.84043500" lon="-3.25977100"><ele>71.4143754336</ele><time>2007-04-30T16:27:56Z</time></trkpt>
<trkpt lat="47.84038000" lon="-3.25963600"><ele>71.2021864752</ele><time>2007-04-30T16:27:59Z</time></trkpt>
<trkpt lat="47.84041600" lon="-3.25951000"><ele>71.5912475208</ele><time>2007-04-30T16:28:05Z</time></trkpt>
<trkpt lat="47.84044700" lon="-3.25938400"><ele>71.9490586416</ele><time>2007-04-30T16:28:08Z</time></trkpt>
<trkpt lat="47.84039800" lon="-3.25926800"><ele>71.7546843288</ele><time>2007-04-30T16:28:11Z</time></trkpt>
<trkpt lat="47.84031400" lon="-3.25938400"><ele>70.8931275048</ele><time>2007-04-30T16:28:17Z</time></trkpt>
<trkpt lat="47.84030800" lon="-3.25953700"><ele>70.683746364</ele><time>2007-04-30T16:28:21Z</time></trkpt>
<trkpt lat="47.84028900" lon="-3.25970800"><ele>70.3253097936</ele><time>2007-04-30T16:28:25Z</time></trkpt>
<trkpt lat="47.84022900" lon="-3.25982400"><ele>69.6624984192</ele><time>2007-04-30T16:28:28Z</time></trkpt>
<trkpt lat="47.84015600" lon="-3.25991400"><ele>68.896560708</ele><time>2007-04-30T16:28:30Z</time></trkpt>
<trkpt lat="47.84008400" lon="-3.26004900"><ele>68.1037521336</ele><time>2007-04-30T16:28:32Z</time></trkpt>
<trkpt lat="47.83997500" lon="-3.26018400"><ele>66.9846877728</ele><time>2007-04-30T16:28:34Z</time></trkpt>
<trkpt lat="47.83986000" lon="-3.26025600"><ele>65.8513258536</ele><time>2007-04-30T16:28:36Z</time></trkpt>
<trkpt lat="47.83970300" lon="-3.26031900"><ele>64.3799971224</ele><time>2007-04-30T16:28:38Z</time></trkpt>
<trkpt lat="47.83954500" lon="-3.26036300"><ele>62.8867188288</ele><time>2007-04-30T16:28:40Z</time></trkpt>
<trkpt lat="47.83940000" lon="-3.26042600"><ele>61.5459862296</ele><time>2007-04-30T16:28:42Z</time></trkpt>
<trkpt lat="47.83926700" lon="-3.26048000"><ele>60.3804551088</ele><time>2007-04-30T16:28:44Z</time></trkpt>
<trkpt lat="47.83911000" lon="-3.26052500"><ele>59.0796241824</ele><time>2007-04-30T16:28:46Z</time></trkpt>
<trkpt lat="47.83895300" lon="-3.26056100"><ele>57.8199997776</ele><time>2007-04-30T16:28:48Z</time></trkpt>
<trkpt lat="47.83880800" lon="-3.26056100"><ele>56.5400010168</ele><time>2007-04-30T16:28:50Z</time></trkpt>
<trkpt lat="47.83866200" lon="-3.26056100"><ele>55.2400015848</ele><time>2007-04-30T16:28:52Z</time></trkpt>
<trkpt lat="47.83849900" lon="-3.26053400"><ele>53.8081359192</ele><time>2007-04-30T16:28:54Z</time></trkpt>
<trkpt lat="47.83834800" lon="-3.26051600"><ele>52.6382903544</ele><time>2007-04-30T16:28:56Z</time></trkpt>
<trkpt lat="47.83819700" lon="-3.26050700"><ele>51.4763183832</ele><time>2007-04-30T16:28:58Z</time></trkpt>
<trkpt lat="47.83804600" lon="-3.26049800"><ele>50.303783568</ele><time>2007-04-30T16:29:00Z</time></trkpt>
<trkpt lat="47.83793700" lon="-3.26056100"><ele>49.6328123928</ele><time>2007-04-30T16:29:02Z</time></trkpt>
<trkpt lat="47.83790000" lon="-3.26072300"><ele>49.7682761808</ele><time>2007-04-30T16:29:04Z</time></trkpt>
<trkpt lat="47.83793100" lon="-3.26085800"><ele>50.2214241696</ele><time>2007-04-30T16:29:06Z</time></trkpt>
<trkpt lat="47.83795500" lon="-3.26100100"><ele>50.6030502288</ele><time>2007-04-30T16:29:08Z</time></trkpt>
<trkpt lat="47.83796100" lon="-3.26115400"><ele>50.8884506232</ele><time>2007-04-30T16:29:10Z</time></trkpt>
<trkpt lat="47.83796100" lon="-3.26133400"><ele>51.1846503864</ele><time>2007-04-30T16:29:12Z</time></trkpt>
<trkpt lat="47.83793100" lon="-3.26150400"><ele>51.1204985208</ele><time>2007-04-30T16:29:14Z</time></trkpt>
<trkpt lat="47.83789400" lon="-3.26166600"><ele>50.6840858808</ele><time>2007-04-30T16:29:16Z</time></trkpt>
<trkpt lat="47.83787000" lon="-3.26181900"><ele>50.3942985</ele><time>2007-04-30T16:29:18Z</time></trkpt>
<trkpt lat="47.83786400" lon="-3.26196200"><ele>50.2461663096</ele><time>2007-04-30T16:29:20Z</time></trkpt>
<trkpt lat="47.83785800" lon="-3.26211500"><ele>50.1030273528</ele><time>2007-04-30T16:29:23Z</time></trkpt>
<trkpt lat="47.83777300" lon="-3.26216000"><ele>49.5567971016</ele><time>2007-04-30T16:29:27Z</time></trkpt>
<trkpt lat="47.83766500" lon="-3.26216000"><ele>48.8624687976</ele><time>2007-04-30T16:29:30Z</time></trkpt>
<trkpt lat="47.83757400" lon="-3.26216000"><ele>48.2902144176</ele><time>2007-04-30T16:29:32Z</time></trkpt>
<trkpt lat="47.83747100" lon="-3.26213300"><ele>47.4124489392</ele><time>2007-04-30T16:29:34Z</time></trkpt>
<trkpt lat="47.83736200" lon="-3.26209700"><ele>46.3961296104</ele><time>2007-04-30T16:29:36Z</time></trkpt>
<trkpt lat="47.83724700" lon="-3.26205200"><ele>45.3199996824</ele><time>2007-04-30T16:29:38Z</time></trkpt>
<trkpt lat="47.83713200" lon="-3.26198000"><ele>44.2799989176</ele><time>2007-04-30T16:29:40Z</time></trkpt>
<trkpt lat="47.83701700" lon="-3.26190000"><ele>43.3733176728</ele><time>2007-04-30T16:29:42Z</time></trkpt>
<trkpt lat="47.83690300" lon="-3.26181900"><ele>42.4908216984</ele><time>2007-04-30T16:29:44Z</time></trkpt>
<trkpt lat="47.83677500" lon="-3.26172900"><ele>41.426795988</ele><time>2007-04-30T16:29:46Z</time></trkpt>
<trkpt lat="47.83664200" lon="-3.26163000"><ele>40.3871878056</ele><time>2007-04-30T16:29:48Z</time></trkpt>
<trkpt lat="47.83650900" lon="-3.26153100"><ele>39.9553108944</ele><time>2007-04-30T16:29:50Z</time></trkpt>
<trkpt lat="47.83638200" lon="-3.26144100"><ele>39.5459364528</ele><time>2007-04-30T16:29:52Z</time></trkpt>
<trkpt lat="47.83626700" lon="-3.26135200"><ele>39.166248312</ele><time>2007-04-30T16:29:54Z</time></trkpt>
<trkpt lat="47.83615900" lon="-3.26127100"><ele>39.1446114744</ele><time>2007-04-30T16:29:56Z</time></trkpt>
<trkpt lat="47.83605600" lon="-3.26119900"><ele>39.2477493936</ele><time>2007-04-30T16:29:58Z</time></trkpt>
<trkpt lat="47.83596500" lon="-3.26112700"><ele>39.2849807136</ele><time>2007-04-30T16:30:00Z</time></trkpt>
<trkpt lat="47.83588600" lon="-3.26106400"><ele>39.28622826</ele><time>2007-04-30T16:30:02Z</time></trkpt>
<trkpt lat="47.83578400" lon="-3.26101000"><ele>39.3706779768</ele><time>2007-04-30T16:30:05Z</time></trkpt>
<trkpt lat="47.83571700" lon="-3.26113600"><ele>40.1580239256</ele><time>2007-04-30T16:30:08Z</time></trkpt>
<trkpt lat="47.83569300" lon="-3.26131600"><ele>40.979381592</ele><time>2007-04-30T16:30:11Z</time></trkpt>
<trkpt lat="47.83566300" lon="-3.26147700"><ele>41.9315947752</ele><time>2007-04-30T16:30:14Z</time></trkpt>
<trkpt lat="47.83562000" lon="-3.26160300"><ele>42.849468276</ele><time>2007-04-30T16:30:17Z</time></trkpt>
<trkpt lat="47.83562600" lon="-3.26174700"><ele>43.4667815448</ele><time>2007-04-30T16:30:20Z</time></trkpt>
<trkpt lat="47.83564400" lon="-3.26189100"><ele>43.92760074</ele><time>2007-04-30T16:30:24Z</time></trkpt>
<trkpt lat="47.83559000" lon="-3.26199800"><ele>44.7168769872</ele><time>2007-04-30T16:30:27Z</time></trkpt>
<trkpt lat="47.83551700" lon="-3.26216000"><ele>45.8037489816</ele><time>2007-04-30T16:30:30Z</time></trkpt>
<trkpt lat="47.83549300" lon="-3.26228600"><ele>46.3474999896</ele><time>2007-04-30T16:30:32Z</time></trkpt>
<trkpt lat="47.83548100" lon="-3.26246600"><ele>46.929374772</ele><time>2007-04-30T16:30:35Z</time></trkpt>
<trkpt lat="47.83542100" lon="-3.26258200"><ele>47.7743757744</ele><time>2007-04-30T16:30:39Z</time></trkpt>
<trkpt lat="47.83536600" lon="-3.26271700"><ele>48.6150016776</ele><time>2007-04-30T16:30:43Z</time></trkpt>
<trkpt lat="47.83530600" lon="-3.26283400"><ele>49.4637489768</ele><time>2007-04-30T16:30:46Z</time></trkpt>
<trkpt lat="47.83528800" lon="-3.26296900"><ele>49.9724998008</ele><time>2007-04-30T16:30:49Z</time></trkpt>
<trkpt lat="47.83525700" lon="-3.26312100"><ele>50.6562500208</ele><time>2007-04-30T16:30:53Z</time></trkpt>
<trkpt lat="47.83528200" lon="-3.26327400"><ele>50.6112822672</ele><time>2007-04-30T16:30:57Z</time></trkpt>
<trkpt lat="47.83534800" lon="-3.26340900"><ele>50.0205765144</ele><time>2007-04-30T16:31:01Z</time></trkpt>
<trkpt lat="47.83541500" lon="-3.26355200"><ele>49.51542294</ele><time>2007-04-30T16:31:04Z</time></trkpt>
<trkpt lat="47.83546900" lon="-3.26368700"><ele>49.1520004512</ele><time>2007-04-30T16:31:07Z</time></trkpt>
<trkpt lat="47.83545700" lon="-3.26383100"><ele>49.3042831032</ele><time>2007-04-30T16:31:10Z</time></trkpt>
<trkpt lat="47.83536600" lon="-3.26393000"><ele>49.8469773696</ele><time>2007-04-30T16:31:13Z</time></trkpt>
<trkpt lat="47.83528200" lon="-3.26398400"><ele>50.2072372536</ele><time>2007-04-30T16:31:16Z</time></trkpt>
<trkpt lat="47.83519100" lon="-3.26396600"><ele>50.6787491376</ele><time>2007-04-30T16:31:21Z</time></trkpt>
<trkpt lat="47.83509400" lon="-3.26394800"><ele>50.7012482544</ele><time>2007-04-30T16:31:27Z</time></trkpt>
<trkpt lat="47.83499100" lon="-3.26393000"><ele>50.7224998248</ele><time>2007-04-30T16:31:31Z</time></trkpt>
<trkpt lat="47.83488200" lon="-3.26393900"><ele>50.6612511792</ele><time>2007-04-30T16:31:35Z</time></trkpt>
<trkpt lat="47.83479200" lon="-3.26392100"><ele>50.6862487416</ele><time>2007-04-30T16:31:38Z</time></trkpt>
<trkpt lat="47.83468900" lon="-3.26391200"><ele>50.7037811424</ele><time>2007-04-30T16:31:41Z</time></trkpt>
<trkpt lat="47.83458600" lon="-3.26387600"><ele>50.802055368</ele><time>2007-04-30T16:31:44Z</time></trkpt>
<trkpt lat="47.83457400" lon="-3.26405600"><ele>50.3656082856</ele><time>2007-04-30T16:31:49Z</time></trkpt>
<trkpt lat="47.83454400" lon="-3.26424400"><ele>49.9348527336</ele><time>2007-04-30T16:31:52Z</time></trkpt>
<trkpt lat="47.83451300" lon="-3.26438800"><ele>49.6388663304</ele><time>2007-04-30T16:31:55Z</time></trkpt>
<trkpt lat="47.83451900" lon="-3.26453200"><ele>49.178814012</ele><time>2007-04-30T16:31:58Z</time></trkpt>
<trkpt lat="47.83445300" lon="-3.26467500"><ele>48.7149849168</ele><time>2007-04-30T16:32:01Z</time></trkpt>
<trkpt lat="47.83442300" lon="-3.26481000"><ele>48.2069741472</ele><time>2007-04-30T16:32:03Z</time></trkpt>
<trkpt lat="47.83436800" lon="-3.26491800"><ele>47.7897645168</ele><time>2007-04-30T16:32:05Z</time></trkpt>
<trkpt lat="47.83427100" lon="-3.26500800"><ele>47.4053879424</ele><time>2007-04-30T16:32:08Z</time></trkpt>
<trkpt lat="47.83415100" lon="-3.26503500"><ele>47.6734391208</ele><time>2007-04-30T16:32:11Z</time></trkpt>
<trkpt lat="47.83405400" lon="-3.26505300"><ele>47.9668770912</ele><time>2007-04-30T16:32:13Z</time></trkpt>
<trkpt lat="47.83393900" lon="-3.26499900"><ele>48.6843756816</ele><time>2007-04-30T16:32:16Z</time></trkpt>
<trkpt lat="47.83386600" lon="-3.26489100"><ele>49.473438264</ele><time>2007-04-30T16:32:19Z</time></trkpt>
<trkpt lat="47.83380000" lon="-3.26480100"><ele>50.1756249216</ele><time>2007-04-30T16:32:22Z</time></trkpt>
<trkpt lat="47.83372100" lon="-3.26471100"><ele>51.0962486328</ele><time>2007-04-30T16:32:25Z</time></trkpt>
<trkpt lat="47.83364200" lon="-3.26463000"><ele>51.976562544</ele><time>2007-04-30T16:32:28Z</time></trkpt>
<trkpt lat="47.83357600" lon="-3.26454100"><ele>52.8090630888</ele><time>2007-04-30T16:32:31Z</time></trkpt>
<trkpt lat="47.83348500" lon="-3.26442400"><ele>53.9350012992</ele><time>2007-04-30T16:32:35Z</time></trkpt>
<trkpt lat="47.83340700" lon="-3.26435200"><ele>54.7609367568</ele><time>2007-04-30T16:32:38Z</time></trkpt>
<trkpt lat="47.83332200" lon="-3.26429800"><ele>55.3574980224</ele><time>2007-04-30T16:32:41Z</time></trkpt>
<trkpt lat="47.83321900" lon="-3.26425300"><ele>56.0115622464</ele><time>2007-04-30T16:32:45Z</time></trkpt>
<trkpt lat="47.83313400" lon="-3.26428900"><ele>56.6337507912</ele><time>2007-04-30T16:32:51Z</time></trkpt>
<trkpt lat="47.83311600" lon="-3.26442400"><ele>56.119094772</ele><time>2007-04-30T16:32:55Z</time></trkpt>
<trkpt lat="47.83303200" lon="-3.26455000"><ele>55.8568762464</ele><time>2007-04-30T16:32:58Z</time></trkpt>
<trkpt lat="47.83295300" lon="-3.26471100"><ele>55.2752532288</ele><time>2007-04-30T16:33:00Z</time></trkpt>
<trkpt lat="47.83290400" lon="-3.26488200"><ele>54.4362488616</ele><time>2007-04-30T16:33:02Z</time></trkpt>
<trkpt lat="47.83288600" lon="-3.26508900"><ele>53.0603143008</ele><time>2007-04-30T16:33:04Z</time></trkpt>
<trkpt lat="47.83287400" lon="-3.26525900"><ele>51.812488704</ele><time>2007-04-30T16:33:06Z</time></trkpt>
<trkpt lat="47.83287400" lon="-3.26543000"><ele>50.460979596</ele><time>2007-04-30T16:33:08Z</time></trkpt>
<trkpt lat="47.83287400" lon="-3.26556500"><ele>49.41031266</ele><time>2007-04-30T16:33:10Z</time></trkpt>
<trkpt lat="47.83287400" lon="-3.26575300"><ele>48.365226612</ele><time>2007-04-30T16:33:13Z</time></trkpt>
<trkpt lat="47.83283200" lon="-3.26587900"><ele>47.9687766048</ele><time>2007-04-30T16:33:16Z</time></trkpt>
<trkpt lat="47.83275300" lon="-3.26596000"><ele>47.9695014192</ele><time>2007-04-30T16:33:18Z</time></trkpt>
<trkpt lat="47.83264400" lon="-3.26604100"><ele>48.0739021248</ele><time>2007-04-30T16:33:20Z</time></trkpt>
<trkpt lat="47.83255400" lon="-3.26613100"><ele>47.9757156816</ele><time>2007-04-30T16:33:22Z</time></trkpt>
<trkpt lat="47.83246300" lon="-3.26625600"><ele>47.6327894688</ele><time>2007-04-30T16:33:25Z</time></trkpt>
<trkpt lat="47.83237800" lon="-3.26634600"><ele>47.5539703224</ele><time>2007-04-30T16:33:27Z</time></trkpt>
<trkpt lat="47.83230600" lon="-3.26645400"><ele>47.5319482176</ele><time>2007-04-30T16:33:29Z</time></trkpt>
<trkpt lat="47.83222700" lon="-3.26658900"><ele>47.2859612064</ele><time>2007-04-30T16:33:31Z</time></trkpt>
<trkpt lat="47.83215400" lon="-3.26667000"><ele>47.2127647056</ele><time>2007-04-30T16:33:33Z</time></trkpt>
<trkpt lat="47.83204600" lon="-3.26668800"><ele>47.6382636768</ele><time>2007-04-30T16:33:36Z</time></trkpt>
<trkpt lat="47.83195500" lon="-3.26674100"><ele>47.698142856</ele><time>2007-04-30T16:33:39Z</time></trkpt>
<trkpt lat="47.83187600" lon="-3.26682200"><ele>47.4744528792</ele><time>2007-04-30T16:33:43Z</time></trkpt>
<trkpt lat="47.83194300" lon="-3.26693000"><ele>46.72781358</ele><time>2007-04-30T16:33:48Z</time></trkpt>
<trkpt lat="47.83200900" lon="-3.26703800"><ele>46.2568741104</ele><time>2007-04-30T16:33:51Z</time></trkpt>
<trkpt lat="47.83204600" lon="-3.26718200"><ele>45.8578110528</ele><time>2007-04-30T16:33:54Z</time></trkpt>
<trkpt lat="47.83204600" lon="-3.26731600"><ele>45.6274986864</ele><time>2007-04-30T16:33:57Z</time></trkpt>
<trkpt lat="47.83204000" lon="-3.26746000"><ele>45.411563736</ele><time>2007-04-30T16:34:01Z</time></trkpt>
<trkpt lat="47.83210600" lon="-3.26755000"><ele>44.9762114952</ele><time>2007-04-30T16:34:04Z</time></trkpt>
<trkpt lat="47.83219100" lon="-3.26764000"><ele>44.862670752</ele><time>2007-04-30T16:34:07Z</time></trkpt>
<trkpt lat="47.83227500" lon="-3.26775700"><ele>44.7749977752</ele><time>2007-04-30T16:34:10Z</time></trkpt>
<trkpt lat="47.83239000" lon="-3.26787300"><ele>44.5410881592</ele><time>2007-04-30T16:34:13Z</time></trkpt>
<trkpt lat="47.83251700" lon="-3.26801700"><ele>44.1914215992</ele><time>2007-04-30T16:34:15Z</time></trkpt>
<trkpt lat="47.83257800" lon="-3.26813400"><ele>43.9877624688</ele><time>2007-04-30T16:34:16Z</time></trkpt>
<trkpt lat="47.83262600" lon="-3.26826900"><ele>43.7618142288</ele><time>2007-04-30T16:34:19Z</time></trkpt>
<trkpt lat="47.83265600" lon="-3.26839400"><ele>43.7625158784</ele><time>2007-04-30T16:34:22Z</time></trkpt>
<trkpt lat="47.83268700" lon="-3.26852900"><ele>43.728275256</ele><time>2007-04-30T16:34:25Z</time></trkpt>
<trkpt lat="47.83272900" lon="-3.26865500"><ele>43.5224419872</ele><time>2007-04-30T16:34:27Z</time></trkpt>
<trkpt lat="47.83277700" lon="-3.26879900"><ele>43.4209405392</ele><time>2007-04-30T16:34:29Z</time></trkpt>
<trkpt lat="47.83283800" lon="-3.26896900"><ele>43.1283685056</ele><time>2007-04-30T16:34:32Z</time></trkpt>
<trkpt lat="47.83289800" lon="-3.26913100"><ele>42.5752256952</ele><time>2007-04-30T16:34:34Z</time></trkpt>
<trkpt lat="47.83295300" lon="-3.26924800"><ele>42.042484368</ele><time>2007-04-30T16:34:36Z</time></trkpt>
<trkpt lat="47.83300100" lon="-3.26936500"><ele>41.5358391024</ele><time>2007-04-30T16:34:38Z</time></trkpt>
<trkpt lat="47.83305000" lon="-3.26954400"><ele>40.8586311096</ele><time>2007-04-30T16:34:41Z</time></trkpt>
<trkpt lat="47.83307400" lon="-3.26967000"><ele>40.4617613928</ele><time>2007-04-30T16:34:43Z</time></trkpt>
<trkpt lat="47.83312200" lon="-3.26983200"><ele>40.0000000608</ele><time>2007-04-30T16:34:46Z</time></trkpt>
<trkpt lat="47.83317700" lon="-3.26995700"><ele>40.0000000608</ele><time>2007-04-30T16:34:48Z</time></trkpt>
<trkpt lat="47.83324300" lon="-3.27004700"><ele>40.0000000608</ele><time>2007-04-30T16:34:50Z</time></trkpt>
<trkpt lat="47.83331000" lon="-3.27013700"><ele>40.0000000608</ele><time>2007-04-30T16:34:52Z</time></trkpt>
<trkpt lat="47.83334000" lon="-3.27030800"><ele>40.0000000608</ele><time>2007-04-30T16:34:55Z</time></trkpt>
<trkpt lat="47.83325500" lon="-3.27037100"><ele>40.0214308536</ele><time>2007-04-30T16:34:59Z</time></trkpt>
<trkpt lat="47.83315900" lon="-3.27038900"><ele>40.0642814664</ele><time>2007-04-30T16:35:01Z</time></trkpt>
<trkpt lat="47.83306200" lon="-3.27039800"><ele>40.3921240416</ele><time>2007-04-30T16:35:03Z</time></trkpt>
<trkpt lat="47.83295900" lon="-3.27036200"><ele>41.5025482368</ele><time>2007-04-30T16:35:05Z</time></trkpt>
<trkpt lat="47.83282600" lon="-3.27031700"><ele>42.9710197728</ele><time>2007-04-30T16:35:08Z</time></trkpt>
<trkpt lat="47.83271700" lon="-3.27032600"><ele>44.1402435456</ele><time>2007-04-30T16:35:11Z</time></trkpt>
<trkpt lat="47.83260800" lon="-3.27034400"><ele>45.264671472</ele><time>2007-04-30T16:35:14Z</time></trkpt>
<trkpt lat="47.83248700" lon="-3.27038000"><ele>46.416500004</ele><time>2007-04-30T16:35:18Z</time></trkpt>
<trkpt lat="47.83237200" lon="-3.27037100"><ele>47.5944861672</ele><time>2007-04-30T16:35:21Z</time></trkpt>
<trkpt lat="47.83227500" lon="-3.27038900"><ele>48.4842452208</ele><time>2007-04-30T16:35:24Z</time></trkpt>
<trkpt lat="47.83216100" lon="-3.27037100"><ele>49.6630363608</ele><time>2007-04-30T16:35:27Z</time></trkpt>
<trkpt lat="47.83204000" lon="-3.27038900"><ele>50.640029784</ele><time>2007-04-30T16:35:30Z</time></trkpt>
<trkpt lat="47.83192500" lon="-3.27039800"><ele>51.5713120464</ele><time>2007-04-30T16:35:33Z</time></trkpt>
<trkpt lat="47.83182800" lon="-3.27038900"><ele>52.4508743208</ele><time>2007-04-30T16:35:36Z</time></trkpt>
<trkpt lat="47.83171900" lon="-3.27035300"><ele>53.5656547176</ele><time>2007-04-30T16:35:40Z</time></trkpt>
<trkpt lat="47.83162800" lon="-3.27028100"><ele>54.3920403648</ele><time>2007-04-30T16:35:44Z</time></trkpt>
<trkpt lat="47.83152500" lon="-3.27020900"><ele>55.1589927552</ele><time>2007-04-30T16:35:47Z</time></trkpt>
<trkpt lat="47.83143500" lon="-3.27011000"><ele>55.7472497448</ele><time>2007-04-30T16:35:50Z</time></trkpt>
<trkpt lat="47.83135000" lon="-3.27002000"><ele>56.0698738392</ele><time>2007-04-30T16:35:53Z</time></trkpt>
<trkpt lat="47.83125900" lon="-3.26993100"><ele>56.4171867336</ele><time>2007-04-30T16:35:56Z</time></trkpt>
<trkpt lat="47.83117500" lon="-3.26985000"><ele>56.7196885416</ele><time>2007-04-30T16:35:59Z</time></trkpt>
<trkpt lat="47.83109000" lon="-3.26978700"><ele>56.9953118664</ele><time>2007-04-30T16:36:02Z</time></trkpt>
<trkpt lat="47.83099900" lon="-3.26967900"><ele>57.357189324</ele><time>2007-04-30T16:36:05Z</time></trkpt>
<trkpt lat="47.83090200" lon="-3.26957100"><ele>57.7281226944</ele><time>2007-04-30T16:36:08Z</time></trkpt>
<trkpt lat="47.83080600" lon="-3.26951700"><ele>58.0137480312</ele><time>2007-04-30T16:36:11Z</time></trkpt>
<trkpt lat="47.83071500" lon="-3.26942700"><ele>58.3437501144</ele><time>2007-04-30T16:36:14Z</time></trkpt>
<trkpt lat="47.83062400" lon="-3.26937400"><ele>58.5638580816</ele><time>2007-04-30T16:36:17Z</time></trkpt>
<trkpt lat="47.83052100" lon="-3.26932000"><ele>58.7959785216</ele><time>2007-04-30T16:36:20Z</time></trkpt>
<trkpt lat="47.83041200" lon="-3.26923000"><ele>59.0792998752</ele><time>2007-04-30T16:36:23Z</time></trkpt>
<trkpt lat="47.83039400" lon="-3.26908600"><ele>59.1718636728</ele><time>2007-04-30T16:36:26Z</time></trkpt>
<trkpt lat="47.83044300" lon="-3.26895100"><ele>59.041038636</ele><time>2007-04-30T16:36:29Z</time></trkpt>
<trkpt lat="47.83047300" lon="-3.26879900"><ele>58.953163272</ele><time>2007-04-30T16:36:32Z</time></trkpt>
<trkpt lat="47.83050900" lon="-3.26866400"><ele>58.6514929584</ele><time>2007-04-30T16:36:35Z</time></trkpt>
<trkpt lat="47.83052700" lon="-3.26851100"><ele>58.109722236</ele><time>2007-04-30T16:36:38Z</time></trkpt>
<trkpt lat="47.83052700" lon="-3.26833200"><ele>57.596210436</ele><time>2007-04-30T16:36:41Z</time></trkpt>
<trkpt lat="47.83053300" lon="-3.26816100"><ele>57.0728910864</ele><time>2007-04-30T16:36:44Z</time></trkpt>
<trkpt lat="47.83056400" lon="-3.26797200"><ele>56.5455246024</ele><time>2007-04-30T16:36:47Z</time></trkpt>
<trkpt lat="47.83057600" lon="-3.26778400"><ele>56.4473686392</ele><time>2007-04-30T16:36:50Z</time></trkpt>
<trkpt lat="47.83059400" lon="-3.26762200"><ele>56.2902945312</ele><time>2007-04-30T16:36:53Z</time></trkpt>
<trkpt lat="47.83061200" lon="-3.26747800"><ele>56.0999947848</ele><time>2007-04-30T16:36:56Z</time></trkpt>
<trkpt lat="47.83061200" lon="-3.26730700"><ele>56.4962500248</ele><time>2007-04-30T16:36:59Z</time></trkpt>
<trkpt lat="47.83060000" lon="-3.26714600"><ele>57.4374998568</ele><time>2007-04-30T16:37:02Z</time></trkpt>
<trkpt lat="47.83058800" lon="-3.26696600"><ele>58.463127168</ele><time>2007-04-30T16:37:05Z</time></trkpt>
<trkpt lat="47.83059400" lon="-3.26683100"><ele>59.0706252672</ele><time>2007-04-30T16:37:07Z</time></trkpt>
<trkpt lat="47.83060600" lon="-3.26666100"><ele>59.8371466704</ele><time>2007-04-30T16:37:10Z</time></trkpt>
<trkpt lat="47.83063000" lon="-3.26649900"><ele>60.5014076736</ele><time>2007-04-30T16:37:14Z</time></trkpt>
<trkpt lat="47.83064800" lon="-3.26635500"><ele>61.1528893272</ele><time>2007-04-30T16:37:17Z</time></trkpt>
<trkpt lat="47.83066000" lon="-3.26621100"><ele>61.8606910104</ele><time>2007-04-30T16:37:20Z</time></trkpt>
<trkpt lat="47.83066000" lon="-3.26603200"><ele>62.8178099496</ele><time>2007-04-30T16:37:24Z</time></trkpt>
<trkpt lat="47.83068500" lon="-3.26587000"><ele>63.48562614</ele><time>2007-04-30T16:37:27Z</time></trkpt>
<trkpt lat="47.83067900" lon="-3.26570800"><ele>64.2684403224</ele><time>2007-04-30T16:37:30Z</time></trkpt>
<trkpt lat="47.83067200" lon="-3.26554700"><ele>65.0465621088</ele><time>2007-04-30T16:37:33Z</time></trkpt>
<trkpt lat="47.83064800" lon="-3.26536700"><ele>65.9384154432</ele><time>2007-04-30T16:37:36Z</time></trkpt>
<trkpt lat="47.83064800" lon="-3.26520500"><ele>66.2174607576</ele><time>2007-04-30T16:37:39Z</time></trkpt>
<trkpt lat="47.83063600" lon="-3.26504400"><ele>66.507812628</ele><time>2007-04-30T16:37:42Z</time></trkpt>
<trkpt lat="47.83062400" lon="-3.26489100"><ele>66.73437504</ele><time>2007-04-30T16:37:46Z</time></trkpt>
<trkpt lat="47.83060600" lon="-3.26475600"><ele>66.9331284144</ele><time>2007-04-30T16:37:50Z</time></trkpt>
<trkpt lat="47.83058800" lon="-3.26458600"><ele>66.8156280144</ele><time>2007-04-30T16:37:54Z</time></trkpt>
<trkpt lat="47.83057600" lon="-3.26443300"><ele>66.5890656024</ele><time>2007-04-30T16:37:58Z</time></trkpt>
<trkpt lat="47.83055800" lon="-3.26428900"><ele>66.3768769488</ele><time>2007-04-30T16:38:02Z</time></trkpt>
<trkpt lat="47.83054500" lon="-3.26414500"><ele>66.163749816</ele><time>2007-04-30T16:38:07Z</time></trkpt>
<trkpt lat="47.83052700" lon="-3.26398400"><ele>65.7787474872</ele><time>2007-04-30T16:38:11Z</time></trkpt>
<trkpt lat="47.83052100" lon="-3.26384000"><ele>65.1356277168</ele><time>2007-04-30T16:38:14Z</time></trkpt>
<trkpt lat="47.83046100" lon="-3.26370500"><ele>64.5599976768</ele><time>2007-04-30T16:38:18Z</time></trkpt>
<trkpt lat="47.83036400" lon="-3.26370500"><ele>64.6059340848</ele><time>2007-04-30T16:38:21Z</time></trkpt>
<trkpt lat="47.83028500" lon="-3.26359700"><ele>64.1596907304</ele><time>2007-04-30T16:38:25Z</time></trkpt>
<trkpt lat="47.83026100" lon="-3.26347200"><ele>63.6103134192</ele><time>2007-04-30T16:38:27Z</time></trkpt>
<trkpt lat="47.83019500" lon="-3.26336400"><ele>63.1584358368</ele><time>2007-04-30T16:38:29Z</time></trkpt>
<trkpt lat="47.83010400" lon="-3.26326500"><ele>62.7074126088</ele><time>2007-04-30T16:38:31Z</time></trkpt>
<trkpt lat="47.83000100" lon="-3.26319300"><ele>62.4180068376</ele><time>2007-04-30T16:38:33Z</time></trkpt>
<trkpt lat="47.82989200" lon="-3.26315700"><ele>62.3465501352</ele><time>2007-04-30T16:38:35Z</time></trkpt>
<trkpt lat="47.82978300" lon="-3.26312100"><ele>62.4850006584</ele><time>2007-04-30T16:38:37Z</time></trkpt>
<trkpt lat="47.82968000" lon="-3.26314800"><ele>63.1146888072</ele><time>2007-04-30T16:38:39Z</time></trkpt>
<trkpt lat="47.82957800" lon="-3.26322000"><ele>63.9159394272</ele><time>2007-04-30T16:38:41Z</time></trkpt>
<trkpt lat="47.82948100" lon="-3.26329200"><ele>64.615448112</ele><time>2007-04-30T16:38:43Z</time></trkpt>
<trkpt lat="47.82937200" lon="-3.26333700"><ele>65.1425018712</ele><time>2007-04-30T16:38:45Z</time></trkpt>
<trkpt lat="47.82925700" lon="-3.26337300"><ele>65.2146913128</ele><time>2007-04-30T16:38:47Z</time></trkpt>
<trkpt lat="47.82914200" lon="-3.26340000"><ele>65.2731248256</ele><time>2007-04-30T16:38:49Z</time></trkpt>
<trkpt lat="47.82902100" lon="-3.26340900"><ele>65.3056259544</ele><time>2007-04-30T16:38:51Z</time></trkpt>
<trkpt lat="47.82890000" lon="-3.26339100"><ele>65.2181242752</ele><time>2007-04-30T16:38:53Z</time></trkpt>
<trkpt lat="47.82879100" lon="-3.26338200"><ele>64.731872568</ele><time>2007-04-30T16:38:55Z</time></trkpt>
<trkpt lat="47.82869400" lon="-3.26336400"><ele>64.2903136848</ele><time>2007-04-30T16:38:57Z</time></trkpt>
<trkpt lat="47.82860400" lon="-3.26331900"><ele>63.8274992688</ele><time>2007-04-30T16:38:59Z</time></trkpt>
<trkpt lat="47.82851900" lon="-3.26323800"><ele>63.319686924</ele><time>2007-04-30T16:39:01Z</time></trkpt>
<trkpt lat="47.82841000" lon="-3.26319300"><ele>62.3419991664</ele><time>2007-04-30T16:39:04Z</time></trkpt>
<trkpt lat="47.82831900" lon="-3.26321100"><ele>61.413688704</ele><time>2007-04-30T16:39:06Z</time></trkpt>
<trkpt lat="47.82822900" lon="-3.26320200"><ele>60.4389075192</ele><time>2007-04-30T16:39:08Z</time></trkpt>
<trkpt lat="47.82813800" lon="-3.26312100"><ele>59.2269517008</ele><time>2007-04-30T16:39:11Z</time></trkpt>
<trkpt lat="47.82810200" lon="-3.26299600"><ele>58.7009848584</ele><time>2007-04-30T16:39:13Z</time></trkpt>
<trkpt lat="47.82807700" lon="-3.26280700"><ele>58.3189162296</ele><time>2007-04-30T16:39:15Z</time></trkpt>
<trkpt lat="47.82804700" lon="-3.26258200"><ele>57.8644941768</ele><time>2007-04-30T16:39:17Z</time></trkpt>
<trkpt lat="47.82802300" lon="-3.26244800"><ele>57.3725585592</ele><time>2007-04-30T16:39:18Z</time></trkpt>
<trkpt lat="47.82798100" lon="-3.26224100"><ele>56.8956221496</ele><time>2007-04-30T16:39:20Z</time></trkpt>
<trkpt lat="47.82789000" lon="-3.26207000"><ele>55.7593192152</ele><time>2007-04-30T16:39:22Z</time></trkpt>
<trkpt lat="47.82782900" lon="-3.26188200"><ele>55.1827698984</ele><time>2007-04-30T16:39:24Z</time></trkpt>
<trkpt lat="47.82776900" lon="-3.26169300"><ele>54.6633452832</ele><time>2007-04-30T16:39:26Z</time></trkpt>
<trkpt lat="47.82768400" lon="-3.26152200"><ele>53.64317694</ele><time>2007-04-30T16:39:28Z</time></trkpt>
<trkpt lat="47.82764800" lon="-3.26136100"><ele>53.2046965368</ele><time>2007-04-30T16:39:30Z</time></trkpt>
<trkpt lat="47.82761800" lon="-3.26119000"><ele>52.6813009872</ele><time>2007-04-30T16:39:32Z</time></trkpt>
<trkpt lat="47.82760000" lon="-3.26101000"><ele>52.4328118728</ele><time>2007-04-30T16:39:34Z</time></trkpt>
<trkpt lat="47.82757500" lon="-3.26080400"><ele>52.0615615104</ele><time>2007-04-30T16:39:36Z</time></trkpt>
<trkpt lat="47.82756900" lon="-3.26065100"><ele>52.0190620272</ele><time>2007-04-30T16:39:38Z</time></trkpt>
<trkpt lat="47.82752700" lon="-3.26051600"><ele>51.2240637696</ele><time>2007-04-30T16:39:41Z</time></trkpt>
<trkpt lat="47.82742400" lon="-3.26050700"><ele>49.1512488144</ele><time>2007-04-30T16:39:44Z</time></trkpt>
<trkpt lat="47.82730300" lon="-3.26052500"><ele>46.720313976</ele><time>2007-04-30T16:39:46Z</time></trkpt>
<trkpt lat="47.82717600" lon="-3.26058800"><ele>43.7375679984</ele><time>2007-04-30T16:39:48Z</time></trkpt>
<trkpt lat="47.82708500" lon="-3.26057000"><ele>41.4209593728</ele><time>2007-04-30T16:39:50Z</time></trkpt>
<trkpt lat="47.82700700" lon="-3.26045300"><ele>39.5699080584</ele><time>2007-04-30T16:39:52Z</time></trkpt>
<trkpt lat="47.82694600" lon="-3.26031000"><ele>38.2364769432</ele><time>2007-04-30T16:39:54Z</time></trkpt>
<trkpt lat="47.82687400" lon="-3.26015700"><ele>36.481262064</ele><time>2007-04-30T16:39:56Z</time></trkpt>
<trkpt lat="47.82680700" lon="-3.26000400"><ele>35.0250014256</ele><time>2007-04-30T16:39:58Z</time></trkpt>
<trkpt lat="47.82674700" lon="-3.25986900"><ele>33.867187536</ele><time>2007-04-30T16:40:00Z</time></trkpt>
<trkpt lat="47.82668600" lon="-3.25971700"><ele>32.734687896</ele><time>2007-04-30T16:40:02Z</time></trkpt>
<trkpt lat="47.82662000" lon="-3.25956400"><ele>31.3400002104</ele><time>2007-04-30T16:40:04Z</time></trkpt>
<trkpt lat="47.82654100" lon="-3.25939300"><ele>29.0987491176</ele><time>2007-04-30T16:40:06Z</time></trkpt>
<trkpt lat="47.82646200" lon="-3.25924100"><ele>26.9599992168</ele><time>2007-04-30T16:40:08Z</time></trkpt>
<trkpt lat="47.82637800" lon="-3.25907900"><ele>25.2275007768</ele><time>2007-04-30T16:40:10Z</time></trkpt>
<trkpt lat="47.82629300" lon="-3.25889900"><ele>24.0862503288</ele><time>2007-04-30T16:40:12Z</time></trkpt>
<trkpt lat="47.82620800" lon="-3.25871100"><ele>22.806259188</ele><time>2007-04-30T16:40:14Z</time></trkpt>
<trkpt lat="47.82611100" lon="-3.25853100"><ele>21.5916958056</ele><time>2007-04-30T16:40:16Z</time></trkpt>
<trkpt lat="47.82599000" lon="-3.25839600"><ele>20.7654592056</ele><time>2007-04-30T16:40:18Z</time></trkpt>
<trkpt lat="47.82585100" lon="-3.25836000"><ele>22.4809379184</ele><time>2007-04-30T16:40:20Z</time></trkpt>
<trkpt lat="47.82572400" lon="-3.25836000"><ele>24.1427346456</ele><time>2007-04-30T16:40:22Z</time></trkpt>
<trkpt lat="47.82562100" lon="-3.25835100"><ele>25.4602603824</ele><time>2007-04-30T16:40:24Z</time></trkpt>
<trkpt lat="47.82552500" lon="-3.25835100"><ele>26.6090067768</ele><time>2007-04-30T16:40:26Z</time></trkpt>
<trkpt lat="47.82542200" lon="-3.25833300"><ele>27.68165406</ele><time>2007-04-30T16:40:28Z</time></trkpt>
<trkpt lat="47.82532500" lon="-3.25828800"><ele>28.6920069288</ele><time>2007-04-30T16:40:30Z</time></trkpt>
<trkpt lat="47.82522800" lon="-3.25822500"><ele>29.7422504976</ele><time>2007-04-30T16:40:32Z</time></trkpt>
<trkpt lat="47.82513100" lon="-3.25816300"><ele>30.8034001152</ele><time>2007-04-30T16:40:34Z</time></trkpt>
<trkpt lat="47.82504100" lon="-3.25810900"><ele>31.3361874672</ele><time>2007-04-30T16:40:36Z</time></trkpt>
<trkpt lat="47.82494400" lon="-3.25805500"><ele>31.7055111888</ele><time>2007-04-30T16:40:38Z</time></trkpt>
<trkpt lat="47.82485300" lon="-3.25800100"><ele>32.0100630816</ele><time>2007-04-30T16:40:40Z</time></trkpt>
<trkpt lat="47.82475600" lon="-3.25794700"><ele>32.3067017568</ele><time>2007-04-30T16:40:42Z</time></trkpt>
<trkpt lat="47.82466000" lon="-3.25788400"><ele>32.4766234896</ele><time>2007-04-30T16:40:44Z</time></trkpt>
<trkpt lat="47.82456900" lon="-3.25783000"><ele>32.2755012096</ele><time>2007-04-30T16:40:46Z</time></trkpt>
<trkpt lat="47.82447800" lon="-3.25777600"><ele>32.045265348</ele><time>2007-04-30T16:40:48Z</time></trkpt>
<trkpt lat="47.82438100" lon="-3.25774900"><ele>31.8948575208</ele><time>2007-04-30T16:40:50Z</time></trkpt>
<trkpt lat="47.82428400" lon="-3.25774900"><ele>31.849800156</ele><time>2007-04-30T16:40:52Z</time></trkpt>
<trkpt lat="47.82418800" lon="-3.25774900"><ele>31.8478125552</ele><time>2007-04-30T16:40:54Z</time></trkpt>
<trkpt lat="47.82408500" lon="-3.25776700"><ele>31.9771879632</ele><time>2007-04-30T16:40:56Z</time></trkpt>
<trkpt lat="47.82398800" lon="-3.25778500"><ele>32.1037482384</ele><time>2007-04-30T16:40:58Z</time></trkpt>
<trkpt lat="47.82389700" lon="-3.25782100"><ele>32.3081245632</ele><time>2007-04-30T16:41:00Z</time></trkpt>
<trkpt lat="47.82380700" lon="-3.25785700"><ele>32.512500888</ele><time>2007-04-30T16:41:02Z</time></trkpt>
<trkpt lat="47.82371600" lon="-3.25787500"><ele>32.6520118104</ele><time>2007-04-30T16:41:04Z</time></trkpt>
<trkpt lat="47.82362500" lon="-3.25787500"><ele>32.7146454672</ele><time>2007-04-30T16:41:06Z</time></trkpt>
<trkpt lat="47.82349200" lon="-3.25784800"><ele>32.700786516</ele><time>2007-04-30T16:41:09Z</time></trkpt>
<trkpt lat="47.82335900" lon="-3.25782100"><ele>32.6978302608</ele><time>2007-04-30T16:41:12Z</time></trkpt>
<trkpt lat="47.82323800" lon="-3.25781200"><ele>32.552864028</ele><time>2007-04-30T16:41:15Z</time></trkpt>
<trkpt lat="47.82314100" lon="-3.25787500"><ele>32.5466500704</ele><time>2007-04-30T16:41:19Z</time></trkpt>
<trkpt lat="47.82307400" lon="-3.25797400"><ele>32.9724998664</ele><time>2007-04-30T16:41:22Z</time></trkpt>
<trkpt lat="47.82300200" lon="-3.25806400"><ele>33.40124892</ele><time>2007-04-30T16:41:25Z</time></trkpt>
<trkpt lat="47.82292300" lon="-3.25815400"><ele>33.8237495736</ele><time>2007-04-30T16:41:28Z</time></trkpt>
<trkpt lat="47.82283900" lon="-3.25825200"><ele>34.2728233008</ele><time>2007-04-30T16:41:31Z</time></trkpt>
<trkpt lat="47.82275400" lon="-3.25834200"><ele>34.6403654664</ele><time>2007-04-30T16:41:34Z</time></trkpt>
<trkpt lat="47.82265700" lon="-3.25844100"><ele>35.1020890032</ele><time>2007-04-30T16:41:37Z</time></trkpt>
<trkpt lat="47.82258400" lon="-3.25856700"><ele>35.8928109168</ele><time>2007-04-30T16:41:40Z</time></trkpt>
<trkpt lat="47.82253000" lon="-3.25871100"><ele>36.9065629152</ele><time>2007-04-30T16:41:43Z</time></trkpt>
<trkpt lat="47.82250600" lon="-3.25888100"><ele>38.1590614008</ele><time>2007-04-30T16:41:46Z</time></trkpt>
<trkpt lat="47.82252400" lon="-3.25905200"><ele>39.4781263776</ele><time>2007-04-30T16:41:49Z</time></trkpt>
<trkpt lat="47.82256600" lon="-3.25921400"><ele>40.5826072776</ele><time>2007-04-30T16:41:52Z</time></trkpt>
<trkpt lat="47.82261500" lon="-3.25937500"><ele>41.2303734192</ele><time>2007-04-30T16:41:55Z</time></trkpt>
<trkpt lat="47.82266300" lon="-3.25953700"><ele>41.988063852</ele><time>2007-04-30T16:41:58Z</time></trkpt>
<trkpt lat="47.82271100" lon="-3.25969000"><ele>42.8349951528</ele><time>2007-04-30T16:42:01Z</time></trkpt>
<trkpt lat="47.82276600" lon="-3.25984200"><ele>43.829124432</ele><time>2007-04-30T16:42:04Z</time></trkpt>
<trkpt lat="47.82282600" lon="-3.25999500"><ele>44.233203888</ele><time>2007-04-30T16:42:07Z</time></trkpt>
<trkpt lat="47.82289300" lon="-3.26013900"><ele>44.6137732056</ele><time>2007-04-30T16:42:10Z</time></trkpt>
<trkpt lat="47.82297200" lon="-3.26025600"><ele>45.0792046344</ele><time>2007-04-30T16:42:13Z</time></trkpt>
<trkpt lat="47.82303800" lon="-3.26039900"><ele>45.7173957888</ele><time>2007-04-30T16:42:16Z</time></trkpt>
<trkpt lat="47.82309300" lon="-3.26055200"><ele>46.48943712</ele><time>2007-04-30T16:42:19Z</time></trkpt>
<trkpt lat="47.82313500" lon="-3.26069600"><ele>47.2391052168</ele><time>2007-04-30T16:42:22Z</time></trkpt>
<trkpt lat="47.82312300" lon="-3.26083100"><ele>47.7033232368</ele><time>2007-04-30T16:42:25Z</time></trkpt>
<trkpt lat="47.82308700" lon="-3.26098300"><ele>47.9891738208</ele><time>2007-04-30T16:42:29Z</time></trkpt>
<trkpt lat="47.82309300" lon="-3.26113600"><ele>48.656074392</ele><time>2007-04-30T16:42:33Z</time></trkpt>
<trkpt lat="47.82309900" lon="-3.26130700"><ele>49.4262503472</ele><time>2007-04-30T16:42:37Z</time></trkpt>
<trkpt lat="47.82308100" lon="-3.26146800"><ele>49.76312628</ele><time>2007-04-30T16:42:40Z</time></trkpt>
<trkpt lat="47.82308100" lon="-3.26160300"><ele>50.2568739336</ele><time>2007-04-30T16:42:43Z</time></trkpt>
<trkpt lat="47.82308700" lon="-3.26174700"><ele>50.8650017496</ele><time>2007-04-30T16:42:46Z</time></trkpt>
<trkpt lat="47.82307400" lon="-3.26194400"><ele>51.294101628</ele><time>2007-04-30T16:42:49Z</time></trkpt>
<trkpt lat="47.82309300" lon="-3.26212400"><ele>51.6789628344</ele><time>2007-04-30T16:42:52Z</time></trkpt>
<trkpt lat="47.82309900" lon="-3.26225900"><ele>51.8515204776</ele><time>2007-04-30T16:42:54Z</time></trkpt>
<trkpt lat="47.82311700" lon="-3.26243900"><ele>52.0237464984</ele><time>2007-04-30T16:42:57Z</time></trkpt>
<trkpt lat="47.82312900" lon="-3.26258200"><ele>52.0702172208</ele><time>2007-04-30T16:43:00Z</time></trkpt>
<trkpt lat="47.82306200" lon="-3.26269900"><ele>51.72775278</ele><time>2007-04-30T16:43:04Z</time></trkpt>
<trkpt lat="47.82294700" lon="-3.26270800"><ele>50.6494980912</ele><time>2007-04-30T16:43:07Z</time></trkpt>
<trkpt lat="47.82289900" lon="-3.26284300"><ele>50.18395602</ele><time>2007-04-30T16:43:10Z</time></trkpt>
<trkpt lat="47.82286900" lon="-3.26304900"><ele>49.8424452984</ele><time>2007-04-30T16:43:13Z</time></trkpt>
<trkpt lat="47.82284500" lon="-3.26322900"><ele>49.5505868016</ele><time>2007-04-30T16:43:15Z</time></trkpt>
<trkpt lat="47.82280200" lon="-3.26341800"><ele>49.096027284</ele><time>2007-04-30T16:43:17Z</time></trkpt>
<trkpt lat="47.82276600" lon="-3.26360600"><ele>48.5798414736</ele><time>2007-04-30T16:43:19Z</time></trkpt>
<trkpt lat="47.82274200" lon="-3.26378600"><ele>48.1475981928</ele><time>2007-04-30T16:43:21Z</time></trkpt>
<trkpt lat="47.82273000" lon="-3.26393000"><ele>47.9963988</ele><time>2007-04-30T16:43:23Z</time></trkpt>
<trkpt lat="47.82270500" lon="-3.26411800"><ele>47.7626763312</ele><time>2007-04-30T16:43:26Z</time></trkpt>
<trkpt lat="47.82266900" lon="-3.26430700"><ele>47.2684096032</ele><time>2007-04-30T16:43:28Z</time></trkpt>
<trkpt lat="47.82265100" lon="-3.26446000"><ele>47.0757177864</ele><time>2007-04-30T16:43:30Z</time></trkpt>
<trkpt lat="47.82262700" lon="-3.26465700"><ele>47.2817994672</ele><time>2007-04-30T16:43:33Z</time></trkpt>
<trkpt lat="47.82260900" lon="-3.26482800"><ele>47.7361221552</ele><time>2007-04-30T16:43:36Z</time></trkpt>
<trkpt lat="47.82257200" lon="-3.26499000"><ele>47.842273632</ele><time>2007-04-30T16:43:40Z</time></trkpt>
<trkpt lat="47.82250000" lon="-3.26509800"><ele>46.4363824128</ele><time>2007-04-30T16:43:42Z</time></trkpt>
<trkpt lat="47.82240300" lon="-3.26528600"><ele>43.0649987568</ele><time>2007-04-30T16:43:44Z</time></trkpt>
<trkpt lat="47.82230600" lon="-3.26548400"><ele>39.9581260272</ele><time>2007-04-30T16:43:46Z</time></trkpt>
<trkpt lat="47.82221500" lon="-3.26569000"><ele>37.64328006</ele><time>2007-04-30T16:43:48Z</time></trkpt>
<trkpt lat="47.82214300" lon="-3.26590600"><ele>36.084999204</ele><time>2007-04-30T16:43:50Z</time></trkpt>
<trkpt lat="47.82211300" lon="-3.26610400"><ele>35.4086379456</ele><time>2007-04-30T16:43:52Z</time></trkpt>
<trkpt lat="47.82208200" lon="-3.26631900"><ele>34.7806588104</ele><time>2007-04-30T16:43:54Z</time></trkpt>
<trkpt lat="47.82207000" lon="-3.26652600"><ele>34.7396010312</ele><time>2007-04-30T16:43:56Z</time></trkpt>
<trkpt lat="47.82209400" lon="-3.26669700"><ele>35.3454437616</ele><time>2007-04-30T16:43:58Z</time></trkpt>
<trkpt lat="47.82212500" lon="-3.26684900"><ele>36.0414999768</ele><time>2007-04-30T16:44:00Z</time></trkpt>
<trkpt lat="47.82217900" lon="-3.26702900"><ele>37.221874248</ele><time>2007-04-30T16:44:03Z</time></trkpt>
<trkpt lat="47.82220300" lon="-3.26720900"><ele>37.3612480104</ele><time>2007-04-30T16:44:06Z</time></trkpt>
<trkpt lat="47.82225800" lon="-3.26735200"><ele>38.027500272</ele><time>2007-04-30T16:44:09Z</time></trkpt>
<trkpt lat="47.82230000" lon="-3.26750500"><ele>38.349998484</ele><time>2007-04-30T16:44:12Z</time></trkpt>
<trkpt lat="47.82233600" lon="-3.26764000"><ele>38.611251708</ele><time>2007-04-30T16:44:15Z</time></trkpt>
<trkpt lat="47.82236100" lon="-3.26781000"><ele>38.4362486544</ele><time>2007-04-30T16:44:18Z</time></trkpt>
<trkpt lat="47.82238500" lon="-3.26798100"><ele>38.0131188936</ele><time>2007-04-30T16:44:21Z</time></trkpt>
<trkpt lat="47.82239100" lon="-3.26811600"><ele>37.2293854344</ele><time>2007-04-30T16:44:24Z</time></trkpt>
<trkpt lat="47.82241500" lon="-3.26826900"><ele>36.5474969328</ele><time>2007-04-30T16:44:27Z</time></trkpt>
<trkpt lat="47.82246300" lon="-3.26843900"><ele>36.0589561776</ele><time>2007-04-30T16:44:30Z</time></trkpt>
<trkpt lat="47.82253000" lon="-3.26858300"><ele>36.028751412</ele><time>2007-04-30T16:44:33Z</time></trkpt>
<trkpt lat="47.82256600" lon="-3.26870900"><ele>35.8687515288</ele><time>2007-04-30T16:44:35Z</time></trkpt>
<trkpt lat="47.82259700" lon="-3.26887100"><ele>35.4300001584</ele><time>2007-04-30T16:44:37Z</time></trkpt>
<trkpt lat="47.82266300" lon="-3.26905000"><ele>35.3925018336</ele><time>2007-04-30T16:44:39Z</time></trkpt>
<trkpt lat="47.82268700" lon="-3.26918500"><ele>35.021251776</ele><time>2007-04-30T16:44:41Z</time></trkpt>
<trkpt lat="47.82270500" lon="-3.26932000"><ele>34.6514053224</ele><time>2007-04-30T16:44:43Z</time></trkpt>
<trkpt lat="47.82271100" lon="-3.26947200"><ele>34.1065140576</ele><time>2007-04-30T16:44:45Z</time></trkpt>
<trkpt lat="47.82268700" lon="-3.26965200"><ele>32.96815098</ele><time>2007-04-30T16:44:47Z</time></trkpt>
<trkpt lat="47.82266300" lon="-3.26988600"><ele>31.5600185664</ele><time>2007-04-30T16:44:49Z</time></trkpt>
<trkpt lat="47.82263900" lon="-3.27003800"><ele>29.851142736</ele><time>2007-04-30T16:44:50Z</time></trkpt>
<trkpt lat="47.82263300" lon="-3.27024500"><ele>27.94788162</ele><time>2007-04-30T16:44:52Z</time></trkpt>
<trkpt lat="47.82262100" lon="-3.27039800"><ele>26.4235820016</ele><time>2007-04-30T16:44:54Z</time></trkpt>
<trkpt lat="47.82271800" lon="-3.27041600"><ele>27.5728188192</ele><time>2007-04-30T16:45:01Z</time></trkpt>
<trkpt lat="47.82279000" lon="-3.27029900"><ele>29.2087992912</ele><time>2007-04-30T16:45:07Z</time></trkpt>
<trkpt lat="47.82289300" lon="-3.27027200"><ele>30.0516968688</ele><time>2007-04-30T16:45:12Z</time></trkpt>
<trkpt lat="47.82300800" lon="-3.27030800"><ele>30.3816413448</ele><time>2007-04-30T16:45:16Z</time></trkpt>
<trkpt lat="47.82309300" lon="-3.27027200"><ele>31.1368123008</ele><time>2007-04-30T16:45:19Z</time></trkpt>
<trkpt lat="47.82320800" lon="-3.27025400"><ele>31.8595942944</ele><time>2007-04-30T16:45:22Z</time></trkpt>
<trkpt lat="47.82329800" lon="-3.27026300"><ele>32.2233048192</ele><time>2007-04-30T16:45:24Z</time></trkpt>
<trkpt lat="47.82338900" lon="-3.27029900"><ele>32.471198964</ele><time>2007-04-30T16:45:26Z</time></trkpt>
<trkpt lat="47.82343700" lon="-3.27042500"><ele>32.2295492568</ele><time>2007-04-30T16:45:30Z</time></trkpt>
<trkpt lat="47.82341900" lon="-3.27055900"><ele>31.6059244944</ele><time>2007-04-30T16:45:33Z</time></trkpt>
<trkpt lat="47.82338300" lon="-3.27069400"><ele>30.9187507608</ele><time>2007-04-30T16:45:35Z</time></trkpt>
<trkpt lat="47.82332900" lon="-3.27082900"><ele>30.2275868904</ele><time>2007-04-30T16:45:37Z</time></trkpt>
<trkpt lat="47.82326200" lon="-3.27096400"><ele>29.2944508344</ele><time>2007-04-30T16:45:39Z</time></trkpt>
<trkpt lat="47.82319500" lon="-3.27111600"><ele>28.2028120728</ele><time>2007-04-30T16:45:41Z</time></trkpt>
<trkpt lat="47.82312900" lon="-3.27129600"><ele>27.0206242416</ele><time>2007-04-30T16:45:43Z</time></trkpt>
<trkpt lat="47.82308700" lon="-3.27148500"><ele>26.7329140728</ele><time>2007-04-30T16:45:45Z</time></trkpt>
<trkpt lat="47.82305600" lon="-3.27169100"><ele>26.7371998656</ele><time>2007-04-30T16:45:47Z</time></trkpt>
<trkpt lat="47.82305000" lon="-3.27188900"><ele>27.1401594864</ele><time>2007-04-30T16:45:49Z</time></trkpt>
<trkpt lat="47.82305600" lon="-3.27207700"><ele>26.8587379512</ele><time>2007-04-30T16:45:51Z</time></trkpt>
<trkpt lat="47.82308700" lon="-3.27226600"><ele>26.5955468088</ele><time>2007-04-30T16:45:53Z</time></trkpt>
<trkpt lat="47.82312900" lon="-3.27243700"><ele>26.097024768</ele><time>2007-04-30T16:45:55Z</time></trkpt>
<trkpt lat="47.82318300" lon="-3.27259900"><ele>25.6544761992</ele><time>2007-04-30T16:45:57Z</time></trkpt>
<trkpt lat="47.82324400" lon="-3.27276000"><ele>25.5624503736</ele><time>2007-04-30T16:45:59Z</time></trkpt>
<trkpt lat="47.82330400" lon="-3.27291300"><ele>25.8095873952</ele><time>2007-04-30T16:46:01Z</time></trkpt>
<trkpt lat="47.82336500" lon="-3.27303900"><ele>26.3260496592</ele><time>2007-04-30T16:46:03Z</time></trkpt>
<trkpt lat="47.82345000" lon="-3.27312900"><ele>27.2731992</ele><time>2007-04-30T16:46:05Z</time></trkpt>
<trkpt lat="47.82353400" lon="-3.27319100"><ele>28.0662497856</ele><time>2007-04-30T16:46:07Z</time></trkpt>
<trkpt lat="47.82363100" lon="-3.27323600"><ele>28.74756252</ele><time>2007-04-30T16:46:09Z</time></trkpt>
<trkpt lat="47.82374000" lon="-3.27326300"><ele>29.4793242264</ele><time>2007-04-30T16:46:11Z</time></trkpt>
<trkpt lat="47.82384900" lon="-3.27329000"><ele>30.2224159584</ele><time>2007-04-30T16:46:13Z</time></trkpt>
<trkpt lat="47.82395200" lon="-3.27331700"><ele>30.82237422</ele><time>2007-04-30T16:46:15Z</time></trkpt>
<trkpt lat="47.82406100" lon="-3.27334400"><ele>30.8837011992</ele><time>2007-04-30T16:46:17Z</time></trkpt>
<trkpt lat="47.82416300" lon="-3.27336200"><ele>30.9155406072</ele><time>2007-04-30T16:46:19Z</time></trkpt>
<trkpt lat="47.82426600" lon="-3.27338900"><ele>30.9584274912</ele><time>2007-04-30T16:46:21Z</time></trkpt>
<trkpt lat="47.82436900" lon="-3.27342500"><ele>30.9826755504</ele><time>2007-04-30T16:46:23Z</time></trkpt>
<trkpt lat="47.82446600" lon="-3.27345200"><ele>30.8710440744</ele><time>2007-04-30T16:46:25Z</time></trkpt>
<trkpt lat="47.82456300" lon="-3.27347000"><ele>30.80227266</ele><time>2007-04-30T16:46:27Z</time></trkpt>
<trkpt lat="47.82466000" lon="-3.27349700"><ele>30.6531696816</ele><time>2007-04-30T16:46:29Z</time></trkpt>
<trkpt lat="47.82475600" lon="-3.27352400"><ele>30.482564892</ele><time>2007-04-30T16:46:31Z</time></trkpt>
<trkpt lat="47.82485300" lon="-3.27355100"><ele>30.4193039568</ele><time>2007-04-30T16:46:33Z</time></trkpt>
<trkpt lat="47.82495000" lon="-3.27357800"><ele>30.6440409216</ele><time>2007-04-30T16:46:35Z</time></trkpt>
<trkpt lat="47.82505300" lon="-3.27360500"><ele>30.8700504264</ele><time>2007-04-30T16:46:37Z</time></trkpt>
<trkpt lat="47.82515600" lon="-3.27364100"><ele>30.9756163824</ele><time>2007-04-30T16:46:39Z</time></trkpt>
<trkpt lat="47.82527100" lon="-3.27367600"><ele>31.120000752</ele><time>2007-04-30T16:46:41Z</time></trkpt>
<trkpt lat="47.82540400" lon="-3.27373900"><ele>31.145000448</ele><time>2007-04-30T16:46:43Z</time></trkpt>
<trkpt lat="47.82554900" lon="-3.27382000"><ele>31.020000444</ele><time>2007-04-30T16:46:45Z</time></trkpt>
<trkpt lat="47.82567600" lon="-3.27390100"><ele>30.795000132</ele><time>2007-04-30T16:46:47Z</time></trkpt>
<trkpt lat="47.82580300" lon="-3.27399100"><ele>30.2399998704</ele><time>2007-04-30T16:46:49Z</time></trkpt>
<trkpt lat="47.82591800" lon="-3.27409000"><ele>29.4675007296</ele><time>2007-04-30T16:46:51Z</time></trkpt>
<trkpt lat="47.82600300" lon="-3.27419800"><ele>28.4850004848</ele><time>2007-04-30T16:46:53Z</time></trkpt>
<trkpt lat="47.82606900" lon="-3.27430500"><ele>28.0306491456</ele><time>2007-04-30T16:46:55Z</time></trkpt>
<trkpt lat="47.82612300" lon="-3.27441300"><ele>28.9454993352</ele><time>2007-04-30T16:46:57Z</time></trkpt>
<trkpt lat="47.82617200" lon="-3.27457500"><ele>30.8812503024</ele><time>2007-04-30T16:47:00Z</time></trkpt>
<trkpt lat="47.82621400" lon="-3.27472800"><ele>32.7606239376</ele><time>2007-04-30T16:47:03Z</time></trkpt>
<trkpt lat="47.82626300" lon="-3.27488000"><ele>34.7325019344</ele><time>2007-04-30T16:47:06Z</time></trkpt>
<trkpt lat="47.82629900" lon="-3.27503300"><ele>36.2537611728</ele><time>2007-04-30T16:47:09Z</time></trkpt>
<trkpt lat="47.82633500" lon="-3.27518600"><ele>37.4908904232</ele><time>2007-04-30T16:47:12Z</time></trkpt>
<trkpt lat="47.82635900" lon="-3.27533800"><ele>38.5825194312</ele><time>2007-04-30T16:47:15Z</time></trkpt>
<trkpt lat="47.82639600" lon="-3.27548200"><ele>39.901409148</ele><time>2007-04-30T16:47:18Z</time></trkpt>
<trkpt lat="47.82643200" lon="-3.27562600"><ele>41.2223510832</ele><time>2007-04-30T16:47:21Z</time></trkpt>
<trkpt lat="47.82648000" lon="-3.27575200"><ele>42.1081620624</ele><time>2007-04-30T16:47:24Z</time></trkpt>
<trkpt lat="47.82652900" lon="-3.27586800"><ele>42.8387490696</ele><time>2007-04-30T16:47:27Z</time></trkpt>
<trkpt lat="47.82657100" lon="-3.27599400"><ele>43.1821861272</ele><time>2007-04-30T16:47:30Z</time></trkpt>
<trkpt lat="47.82660700" lon="-3.27612900"><ele>43.4612503392</ele><time>2007-04-30T16:47:33Z</time></trkpt>
<trkpt lat="47.82665000" lon="-3.27625500"><ele>43.8300019512</ele><time>2007-04-30T16:47:36Z</time></trkpt>
<trkpt lat="47.82670400" lon="-3.27637100"><ele>44.22755442</ele><time>2007-04-30T16:47:39Z</time></trkpt>
<trkpt lat="47.82676500" lon="-3.27649700"><ele>44.3796386472</ele><time>2007-04-30T16:47:42Z</time></trkpt>
<trkpt lat="47.82683100" lon="-3.27664100"><ele>44.5817338488</ele><time>2007-04-30T16:47:45Z</time></trkpt>
<trkpt lat="47.82689800" lon="-3.27679400"><ele>44.8113442608</ele><time>2007-04-30T16:47:48Z</time></trkpt>
<trkpt lat="47.82694000" lon="-3.27693700"><ele>44.535205824</ele><time>2007-04-30T16:47:50Z</time></trkpt>
<trkpt lat="47.82698300" lon="-3.27708100"><ele>43.816840992</ele><time>2007-04-30T16:47:52Z</time></trkpt>
<trkpt lat="47.82703100" lon="-3.27720700"><ele>42.73005678</ele><time>2007-04-30T16:47:54Z</time></trkpt>
<trkpt lat="47.82706700" lon="-3.27734200"><ele>41.5499495136</ele><time>2007-04-30T16:47:56Z</time></trkpt>
<trkpt lat="47.82711600" lon="-3.27749400"><ele>40.303547028</ele><time>2007-04-30T16:47:58Z</time></trkpt>
<trkpt lat="47.82716400" lon="-3.27766500"><ele>38.9308396896</ele><time>2007-04-30T16:48:00Z</time></trkpt>
<trkpt lat="47.82720000" lon="-3.27785400"><ele>38.0250243816</ele><time>2007-04-30T16:48:02Z</time></trkpt>
<trkpt lat="47.82723100" lon="-3.27802400"><ele>37.6480635912</ele><time>2007-04-30T16:48:04Z</time></trkpt>
<trkpt lat="47.82722400" lon="-3.27818600"><ele>37.0742873448</ele><time>2007-04-30T16:48:06Z</time></trkpt>
<trkpt lat="47.82719400" lon="-3.27834800"><ele>36.3013992792</ele><time>2007-04-30T16:48:08Z</time></trkpt>
<trkpt lat="47.82715800" lon="-3.27850900"><ele>36.2634391824</ele><time>2007-04-30T16:48:10Z</time></trkpt>
<trkpt lat="47.82711600" lon="-3.27865300"><ele>36.5144691096</ele><time>2007-04-30T16:48:12Z</time></trkpt>
<trkpt lat="47.82706700" lon="-3.27880600"><ele>36.7205123856</ele><time>2007-04-30T16:48:14Z</time></trkpt>
<trkpt lat="47.82701900" lon="-3.27895900"><ele>36.884029356</ele><time>2007-04-30T16:48:16Z</time></trkpt>
<trkpt lat="47.82697000" lon="-3.27912000"><ele>36.8386955376</ele><time>2007-04-30T16:48:18Z</time></trkpt>
<trkpt lat="47.82691000" lon="-3.27929100"><ele>36.4764520152</ele><time>2007-04-30T16:48:20Z</time></trkpt>
<trkpt lat="47.82683700" lon="-3.27947100"><ele>36.0796548408</ele><time>2007-04-30T16:48:22Z</time></trkpt>
<trkpt lat="47.82676500" lon="-3.27966800"><ele>35.6699981544</ele><time>2007-04-30T16:48:24Z</time></trkpt>
<trkpt lat="47.82670400" lon="-3.27990200"><ele>34.9036407336</ele><time>2007-04-30T16:48:26Z</time></trkpt>
<trkpt lat="47.82665600" lon="-3.28013500"><ele>34.2371214672</ele><time>2007-04-30T16:48:28Z</time></trkpt>
<trkpt lat="47.82664400" lon="-3.28036900"><ele>34.0502053056</ele><time>2007-04-30T16:48:30Z</time></trkpt>
<trkpt lat="47.82665600" lon="-3.28059400"><ele>32.9628599568</ele><time>2007-04-30T16:48:32Z</time></trkpt>
<trkpt lat="47.82666800" lon="-3.28080900"><ele>31.842786708</ele><time>2007-04-30T16:48:34Z</time></trkpt>
<trkpt lat="47.82667400" lon="-3.28099800"><ele>30.7305946728</ele><time>2007-04-30T16:48:36Z</time></trkpt>
<trkpt lat="47.82663800" lon="-3.28115900"><ele>29.7346381176</ele><time>2007-04-30T16:48:38Z</time></trkpt>
<trkpt lat="47.82655900" lon="-3.28127600"><ele>28.721031204</ele><time>2007-04-30T16:48:40Z</time></trkpt>
<trkpt lat="47.82647400" lon="-3.28135700"><ele>27.9663180576</ele><time>2007-04-30T16:48:42Z</time></trkpt>
<trkpt lat="47.82636500" lon="-3.28139300"><ele>27.2632008456</ele><time>2007-04-30T16:48:45Z</time></trkpt>
<trkpt lat="47.82628700" lon="-3.28133000"><ele>26.7457370088</ele><time>2007-04-30T16:48:48Z</time></trkpt>
<trkpt lat="47.82622000" lon="-3.28123100"><ele>27.0706501512</ele><time>2007-04-30T16:48:52Z</time></trkpt>
<trkpt lat="47.82616000" lon="-3.28113300"><ele>28.139843136</ele><time>2007-04-30T16:48:56Z</time></trkpt>
<trkpt lat="47.82610500" lon="-3.28099800"><ele>28.9509506832</ele><time>2007-04-30T16:49:00Z</time></trkpt>
<trkpt lat="47.82606900" lon="-3.28087200"><ele>29.5368881448</ele><time>2007-04-30T16:49:04Z</time></trkpt>
<trkpt lat="47.82605100" lon="-3.28070100"><ele>29.6908130592</ele><time>2007-04-30T16:49:08Z</time></trkpt>
<trkpt lat="47.82602100" lon="-3.28056700"><ele>29.8351706064</ele><time>2007-04-30T16:49:12Z</time></trkpt>
<trkpt lat="47.82596600" lon="-3.28044100"><ele>30.0111197592</ele><time>2007-04-30T16:49:16Z</time></trkpt>
<trkpt lat="47.82592400" lon="-3.28032400"><ele>29.860946628</ele><time>2007-04-30T16:49:19Z</time></trkpt>
<trkpt lat="47.82586900" lon="-3.28018900"><ele>29.8180941864</ele><time>2007-04-30T16:49:23Z</time></trkpt>
<trkpt lat="47.82580900" lon="-3.28005500"><ele>31.959688176</ele><time>2007-04-30T16:49:27Z</time></trkpt>
<trkpt lat="47.82576700" lon="-3.27993800"><ele>33.7865639736</ele><time>2007-04-30T16:49:31Z</time></trkpt>
<trkpt lat="47.82572400" lon="-3.27981200"><ele>35.695312404</ele><time>2007-04-30T16:49:36Z</time></trkpt>
<trkpt lat="47.82569400" lon="-3.27965900"><ele>36.9915618816</ele><time>2007-04-30T16:49:40Z</time></trkpt>
<trkpt lat="47.82567600" lon="-3.27949800"><ele>38.4876556128</ele><time>2007-04-30T16:49:44Z</time></trkpt>
<trkpt lat="47.82565800" lon="-3.27934500"><ele>40.3083573816</ele><time>2007-04-30T16:49:48Z</time></trkpt>
<trkpt lat="47.82568200" lon="-3.27920100"><ele>40.3304444088</ele><time>2007-04-30T16:49:54Z</time></trkpt>
<trkpt lat="47.82567000" lon="-3.27906600"><ele>41.852539104</ele><time>2007-04-30T16:49:57Z</time></trkpt>
<trkpt lat="47.82565800" lon="-3.27892300"><ele>43.306118112</ele><time>2007-04-30T16:50:01Z</time></trkpt>
<trkpt lat="47.82565200" lon="-3.27876100"><ele>43.2056237232</ele><time>2007-04-30T16:50:06Z</time></trkpt>
<trkpt lat="47.82562100" lon="-3.27863500"><ele>44.1853143216</ele><time>2007-04-30T16:50:11Z</time></trkpt>
<trkpt lat="47.82552500" lon="-3.27861700"><ele>48.0206261328</ele><time>2007-04-30T16:50:15Z</time></trkpt>
<trkpt lat="47.82543400" lon="-3.27862600"><ele>50.695571964</ele><time>2007-04-30T16:50:19Z</time></trkpt>
<trkpt lat="47.82534300" lon="-3.27862600"><ele>52.4133720336</ele><time>2007-04-30T16:50:23Z</time></trkpt>
<trkpt lat="47.82524000" lon="-3.27859900"><ele>54.2824440384</ele><time>2007-04-30T16:50:27Z</time></trkpt>
<trkpt lat="47.82515600" lon="-3.27850900"><ele>55.6887513096</ele><time>2007-04-30T16:50:31Z</time></trkpt>
<trkpt lat="47.82507100" lon="-3.27842900"><ele>57.1320189336</ele><time>2007-04-30T16:50:34Z</time></trkpt>
<trkpt lat="47.82501600" lon="-3.27828500"><ele>57.2686272456</ele><time>2007-04-30T16:50:38Z</time></trkpt>
<trkpt lat="47.82492600" lon="-3.27822200"><ele>56.9112663144</ele><time>2007-04-30T16:50:42Z</time></trkpt>
<trkpt lat="47.82482300" lon="-3.27824000"><ele>56.8125001416</ele><time>2007-04-30T16:50:45Z</time></trkpt>
<trkpt lat="47.82472000" lon="-3.27827600"><ele>56.807228016</ele><time>2007-04-30T16:50:48Z</time></trkpt>
<trkpt lat="47.82459300" lon="-3.27827600"><ele>56.6309356584</ele><time>2007-04-30T16:50:51Z</time></trkpt>
<trkpt lat="47.82449000" lon="-3.27829400"><ele>56.0712509256</ele><time>2007-04-30T16:50:53Z</time></trkpt>
<trkpt lat="47.82439300" lon="-3.27832100"><ele>55.6081237848</ele><time>2007-04-30T16:50:55Z</time></trkpt>
<trkpt lat="47.82429700" lon="-3.27835700"><ele>55.185314064</ele><time>2007-04-30T16:50:57Z</time></trkpt>
<trkpt lat="47.82419400" lon="-3.27841100"><ele>54.8159370024</ele><time>2007-04-30T16:50:59Z</time></trkpt>
<trkpt lat="47.82410300" lon="-3.27844700"><ele>54.3124046592</ele><time>2007-04-30T16:51:01Z</time></trkpt>
<trkpt lat="47.82399400" lon="-3.27841100"><ele>53.100463776</ele><time>2007-04-30T16:51:04Z</time></trkpt>
<trkpt lat="47.82394000" lon="-3.27824900"><ele>51.6644744712</ele><time>2007-04-30T16:51:07Z</time></trkpt>
<trkpt lat="47.82388500" lon="-3.27808700"><ele>50.1890221008</ele><time>2007-04-30T16:51:10Z</time></trkpt>
<trkpt lat="47.82379400" lon="-3.27802400"><ele>48.811328844</ele><time>2007-04-30T16:51:13Z</time></trkpt>
<trkpt lat="47.82372800" lon="-3.27791700"><ele>47.264232624</ele><time>2007-04-30T16:51:16Z</time></trkpt>
<trkpt lat="47.82373400" lon="-3.27774600"><ele>45.9631996152</ele><time>2007-04-30T16:51:19Z</time></trkpt>
<trkpt lat="47.82375800" lon="-3.27758400"><ele>44.9414405208</ele><time>2007-04-30T16:51:21Z</time></trkpt>
<trkpt lat="47.82377600" lon="-3.27742200"><ele>43.8806304504</ele><time>2007-04-30T16:51:23Z</time></trkpt>
<trkpt lat="47.82371600" lon="-3.27722500"><ele>41.9780578776</ele><time>2007-04-30T16:51:25Z</time></trkpt>
<trkpt lat="47.82361300" lon="-3.27714400"><ele>40.3359984744</ele><time>2007-04-30T16:51:27Z</time></trkpt>
<trkpt lat="47.82351600" lon="-3.27715300"><ele>39.1862450208</ele><time>2007-04-30T16:51:29Z</time></trkpt>
<trkpt lat="47.82342500" lon="-3.27720700"><ele>38.291301624</ele><time>2007-04-30T16:51:31Z</time></trkpt>
<trkpt lat="47.82333500" lon="-3.27719800"><ele>37.1317979232</ele><time>2007-04-30T16:51:33Z</time></trkpt>
<trkpt lat="47.82324400" lon="-3.27719800"><ele>35.6973189024</ele><time>2007-04-30T16:51:35Z</time></trkpt>
<trkpt lat="47.82315300" lon="-3.27721600"><ele>34.1573486016</ele><time>2007-04-30T16:51:38Z</time></trkpt>
<trkpt lat="47.82307400" lon="-3.27733300"><ele>33.5299071336</ele><time>2007-04-30T16:51:42Z</time></trkpt>
<trkpt lat="47.82289900" lon="-3.27749400"><ele>32.8564987776</ele><time>2007-04-30T16:51:50Z</time></trkpt>
<trkpt lat="47.82277200" lon="-3.27753900"><ele>31.2076569648</ele><time>2007-04-30T16:51:50Z</time></trkpt>
<trkpt lat="47.82272400" lon="-3.27767400"><ele>32.2473297648</ele><time>2007-04-30T16:52:40Z</time></trkpt>
<trkpt lat="47.82268100" lon="-3.27780900"><ele>33.476749404</ele><time>2007-04-30T16:52:51Z</time></trkpt>
<trkpt lat="47.82268100" lon="-3.27794300"><ele>35.6720808528</ele><time>2007-04-30T16:53:00Z</time></trkpt>
<trkpt lat="47.82259700" lon="-3.27799700"><ele>35.2319831808</ele><time>2007-04-30T16:53:09Z</time></trkpt>
<trkpt lat="47.82253600" lon="-3.27810500"><ele>36.4525642296</ele><time>2007-04-30T16:53:14Z</time></trkpt>
<trkpt lat="47.82243900" lon="-3.27816800"><ele>36.611827716</ele><time>2007-04-30T16:53:19Z</time></trkpt>
<trkpt lat="47.82234200" lon="-3.27823100"><ele>37.035114144</ele><time>2007-04-30T16:53:24Z</time></trkpt>
<trkpt lat="47.82225800" lon="-3.27827600"><ele>36.4035950616</ele><time>2007-04-30T16:53:27Z</time></trkpt>
<trkpt lat="47.82216700" lon="-3.27832100"><ele>35.7084313008</ele><time>2007-04-30T16:53:30Z</time></trkpt>
<trkpt lat="47.82207600" lon="-3.27838400"><ele>35.6809005456</ele><time>2007-04-30T16:53:33Z</time></trkpt>
<trkpt lat="47.82198600" lon="-3.27845600"><ele>36.1262246232</ele><time>2007-04-30T16:53:36Z</time></trkpt>
<trkpt lat="47.82193100" lon="-3.27859900"><ele>38.4820290048</ele><time>2007-04-30T16:53:39Z</time></trkpt>
<trkpt lat="47.82191300" lon="-3.27875200"><ele>40.911373092</ele><time>2007-04-30T16:53:42Z</time></trkpt>
<trkpt lat="47.82185200" lon="-3.27889600"><ele>42.7517240976</ele><time>2007-04-30T16:53:46Z</time></trkpt>
<trkpt lat="47.82178600" lon="-3.27902100"><ele>44.1486282888</ele><time>2007-04-30T16:53:50Z</time></trkpt>
<trkpt lat="47.82173700" lon="-3.27915600"><ele>46.3069039824</ele><time>2007-04-30T16:53:53Z</time></trkpt>
<trkpt lat="47.82168900" lon="-3.27929100"><ele>46.9934729928</ele><time>2007-04-30T16:53:56Z</time></trkpt>
<trkpt lat="47.82160400" lon="-3.27937200"><ele>46.8693008256</ele><time>2007-04-30T16:53:59Z</time></trkpt>
<trkpt lat="47.82152600" lon="-3.27943500"><ele>46.8134767056</ele><time>2007-04-30T16:54:03Z</time></trkpt>
<trkpt lat="47.82145300" lon="-3.27951600"><ele>47.1275977944</ele><time>2007-04-30T16:54:06Z</time></trkpt>
<trkpt lat="47.82138100" lon="-3.27963200"><ele>48.0524445096</ele><time>2007-04-30T16:54:11Z</time></trkpt>
<trkpt lat="47.82136200" lon="-3.27977600"><ele>49.600181724</ele><time>2007-04-30T16:54:16Z</time></trkpt>
<trkpt lat="47.82136200" lon="-3.27992900"><ele>50.2068215064</ele><time>2007-04-30T16:54:21Z</time></trkpt>
<trkpt lat="47.82129000" lon="-3.28005500"><ele>49.2356872536</ele><time>2007-04-30T16:54:25Z</time></trkpt>
<trkpt lat="47.82120500" lon="-3.28009900"><ele>48.0009765912</ele><time>2007-04-30T16:54:28Z</time></trkpt>
<trkpt lat="47.82112000" lon="-3.28017100"><ele>47.0222357496</ele><time>2007-04-30T16:54:31Z</time></trkpt>
<trkpt lat="47.82107800" lon="-3.28034200"><ele>47.5527800784</ele><time>2007-04-30T16:54:34Z</time></trkpt>
<trkpt lat="47.82106600" lon="-3.28048600"><ele>47.916992304</ele><time>2007-04-30T16:54:36Z</time></trkpt>
<trkpt lat="47.82106000" lon="-3.28062000"><ele>47.63423544</ele><time>2007-04-30T16:54:38Z</time></trkpt>
<trkpt lat="47.82106600" lon="-3.28076400"><ele>47.4687119712</ele><time>2007-04-30T16:54:40Z</time></trkpt>
<trkpt lat="47.82109600" lon="-3.28091700"><ele>47.511775944</ele><time>2007-04-30T16:54:42Z</time></trkpt>
<trkpt lat="47.82112600" lon="-3.28106100"><ele>47.518001484</ele><time>2007-04-30T16:54:44Z</time></trkpt>
<trkpt lat="47.82116900" lon="-3.28117700"><ele>47.3759384712</ele><time>2007-04-30T16:54:46Z</time></trkpt>
<trkpt lat="47.82121700" lon="-3.28130300"><ele>46.9528120632</ele><time>2007-04-30T16:54:49Z</time></trkpt>
<trkpt lat="47.82120500" lon="-3.28144700"><ele>45.8084374152</ele><time>2007-04-30T16:54:53Z</time></trkpt>
<trkpt lat="47.82112600" lon="-3.28153700"><ele>44.4124985256</ele><time>2007-04-30T16:54:56Z</time></trkpt>
<trkpt lat="47.82104800" lon="-3.28160000"><ele>43.2196884144</ele><time>2007-04-30T16:54:58Z</time></trkpt>
<trkpt lat="47.82095100" lon="-3.28167100"><ele>41.7934380792</ele><time>2007-04-30T16:55:01Z</time></trkpt>
<trkpt lat="47.82085400" lon="-3.28174300"><ele>40.3378105104</ele><time>2007-04-30T16:55:04Z</time></trkpt>
<trkpt lat="47.82076300" lon="-3.28182400"><ele>39.5079690408</ele><time>2007-04-30T16:55:07Z</time></trkpt>
<trkpt lat="47.82067900" lon="-3.28188700"><ele>38.4568747752</ele><time>2007-04-30T16:55:09Z</time></trkpt>
<trkpt lat="47.82059400" lon="-3.28196800"><ele>37.5712738032</ele><time>2007-04-30T16:55:11Z</time></trkpt>
<trkpt lat="47.82050300" lon="-3.28203100"><ele>36.4164542688</ele><time>2007-04-30T16:55:13Z</time></trkpt>
<trkpt lat="47.82040600" lon="-3.28212100"><ele>35.448822168</ele><time>2007-04-30T16:55:15Z</time></trkpt>
<trkpt lat="47.82031600" lon="-3.28221900"><ele>34.6851006576</ele><time>2007-04-30T16:55:17Z</time></trkpt>
<trkpt lat="47.82021900" lon="-3.28233600"><ele>33.5387496864</ele><time>2007-04-30T16:55:19Z</time></trkpt>
<trkpt lat="47.82011600" lon="-3.28245300"><ele>33.1150017912</ele><time>2007-04-30T16:55:21Z</time></trkpt>
<trkpt lat="47.82004900" lon="-3.28260600"><ele>34.3675002768</ele><time>2007-04-30T16:55:23Z</time></trkpt>
<trkpt lat="47.81995300" lon="-3.28276700"><ele>35.095001184</ele><time>2007-04-30T16:55:25Z</time></trkpt>
<trkpt lat="47.81985000" lon="-3.28291100"><ele>35.283042972</ele><time>2007-04-30T16:55:27Z</time></trkpt>
<trkpt lat="47.81975900" lon="-3.28307300"><ele>35.2366332096</ele><time>2007-04-30T16:55:29Z</time></trkpt>
<trkpt lat="47.81967400" lon="-3.28326200"><ele>35.5036736712</ele><time>2007-04-30T16:55:31Z</time></trkpt>
<trkpt lat="47.81959000" lon="-3.28342300"><ele>35.277644964</ele><time>2007-04-30T16:55:33Z</time></trkpt>
<trkpt lat="47.81951700" lon="-3.28362100"><ele>35.911781364</ele><time>2007-04-30T16:55:35Z</time></trkpt>
<trkpt lat="47.81946900" lon="-3.28373800"><ele>35.3735886888</ele><time>2007-04-30T16:55:36Z</time></trkpt>
<trkpt lat="47.81939000" lon="-3.28396200"><ele>35.0791549368</ele><time>2007-04-30T16:55:38Z</time></trkpt>
<trkpt lat="47.81929300" lon="-3.28416000"><ele>33.8087540232</ele><time>2007-04-30T16:55:40Z</time></trkpt>
<trkpt lat="47.81925100" lon="-3.28427700"><ele>33.4210435464</ele><time>2007-04-30T16:55:41Z</time></trkpt>
<trkpt lat="47.81922100" lon="-3.28440200"><ele>33.1107751296</ele><time>2007-04-30T16:55:42Z</time></trkpt>
<trkpt lat="47.81919600" lon="-3.28452800"><ele>32.9386253088</ele><time>2007-04-30T16:55:43Z</time></trkpt>
<trkpt lat="47.81917200" lon="-3.28465400"><ele>32.8933448304</ele><time>2007-04-30T16:55:44Z</time></trkpt>
<trkpt lat="47.81913600" lon="-3.28488700"><ele>33.1953735888</ele><time>2007-04-30T16:55:46Z</time></trkpt>
<trkpt lat="47.81911200" lon="-3.28513000"><ele>32.8402480608</ele><time>2007-04-30T16:55:48Z</time></trkpt>
<trkpt lat="47.81908800" lon="-3.28535500"><ele>32.2541008968</ele><time>2007-04-30T16:55:50Z</time></trkpt>
<trkpt lat="47.81908800" lon="-3.28560600"><ele>32.3324012736</ele><time>2007-04-30T16:55:52Z</time></trkpt>
<trkpt lat="47.81907500" lon="-3.28584900"><ele>31.0311756312</ele><time>2007-04-30T16:55:54Z</time></trkpt>
<trkpt lat="47.81910600" lon="-3.28610000"><ele>31.062356976</ele><time>2007-04-30T16:55:56Z</time></trkpt>
<trkpt lat="47.81914800" lon="-3.28635200"><ele>31.4531002128</ele><time>2007-04-30T16:55:58Z</time></trkpt>
<trkpt lat="47.81917800" lon="-3.28658500"><ele>31.6511897328</ele><time>2007-04-30T16:56:00Z</time></trkpt>
<trkpt lat="47.81921500" lon="-3.28679200"><ele>32.2555237032</ele><time>2007-04-30T16:56:02Z</time></trkpt>
<trkpt lat="47.81925700" lon="-3.28697200"><ele>32.477825316</ele><time>2007-04-30T16:56:04Z</time></trkpt>
<trkpt lat="47.81931700" lon="-3.28716000"><ele>32.0519752152</ele><time>2007-04-30T16:56:06Z</time></trkpt>
<trkpt lat="47.81935400" lon="-3.28731300"><ele>31.400611824</ele><time>2007-04-30T16:56:09Z</time></trkpt>
<trkpt lat="47.81932300" lon="-3.28745700"><ele>29.5204716168</ele><time>2007-04-30T16:56:15Z</time></trkpt>
<trkpt lat="47.81922100" lon="-3.28752900"><ele>27.153886764</ele><time>2007-04-30T16:56:19Z</time></trkpt>
<trkpt lat="47.81915400" lon="-3.28761800"><ele>24.937530516</ele><time>2007-04-30T16:56:21Z</time></trkpt>
<trkpt lat="47.81916600" lon="-3.28775300"><ele>24.0655001544</ele><time>2007-04-30T16:56:26Z</time></trkpt>
<trkpt lat="47.81925100" lon="-3.28785200"><ele>24.3532008744</ele><time>2007-04-30T16:56:30Z</time></trkpt>
<trkpt lat="47.81933600" lon="-3.28791500"><ele>24.7479991704</ele><time>2007-04-30T16:56:32Z</time></trkpt>
<trkpt lat="47.81940200" lon="-3.28800500"><ele>24.427513248</ele><time>2007-04-30T16:56:35Z</time></trkpt>
<trkpt lat="47.81933000" lon="-3.28809400"><ele>22.4976501024</ele><time>2007-04-30T16:56:41Z</time></trkpt>
<trkpt lat="47.81923300" lon="-3.28805900"><ele>21.8701248144</ele><time>2007-04-30T16:56:45Z</time></trkpt>
<trkpt lat="47.81913000" lon="-3.28807600"><ele>20.5785159168</ele><time>2007-04-30T16:56:49Z</time></trkpt>
<trkpt lat="47.81902100" lon="-3.28812100"><ele>19.1099224608</ele><time>2007-04-30T16:56:53Z</time></trkpt>
<trkpt lat="47.81896600" lon="-3.28825600"><ele>18.3414250392</ele><time>2007-04-30T16:56:58Z</time></trkpt>
<trkpt lat="47.81896000" lon="-3.28840900"><ele>20.6059969896</ele><time>2007-04-30T16:57:03Z</time></trkpt>
<trkpt lat="47.81896600" lon="-3.28856200"><ele>22.8768557448</ele><time>2007-04-30T16:57:08Z</time></trkpt>
<trkpt lat="47.81896000" lon="-3.28871400"><ele>25.1025848976</ele><time>2007-04-30T16:57:12Z</time></trkpt>
<trkpt lat="47.81894800" lon="-3.28886700"><ele>27.354471072</ele><time>2007-04-30T16:57:16Z</time></trkpt>
<trkpt lat="47.81899100" lon="-3.28901100"><ele>29.2012749984</ele><time>2007-04-30T16:57:21Z</time></trkpt>
<trkpt lat="47.81899700" lon="-3.28916300"><ele>31.1280346704</ele><time>2007-04-30T16:57:26Z</time></trkpt>
<trkpt lat="47.81900300" lon="-3.28930700"><ele>32.98037346</ele><time>2007-04-30T16:57:31Z</time></trkpt>
<trkpt lat="47.81902100" lon="-3.28945100"><ele>34.8847007664</ele><time>2007-04-30T16:57:36Z</time></trkpt>
<trkpt lat="47.81903300" lon="-3.28958600"><ele>36.6935692848</ele><time>2007-04-30T16:57:42Z</time></trkpt>
<trkpt lat="47.81905100" lon="-3.28972000"><ele>38.5480919664</ele><time>2007-04-30T16:57:47Z</time></trkpt>
<trkpt lat="47.81907500" lon="-3.28986400"><ele>40.6169015448</ele><time>2007-04-30T16:57:52Z</time></trkpt>
<trkpt lat="47.81909400" lon="-3.28999900"><ele>42.8872488456</ele><time>2007-04-30T16:57:58Z</time></trkpt>
<trkpt lat="47.81907500" lon="-3.29015200"><ele>44.759281068</ele><time>2007-04-30T16:58:04Z</time></trkpt>
<trkpt lat="47.81907500" lon="-3.29030400"><ele>46.9807738056</ele><time>2007-04-30T16:58:10Z</time></trkpt>
<trkpt lat="47.81907500" lon="-3.29045700"><ele>49.1775436056</ele><time>2007-04-30T16:58:17Z</time></trkpt>
<trkpt lat="47.81906900" lon="-3.29059200"><ele>51.027851208</ele><time>2007-04-30T16:58:23Z</time></trkpt>
<trkpt lat="47.81907500" lon="-3.29073500"><ele>53.1573906624</ele><time>2007-04-30T16:58:31Z</time></trkpt>
<trkpt lat="47.81911200" lon="-3.29087900"><ele>55.9206620472</ele><time>2007-04-30T16:58:39Z</time></trkpt>
<trkpt lat="47.81913000" lon="-3.29101400"><ele>57.753997776</ele><time>2007-04-30T16:58:50Z</time></trkpt>
<trkpt lat="47.81913000" lon="-3.29114900"><ele>58.9407539496</ele><time>2007-04-30T16:58:59Z</time></trkpt>
<trkpt lat="47.81916600" lon="-3.29127400"><ele>60.5642281728</ele><time>2007-04-30T16:59:05Z</time></trkpt>
<trkpt lat="47.81917800" lon="-3.29140900"><ele>61.8668479704</ele><time>2007-04-30T16:59:12Z</time></trkpt>
<trkpt lat="47.81912400" lon="-3.29153500"><ele>62.1220740792</ele><time>2007-04-30T16:59:45Z</time></trkpt>
<trkpt lat="47.81912400" lon="-3.29167900"><ele>62.7700005456</ele><time>2007-04-30T16:59:51Z</time></trkpt>
<trkpt lat="47.81913600" lon="-3.29182200"><ele>63.04000092</ele><time>2007-04-30T16:59:57Z</time></trkpt>
<trkpt lat="47.81920200" lon="-3.29193900"><ele>63.9999999144</ele><time>2007-04-30T17:00:04Z</time></trkpt>
<trkpt lat="47.81923300" lon="-3.29208300"><ele>64.4800032216</ele><time>2007-04-30T17:00:09Z</time></trkpt>
<trkpt lat="47.81925100" lon="-3.29222700"><ele>64.8399964056</ele><time>2007-04-30T17:00:13Z</time></trkpt>
<trkpt lat="47.81928700" lon="-3.29236100"><ele>65.1259993896</ele><time>2007-04-30T17:00:17Z</time></trkpt>
<trkpt lat="47.81932300" lon="-3.29251400"><ele>65.2246171248</ele><time>2007-04-30T17:00:21Z</time></trkpt>
<trkpt lat="47.81932300" lon="-3.29265800"><ele>64.8276520056</ele><time>2007-04-30T17:00:25Z</time></trkpt>
<trkpt lat="47.81933000" lon="-3.29281100"><ele>64.5280457976</ele><time>2007-04-30T17:00:28Z</time></trkpt>
<trkpt lat="47.81933000" lon="-3.29295400"><ele>64.1664810648</ele><time>2007-04-30T17:00:31Z</time></trkpt>
<trkpt lat="47.81934200" lon="-3.29309800"><ele>63.506568948</ele><time>2007-04-30T17:00:35Z</time></trkpt>
<trkpt lat="47.81933000" lon="-3.29323300"><ele>62.3486364912</ele><time>2007-04-30T17:00:42Z</time></trkpt>
<trkpt lat="47.81923300" lon="-3.29317000"><ele>60.9189071688</ele><time>2007-04-30T17:00:52Z</time></trkpt>
<trkpt lat="47.81914800" lon="-3.29308900"><ele>59.8467176952</ele><time>2007-04-30T17:00:56Z</time></trkpt>
<trkpt lat="47.81906300" lon="-3.29300800"><ele>58.8580437264</ele><time>2007-04-30T17:00:58Z</time></trkpt>
<trkpt lat="47.81896000" lon="-3.29289100"><ele>57.7376860992</ele><time>2007-04-30T17:01:01Z</time></trkpt>
<trkpt lat="47.81886400" lon="-3.29277500"><ele>56.2004013912</ele><time>2007-04-30T17:01:04Z</time></trkpt>
<trkpt lat="47.81877900" lon="-3.29268500"><ele>54.7417983648</ele><time>2007-04-30T17:01:06Z</time></trkpt>
<trkpt lat="47.81868200" lon="-3.29268500"><ele>52.5052110168</ele><time>2007-04-30T17:01:09Z</time></trkpt>
<trkpt lat="47.81864600" lon="-3.29255000"><ele>52.7289046512</ele><time>2007-04-30T17:01:15Z</time></trkpt>
<trkpt lat="47.81856700" lon="-3.29243300"><ele>52.0000037976</ele><time>2007-04-30T17:01:19Z</time></trkpt>
<trkpt lat="47.81851300" lon="-3.29232600"><ele>51.8885649552</ele><time>2007-04-30T17:01:22Z</time></trkpt>
<trkpt lat="47.81846400" lon="-3.29220000"><ele>51.6886216416</ele><time>2007-04-30T17:01:25Z</time></trkpt>
<trkpt lat="47.81841000" lon="-3.29209200"><ele>50.2432633944</ele><time>2007-04-30T17:01:30Z</time></trkpt>
<trkpt lat="47.81838600" lon="-3.29195700"><ele>49.5286140744</ele><time>2007-04-30T17:01:34Z</time></trkpt>
<trkpt lat="47.81834300" lon="-3.29179600"><ele>48.2414055744</ele><time>2007-04-30T17:01:38Z</time></trkpt>
<trkpt lat="47.81824700" lon="-3.29168800"><ele>45.5227011312</ele><time>2007-04-30T17:01:42Z</time></trkpt>
<trkpt lat="47.81817400" lon="-3.29158900"><ele>43.3177261152</ele><time>2007-04-30T17:01:47Z</time></trkpt>
<trkpt lat="47.81815000" lon="-3.29146300"><ele>42.5137938648</ele><time>2007-04-30T17:01:53Z</time></trkpt>
<trkpt lat="47.81812500" lon="-3.29133700"><ele>41.7638511432</ele><time>2007-04-30T17:02:00Z</time></trkpt>
<trkpt lat="47.81814400" lon="-3.29119400"><ele>42.1777076688</ele><time>2007-04-30T17:02:05Z</time></trkpt>
<trkpt lat="47.81811300" lon="-3.29105900"><ele>41.629177092</ele><time>2007-04-30T17:02:07Z</time></trkpt>
<trkpt lat="47.81807700" lon="-3.29087000"><ele>41.3393516112</ele><time>2007-04-30T17:02:09Z</time></trkpt>
<trkpt lat="47.81806500" lon="-3.29069100"><ele>40.2776259216</ele><time>2007-04-30T17:02:11Z</time></trkpt>
<trkpt lat="47.81805300" lon="-3.29052000"><ele>38.9423980104</ele><time>2007-04-30T17:02:13Z</time></trkpt>
<trkpt lat="47.81806500" lon="-3.29038500"><ele>38.262874452</ele><time>2007-04-30T17:02:15Z</time></trkpt>
<trkpt lat="47.81807100" lon="-3.29023200"><ele>37.3034286696</ele><time>2007-04-30T17:02:17Z</time></trkpt>
<trkpt lat="47.81805300" lon="-3.29004400"><ele>34.9989623616</ele><time>2007-04-30T17:02:20Z</time></trkpt>
<trkpt lat="47.81801100" lon="-3.28986400"><ele>32.033111448</ele><time>2007-04-30T17:02:23Z</time></trkpt>
<trkpt lat="47.81797400" lon="-3.28970200"><ele>29.5029946896</ele><time>2007-04-30T17:02:26Z</time></trkpt>
<trkpt lat="47.81794400" lon="-3.28955000"><ele>27.3242970912</ele><time>2007-04-30T17:02:29Z</time></trkpt>
<trkpt lat="47.81792000" lon="-3.28938800"><ele>25.4618682024</ele><time>2007-04-30T17:02:31Z</time></trkpt>
<trkpt lat="47.81792000" lon="-3.28922600"><ele>24.2517317352</ele><time>2007-04-30T17:02:33Z</time></trkpt>
<trkpt lat="47.81793200" lon="-3.28909200"><ele>23.3724212256</ele><time>2007-04-30T17:02:35Z</time></trkpt>
<trkpt lat="47.81797400" lon="-3.28895700"><ele>22.61352348</ele><time>2007-04-30T17:02:38Z</time></trkpt>
<trkpt lat="47.81799800" lon="-3.28882200"><ele>21.5923462488</ele><time>2007-04-30T17:02:42Z</time></trkpt>
<trkpt lat="47.81810700" lon="-3.28881300"><ele>21.6826609272</ele><time>2007-04-30T17:02:54Z</time></trkpt>
<trkpt lat="47.81821600" lon="-3.28886700"><ele>22.428537312</ele><time>2007-04-30T17:02:57Z</time></trkpt>
<trkpt lat="47.81831300" lon="-3.28884900"><ele>23.2399557552</ele><time>2007-04-30T17:02:59Z</time></trkpt>
<trkpt lat="47.81841600" lon="-3.28876800"><ele>23.369611884</ele><time>2007-04-30T17:03:01Z</time></trkpt>
<trkpt lat="47.81850100" lon="-3.28867800"><ele>22.9699803744</ele><time>2007-04-30T17:03:03Z</time></trkpt>
<trkpt lat="47.81856700" lon="-3.28857100"><ele>21.9407997048</ele><time>2007-04-30T17:03:05Z</time></trkpt>
<trkpt lat="47.81862800" lon="-3.28843600"><ele>20.2457505168</ele><time>2007-04-30T17:03:07Z</time></trkpt>
<trkpt lat="47.81869400" lon="-3.28831000"><ele>18.5126875872</ele><time>2007-04-30T17:03:09Z</time></trkpt>
<trkpt lat="47.81876700" lon="-3.28820200"><ele>17.2194690408</ele><time>2007-04-30T17:03:11Z</time></trkpt>
<trkpt lat="47.81883900" lon="-3.28808500"><ele>17.516624352</ele><time>2007-04-30T17:03:13Z</time></trkpt>
<trkpt lat="47.81891800" lon="-3.28795100"><ele>18.481561716</ele><time>2007-04-30T17:03:15Z</time></trkpt>
<trkpt lat="47.81900900" lon="-3.28781600"><ele>20.391593964</ele><time>2007-04-30T17:03:17Z</time></trkpt>
<trkpt lat="47.81908800" lon="-3.28767200"><ele>22.8598442472</ele><time>2007-04-30T17:03:19Z</time></trkpt>
<trkpt lat="47.81915400" lon="-3.28752900"><ele>25.6016007144</ele><time>2007-04-30T17:03:21Z</time></trkpt>
<trkpt lat="47.81923300" lon="-3.28735800"><ele>28.773593964</ele><time>2007-04-30T17:03:23Z</time></trkpt>
<trkpt lat="47.81926300" lon="-3.28719600"><ele>30.7031248776</ele><time>2007-04-30T17:03:25Z</time></trkpt>
<trkpt lat="47.81925100" lon="-3.28703400"><ele>31.8113993184</ele><time>2007-04-30T17:03:27Z</time></trkpt>
<trkpt lat="47.81923900" lon="-3.28688200"><ele>32.5996627152</ele><time>2007-04-30T17:03:29Z</time></trkpt>
<trkpt lat="47.81922100" lon="-3.28670200"><ele>32.7381248208</ele><time>2007-04-30T17:03:31Z</time></trkpt>
<trkpt lat="47.81919600" lon="-3.28653100"><ele>32.4174919848</ele><time>2007-04-30T17:03:33Z</time></trkpt>
<trkpt lat="47.81916600" lon="-3.28636100"><ele>31.985113068</ele><time>2007-04-30T17:03:35Z</time></trkpt>
<trkpt lat="47.81914200" lon="-3.28621700"><ele>31.7085933264</ele><time>2007-04-30T17:03:37Z</time></trkpt>
<trkpt lat="47.81912400" lon="-3.28606400"><ele>31.7703741528</ele><time>2007-04-30T17:03:39Z</time></trkpt>
<trkpt lat="47.81910000" lon="-3.28587600"><ele>31.701543912</ele><time>2007-04-30T17:03:42Z</time></trkpt>
<trkpt lat="47.81908800" lon="-3.28568700"><ele>32.049648372</ele><time>2007-04-30T17:03:45Z</time></trkpt>
<trkpt lat="47.81907500" lon="-3.28552500"><ele>31.9871598</ele><time>2007-04-30T17:03:48Z</time></trkpt>
<trkpt lat="47.81899700" lon="-3.28539100"><ele>29.2759324056</ele><time>2007-04-30T17:03:52Z</time></trkpt>
<trkpt lat="47.81889400" lon="-3.28528300"><ele>25.8704050536</ele><time>2007-04-30T17:03:55Z</time></trkpt>
<trkpt lat="47.81891200" lon="-3.28511200"><ele>26.4612504048</ele><time>2007-04-30T17:03:58Z</time></trkpt>
<trkpt lat="47.81897300" lon="-3.28496800"><ele>28.3504885872</ele><time>2007-04-30T17:04:00Z</time></trkpt>
<trkpt lat="47.81903300" lon="-3.28479800"><ele>29.4189244488</ele><time>2007-04-30T17:04:02Z</time></trkpt>
<trkpt lat="47.81907500" lon="-3.28465400"><ele>29.6858996832</ele><time>2007-04-30T17:04:04Z</time></trkpt>
<trkpt lat="47.81908800" lon="-3.28450100"><ele>29.0700778008</ele><time>2007-04-30T17:04:06Z</time></trkpt>
<trkpt lat="47.81908800" lon="-3.28433100"><ele>27.8120097048</ele><time>2007-04-30T17:04:08Z</time></trkpt>
<trkpt lat="47.81906300" lon="-3.28409700"><ele>24.8248270584</ele><time>2007-04-30T17:04:10Z</time></trkpt>
<trkpt lat="47.81902100" lon="-3.28391700"><ele>21.5214634848</ele><time>2007-04-30T17:04:12Z</time></trkpt>
<trkpt lat="47.81899700" lon="-3.28378300"><ele>19.4309463552</ele><time>2007-04-30T17:04:15Z</time></trkpt>
<trkpt lat="47.81904500" lon="-3.28363000"><ele>19.658056188</ele><time>2007-04-30T17:04:22Z</time></trkpt>
<trkpt lat="47.81908800" lon="-3.28350400"><ele>19.8682194456</ele><time>2007-04-30T17:04:24Z</time></trkpt>
<trkpt lat="47.81913000" lon="-3.28337800"><ele>19.9185943512</ele><time>2007-04-30T17:04:26Z</time></trkpt>
<trkpt lat="47.81919000" lon="-3.28324400"><ele>20.2565002032</ele><time>2007-04-30T17:04:29Z</time></trkpt>
<trkpt lat="47.81926900" lon="-3.28312700"><ele>21.0712891248</ele><time>2007-04-30T17:04:32Z</time></trkpt>
<trkpt lat="47.81933600" lon="-3.28297400"><ele>20.7444764688</ele><time>2007-04-30T17:04:35Z</time></trkpt>
<trkpt lat="47.81940800" lon="-3.28283900"><ele>20.9176616952</ele><time>2007-04-30T17:04:38Z</time></trkpt>
<trkpt lat="47.81946900" lon="-3.28271400"><ele>21.249813228</ele><time>2007-04-30T17:04:41Z</time></trkpt>
<trkpt lat="47.81951700" lon="-3.28256100"><ele>20.7288819864</ele><time>2007-04-30T17:04:45Z</time></trkpt>
<trkpt lat="47.81946300" lon="-3.28241700"><ele>17.8638628752</ele><time>2007-04-30T17:04:49Z</time></trkpt>
<trkpt lat="47.81935400" lon="-3.28229100"><ele>14.4537498072</ele><time>2007-04-30T17:04:52Z</time></trkpt>
<trkpt lat="47.81929300" lon="-3.28217500"><ele>12.2660971848</ele><time>2007-04-30T17:04:55Z</time></trkpt>
<trkpt lat="47.81929900" lon="-3.28203100"><ele>11.0778121344</ele><time>2007-04-30T17:04:58Z</time></trkpt>
<trkpt lat="47.81936000" lon="-3.28186900"><ele>10.6839065976</ele><time>2007-04-30T17:05:01Z</time></trkpt>
<trkpt lat="47.81942000" lon="-3.28176100"><ele>10.635261432</ele><time>2007-04-30T17:05:06Z</time></trkpt>
<trkpt lat="47.81946300" lon="-3.28160900"><ele>9.8438311632</ele><time>2007-04-30T17:05:09Z</time></trkpt>
<trkpt lat="47.81954100" lon="-3.28146500"><ele>10.293003036</ele><time>2007-04-30T17:05:12Z</time></trkpt>
<trkpt lat="47.81960200" lon="-3.28135700"><ele>10.8451567704</ele><time>2007-04-30T17:05:14Z</time></trkpt>
<trkpt lat="47.81967400" lon="-3.28122200"><ele>11.6514624984</ele><time>2007-04-30T17:05:17Z</time></trkpt>
<trkpt lat="47.81975300" lon="-3.28107900"><ele>12.7861195128</ele><time>2007-04-30T17:05:20Z</time></trkpt>
<trkpt lat="47.81980100" lon="-3.28095300"><ele>13.336437132</ele><time>2007-04-30T17:05:22Z</time></trkpt>
<trkpt lat="47.81985000" lon="-3.28082700"><ele>13.5862865688</ele><time>2007-04-30T17:05:24Z</time></trkpt>
<trkpt lat="47.81987400" lon="-3.28069200"><ele>13.0140751656</ele><time>2007-04-30T17:05:26Z</time></trkpt>
<trkpt lat="47.81990400" lon="-3.28056700"><ele>12.6101999256</ele><time>2007-04-30T17:05:28Z</time></trkpt>
<trkpt lat="47.81994700" lon="-3.28042300"><ele>12.1423681968</ele><time>2007-04-30T17:05:31Z</time></trkpt>
<trkpt lat="47.82000700" lon="-3.28028800"><ele>12.3403092792</ele><time>2007-04-30T17:05:34Z</time></trkpt>
<trkpt lat="47.82006800" lon="-3.28017100"><ele>13.4398621728</ele><time>2007-04-30T17:05:37Z</time></trkpt>
<trkpt lat="47.82010400" lon="-3.28003700"><ele>13.1134061328</ele><time>2007-04-30T17:05:40Z</time></trkpt>
<trkpt lat="47.82016400" lon="-3.27985700"><ele>13.0281057192</ele><time>2007-04-30T17:05:43Z</time></trkpt>
<trkpt lat="47.82023700" lon="-3.27972200"><ele>13.8130702656</ele><time>2007-04-30T17:05:46Z</time></trkpt>
<trkpt lat="47.82029800" lon="-3.27961400"><ele>14.4663371328</ele><time>2007-04-30T17:05:49Z</time></trkpt>
<trkpt lat="47.82036400" lon="-3.27950700"><ele>14.8677474552</ele><time>2007-04-30T17:05:52Z</time></trkpt>
<trkpt lat="47.82044300" lon="-3.27938100"><ele>14.7063750576</ele><time>2007-04-30T17:05:55Z</time></trkpt>
<trkpt lat="47.82048500" lon="-3.27924600"><ele>12.9730795656</ele><time>2007-04-30T17:05:58Z</time></trkpt>
<trkpt lat="47.82053300" lon="-3.27910200"><ele>11.5728131256</ele><time>2007-04-30T17:06:01Z</time></trkpt>
<trkpt lat="47.82060600" lon="-3.27895000"><ele>11.7417317616</ele><time>2007-04-30T17:06:05Z</time></trkpt>
<trkpt lat="47.82067900" lon="-3.27882400"><ele>12.1889974152</ele><time>2007-04-30T17:06:08Z</time></trkpt>
<trkpt lat="47.82073900" lon="-3.27871600"><ele>11.9505901704</ele><time>2007-04-30T17:06:11Z</time></trkpt>
<trkpt lat="47.82079400" lon="-3.27858100"><ele>10.6531876344</ele><time>2007-04-30T17:06:16Z</time></trkpt>
<trkpt lat="47.82089000" lon="-3.27856300"><ele>12.1272565176</ele><time>2007-04-30T17:06:24Z</time></trkpt>
<trkpt lat="47.82098100" lon="-3.27852700"><ele>12.9253875096</ele><time>2007-04-30T17:06:33Z</time></trkpt>
<trkpt lat="47.82106600" lon="-3.27849100"><ele>14.3903922504</ele><time>2007-04-30T17:06:42Z</time></trkpt>
<trkpt lat="47.82115100" lon="-3.27842900"><ele>15.142226256</ele><time>2007-04-30T17:07:04Z</time></trkpt>
<trkpt lat="47.82124100" lon="-3.27835700"><ele>16.1714020488</ele><time>2007-04-30T17:07:09Z</time></trkpt>
<trkpt lat="47.82135000" lon="-3.27831200"><ele>17.8463115768</ele><time>2007-04-30T17:07:12Z</time></trkpt>
<trkpt lat="47.82144700" lon="-3.27824900"><ele>18.2522372064</ele><time>2007-04-30T17:07:15Z</time></trkpt>
<trkpt lat="47.82153800" lon="-3.27816800"><ele>17.9741401248</ele><time>2007-04-30T17:07:18Z</time></trkpt>
<trkpt lat="47.82161600" lon="-3.27802400"><ele>15.485565168</ele><time>2007-04-30T17:07:21Z</time></trkpt>
<trkpt lat="47.82167100" lon="-3.27789900"><ele>12.8958560472</ele><time>2007-04-30T17:07:23Z</time></trkpt>
<trkpt lat="47.82176200" lon="-3.27782700"><ele>12.59861082</ele><time>2007-04-30T17:07:25Z</time></trkpt>
<trkpt lat="47.82186500" lon="-3.27775500"><ele>13.5278359872</ele><time>2007-04-30T17:07:27Z</time></trkpt>
<trkpt lat="47.82196100" lon="-3.27770100"><ele>14.7102557712</ele><time>2007-04-30T17:07:29Z</time></trkpt>
<trkpt lat="47.82203400" lon="-3.27761100"><ele>14.9121562056</ele><time>2007-04-30T17:07:31Z</time></trkpt>
<trkpt lat="47.82208800" lon="-3.27747600"><ele>13.7420625336</ele><time>2007-04-30T17:07:33Z</time></trkpt>
<trkpt lat="47.82208200" lon="-3.27733300"><ele>10.9668902328</ele><time>2007-04-30T17:07:36Z</time></trkpt>
<trkpt lat="47.82197300" lon="-3.27732400"><ele>8.213137752</ele><time>2007-04-30T17:07:40Z</time></trkpt>
<trkpt lat="47.82187100" lon="-3.27736900"><ele>7.5108499008</ele><time>2007-04-30T17:07:43Z</time></trkpt>
<trkpt lat="47.82177400" lon="-3.27730600"><ele>5.710118628</ele><time>2007-04-30T17:07:49Z</time></trkpt>
<trkpt lat="47.82170700" lon="-3.27717100"><ele>3.5921021376</ele><time>2007-04-30T17:07:55Z</time></trkpt>
<trkpt lat="47.82164700" lon="-3.27704500"><ele>2.8229609784</ele><time>2007-04-30T17:07:59Z</time></trkpt>
<trkpt lat="47.82159200" lon="-3.27692800"><ele>2.3967030552</ele><time>2007-04-30T17:08:02Z</time></trkpt>
<trkpt lat="47.82153800" lon="-3.27681200"><ele>2.0924187768</ele><time>2007-04-30T17:08:05Z</time></trkpt>
<trkpt lat="47.82147700" lon="-3.27669500"><ele>2.0849999448</ele><time>2007-04-30T17:08:08Z</time></trkpt>
<trkpt lat="47.82141700" lon="-3.27656900"><ele>2.2349999496</ele><time>2007-04-30T17:08:11Z</time></trkpt>
<trkpt lat="47.82135000" lon="-3.27643400"><ele>2.4250799352</ele><time>2007-04-30T17:08:15Z</time></trkpt>
<trkpt lat="47.82130200" lon="-3.27631800"><ele>2.7985888656</ele><time>2007-04-30T17:08:26Z</time></trkpt>
<trkpt lat="47.82130200" lon="-3.27618300"><ele>3.1247879592</ele><time>2007-04-30T17:08:36Z</time></trkpt>
<trkpt lat="47.82138700" lon="-3.27608400"><ele>3.0929220336</ele><time>2007-04-30T17:08:40Z</time></trkpt>
<trkpt lat="47.82145900" lon="-3.27599400"><ele>3.035500152</ele><time>2007-04-30T17:08:44Z</time></trkpt>
<trkpt lat="47.82152000" lon="-3.27589500"><ele>2.992780908</ele><time>2007-04-30T17:08:47Z</time></trkpt>
<trkpt lat="47.82157400" lon="-3.27575200"><ele>2.9768980848</ele><time>2007-04-30T17:08:51Z</time></trkpt>
<trkpt lat="47.82161600" lon="-3.27563500"><ele>2.9183249736</ele><time>2007-04-30T17:08:54Z</time></trkpt>
<trkpt lat="47.82165300" lon="-3.27550000"><ele>2.9063749848</ele><time>2007-04-30T17:08:57Z</time></trkpt>
<trkpt lat="47.82168300" lon="-3.27532900"><ele>2.9381247816</ele><time>2007-04-30T17:09:00Z</time></trkpt>
<trkpt lat="47.82170700" lon="-3.27518600"><ele>2.9850499608</ele><time>2007-04-30T17:09:03Z</time></trkpt>
<trkpt lat="47.82173100" lon="-3.27503300"><ele>3.000000096</ele><time>2007-04-30T17:09:06Z</time></trkpt>
<trkpt lat="47.82175000" lon="-3.27487100"><ele>3.000000096</ele><time>2007-04-30T17:09:09Z</time></trkpt>
<trkpt lat="47.82175600" lon="-3.27471000"><ele>3.000000096</ele><time>2007-04-30T17:09:12Z</time></trkpt>
<trkpt lat="47.82175600" lon="-3.27455700"><ele>3.000000096</ele><time>2007-04-30T17:09:15Z</time></trkpt>
<trkpt lat="47.82173100" lon="-3.27437700"><ele>3.0356501136</ele><time>2007-04-30T17:09:18Z</time></trkpt>
<trkpt lat="47.82170100" lon="-3.27420600"><ele>3.058815828</ele><time>2007-04-30T17:09:21Z</time></trkpt>
<trkpt lat="47.82167100" lon="-3.27404500"><ele>3.038475</ele><time>2007-04-30T17:09:24Z</time></trkpt>
<trkpt lat="47.82164100" lon="-3.27390100"><ele>3.0029630568</ele><time>2007-04-30T17:09:27Z</time></trkpt>
<trkpt lat="47.82160400" lon="-3.27373900"><ele>3.000000096</ele><time>2007-04-30T17:09:30Z</time></trkpt>
<trkpt lat="47.82157400" lon="-3.27357800"><ele>3.000000096</ele><time>2007-04-30T17:09:33Z</time></trkpt>
<trkpt lat="47.82154400" lon="-3.27342500"><ele>3.000000096</ele><time>2007-04-30T17:09:36Z</time></trkpt>
<trkpt lat="47.82152000" lon="-3.27329900"><ele>3.000000096</ele><time>2007-04-30T17:09:38Z</time></trkpt>
<trkpt lat="47.82148300" lon="-3.27312000"><ele>3.000000096</ele><time>2007-04-30T17:09:41Z</time></trkpt>
<trkpt lat="47.82144700" lon="-3.27297600"><ele>3.000000096</ele><time>2007-04-30T17:09:43Z</time></trkpt>
<trkpt lat="47.82141100" lon="-3.27284100"><ele>3.000000096</ele><time>2007-04-30T17:09:45Z</time></trkpt>
<trkpt lat="47.82137400" lon="-3.27269700"><ele>3.000000096</ele><time>2007-04-30T17:09:47Z</time></trkpt>
<trkpt lat="47.82133200" lon="-3.27255400"><ele>3.000000096</ele><time>2007-04-30T17:09:49Z</time></trkpt>
<trkpt lat="47.82129000" lon="-3.27240100"><ele>3.000000096</ele><time>2007-04-30T17:09:51Z</time></trkpt>
<trkpt lat="47.82124700" lon="-3.27224800"><ele>3.4667808744</ele><time>2007-04-30T17:09:53Z</time></trkpt>
<trkpt lat="47.82121100" lon="-3.27212200"><ele>3.9365810016</ele><time>2007-04-30T17:09:55Z</time></trkpt>
<trkpt lat="47.82117500" lon="-3.27194300"><ele>4.296264204</ele><time>2007-04-30T17:09:58Z</time></trkpt>
<trkpt lat="47.82114500" lon="-3.27179000"><ele>4.4771090544</ele><time>2007-04-30T17:10:01Z</time></trkpt>
<trkpt lat="47.82112000" lon="-3.27161900"><ele>4.530374988</ele><time>2007-04-30T17:10:04Z</time></trkpt>
<trkpt lat="47.82109600" lon="-3.27144000"><ele>4.5425438232</ele><time>2007-04-30T17:10:07Z</time></trkpt>
<trkpt lat="47.82107800" lon="-3.27126000"><ele>4.434327936</ele><time>2007-04-30T17:10:10Z</time></trkpt>
<trkpt lat="47.82105400" lon="-3.27108900"><ele>4.3007807304</ele><time>2007-04-30T17:10:13Z</time></trkpt>
<trkpt lat="47.82104800" lon="-3.27093700"><ele>4.310000016</ele><time>2007-04-30T17:10:16Z</time></trkpt>
<trkpt lat="47.82103000" lon="-3.27079300"><ele>4.4200002024</ele><time>2007-04-30T17:10:18Z</time></trkpt>
<trkpt lat="47.82101800" lon="-3.27061300"><ele>4.5100003272</ele><time>2007-04-30T17:10:21Z</time></trkpt>
<trkpt lat="47.82100500" lon="-3.27044300"><ele>4.5999998424</ele><time>2007-04-30T17:10:24Z</time></trkpt>
<trkpt lat="47.82099900" lon="-3.27028100"><ele>4.6700002104</ele><time>2007-04-30T17:10:27Z</time></trkpt>
<trkpt lat="47.82098100" lon="-3.27009200"><ele>4.7899999704</ele><time>2007-04-30T17:10:30Z</time></trkpt>
<trkpt lat="47.82095700" lon="-3.26990400"><ele>4.929999792</ele><time>2007-04-30T17:10:33Z</time></trkpt>
<trkpt lat="47.82094500" lon="-3.26970600"><ele>5.088251952</ele><time>2007-04-30T17:10:36Z</time></trkpt>
<trkpt lat="47.82093300" lon="-3.26956200"><ele>4.9540610088</ele><time>2007-04-30T17:10:38Z</time></trkpt>
<trkpt lat="47.82093300" lon="-3.26940100"><ele>4.6352892816</ele><time>2007-04-30T17:10:41Z</time></trkpt>
<trkpt lat="47.82092700" lon="-3.26923000"><ele>4.377113928</ele><time>2007-04-30T17:10:44Z</time></trkpt>
<trkpt lat="47.82090900" lon="-3.26903200"><ele>4.3169058696</ele><time>2007-04-30T17:10:47Z</time></trkpt>
<trkpt lat="47.82090900" lon="-3.26887100"><ele>4.3874996832</ele><time>2007-04-30T17:10:50Z</time></trkpt>
<trkpt lat="47.82089000" lon="-3.26872700"><ele>4.6981500144</ele><time>2007-04-30T17:10:52Z</time></trkpt>
<trkpt lat="47.82089000" lon="-3.26855600"><ele>4.7069002128</ele><time>2007-04-30T17:10:55Z</time></trkpt>
<trkpt lat="47.82089000" lon="-3.26840300"><ele>4.6795630056</ele><time>2007-04-30T17:10:58Z</time></trkpt>
<trkpt lat="47.82089700" lon="-3.26825100"><ele>4.5540939144</ele><time>2007-04-30T17:11:01Z</time></trkpt>
<trkpt lat="47.82089000" lon="-3.26808000"><ele>4.5941748096</ele><time>2007-04-30T17:11:04Z</time></trkpt>
<trkpt lat="47.82089000" lon="-3.26794500"><ele>4.5402971424</ele><time>2007-04-30T17:11:06Z</time></trkpt>
<trkpt lat="47.82088400" lon="-3.26781000"><ele>4.518125076</ele><time>2007-04-30T17:11:08Z</time></trkpt>
<trkpt lat="47.82087200" lon="-3.26765800"><ele>4.5799997808</ele><time>2007-04-30T17:11:10Z</time></trkpt>
<trkpt lat="47.82086600" lon="-3.26752300"><ele>4.679999784</ele><time>2007-04-30T17:11:12Z</time></trkpt>
<trkpt lat="47.82088400" lon="-3.26737900"><ele>4.5999998424</ele><time>2007-04-30T17:11:15Z</time></trkpt>
<trkpt lat="47.82089000" lon="-3.26720900"><ele>4.5999998424</ele><time>2007-04-30T17:11:18Z</time></trkpt>
<trkpt lat="47.82089000" lon="-3.26707400"><ele>4.6599997224</ele><time>2007-04-30T17:11:20Z</time></trkpt>
<trkpt lat="47.82089000" lon="-3.26688500"><ele>4.6468829592</ele><time>2007-04-30T17:11:23Z</time></trkpt>
<trkpt lat="47.82089000" lon="-3.26669700"><ele>4.5949166928</ele><time>2007-04-30T17:11:26Z</time></trkpt>
<trkpt lat="47.82089700" lon="-3.26651700"><ele>4.4881001424</ele><time>2007-04-30T17:11:29Z</time></trkpt>
<trkpt lat="47.82090300" lon="-3.26632800"><ele>4.4326192272</ele><time>2007-04-30T17:11:32Z</time></trkpt>
<trkpt lat="47.82090300" lon="-3.26619400"><ele>4.5592499112</ele><time>2007-04-30T17:11:34Z</time></trkpt>
<trkpt lat="47.82091500" lon="-3.26600500"><ele>4.6779381168</ele><time>2007-04-30T17:11:37Z</time></trkpt>
<trkpt lat="47.82091500" lon="-3.26580700"><ele>4.895077332</ele><time>2007-04-30T17:11:40Z</time></trkpt>
<trkpt lat="47.82091500" lon="-3.26567300"><ele>5.0823720552</ele><time>2007-04-30T17:11:42Z</time></trkpt>
<trkpt lat="47.82092700" lon="-3.26551100"><ele>5.4087500664</ele><time>2007-04-30T17:11:45Z</time></trkpt>
<trkpt lat="47.82094500" lon="-3.26533100"><ele>5.7474499224</ele><time>2007-04-30T17:11:48Z</time></trkpt>
<trkpt lat="47.82095700" lon="-3.26514200"><ele>6.163366896</ele><time>2007-04-30T17:11:51Z</time></trkpt>
<trkpt lat="47.82096300" lon="-3.26496300"><ele>6.4903749288</ele><time>2007-04-30T17:11:54Z</time></trkpt>
<trkpt lat="47.82096300" lon="-3.26482800"><ele>6.6357111888</ele><time>2007-04-30T17:11:56Z</time></trkpt>
<trkpt lat="47.82099900" lon="-3.26466600"><ele>6.6013632768</ele><time>2007-04-30T17:11:59Z</time></trkpt>
<trkpt lat="47.82101800" lon="-3.26451400"><ele>6.6768689424</ele><time>2007-04-30T17:12:02Z</time></trkpt>
<trkpt lat="47.82104200" lon="-3.26435200"><ele>6.756419304</ele><time>2007-04-30T17:12:05Z</time></trkpt>
<trkpt lat="47.82106600" lon="-3.26417200"><ele>6.867649968</ele><time>2007-04-30T17:12:08Z</time></trkpt>
<trkpt lat="47.82109600" lon="-3.26400200"><ele>6.9009938688</ele><time>2007-04-30T17:12:11Z</time></trkpt>
<trkpt lat="47.82111400" lon="-3.26382200"><ele>6.9674158848</ele><time>2007-04-30T17:12:14Z</time></trkpt>
<trkpt lat="47.82113200" lon="-3.26365100"><ele>6.9800001624</ele><time>2007-04-30T17:12:17Z</time></trkpt>
<trkpt lat="47.82112600" lon="-3.26346300"><ele>7.119999984</ele><time>2007-04-30T17:12:20Z</time></trkpt>
<trkpt lat="47.82113200" lon="-3.26327400"><ele>7.1399997408</ele><time>2007-04-30T17:12:23Z</time></trkpt>
<trkpt lat="47.82114500" lon="-3.26308500"><ele>7.0999999224</ele><time>2007-04-30T17:12:26Z</time></trkpt>
<trkpt lat="47.82115100" lon="-3.26289700"><ele>7.0185180432</ele><time>2007-04-30T17:12:29Z</time></trkpt>
<trkpt lat="47.82115100" lon="-3.26276200"><ele>6.951188028</ele><time>2007-04-30T17:12:31Z</time></trkpt>
<trkpt lat="47.82115100" lon="-3.26261800"><ele>6.8630999136</ele><time>2007-04-30T17:12:33Z</time></trkpt>
<trkpt lat="47.82115100" lon="-3.26247400"><ele>6.7623001152</ele><time>2007-04-30T17:12:35Z</time></trkpt>
<trkpt lat="47.82115100" lon="-3.26227700"><ele>6.6930309624</ele><time>2007-04-30T17:12:38Z</time></trkpt>
<trkpt lat="47.82115100" lon="-3.26213300"><ele>6.6963337752</ele><time>2007-04-30T17:12:40Z</time></trkpt>
<trkpt lat="47.82115100" lon="-3.26199800"><ele>6.6821252184</ele><time>2007-04-30T17:12:42Z</time></trkpt>
<trkpt lat="47.82115100" lon="-3.26180100"><ele>6.6299382768</ele><time>2007-04-30T17:12:45Z</time></trkpt>
<trkpt lat="47.82115100" lon="-3.26166600"><ele>6.6460600632</ele><time>2007-04-30T17:12:47Z</time></trkpt>
<trkpt lat="47.82115100" lon="-3.26153100"><ele>6.8592749784</ele><time>2007-04-30T17:12:49Z</time></trkpt>
<trkpt lat="47.82113900" lon="-3.26134300"><ele>7.0844529888</ele><time>2007-04-30T17:12:52Z</time></trkpt>
<trkpt lat="47.82112000" lon="-3.26115400"><ele>7.2072121032</ele><time>2007-04-30T17:12:55Z</time></trkpt>
<trkpt lat="47.82110200" lon="-3.26101000"><ele>7.2492470712</ele><time>2007-04-30T17:12:57Z</time></trkpt>
<trkpt lat="47.82108400" lon="-3.26086700"><ele>7.3672500864</ele><time>2007-04-30T17:12:59Z</time></trkpt>
<trkpt lat="47.82106000" lon="-3.26074100"><ele>7.3942989528</ele><time>2007-04-30T17:13:01Z</time></trkpt>
<trkpt lat="47.82103600" lon="-3.26061500"><ele>7.3969558944</ele><time>2007-04-30T17:13:03Z</time></trkpt>
<trkpt lat="47.82100500" lon="-3.26046200"><ele>7.3445668704</ele><time>2007-04-30T17:13:06Z</time></trkpt>
<trkpt lat="47.82097500" lon="-3.26030100"><ele>7.2824687472</ele><time>2007-04-30T17:13:09Z</time></trkpt>
<trkpt lat="47.82093900" lon="-3.26015700"><ele>7.370982972</ele><time>2007-04-30T17:13:12Z</time></trkpt>
<trkpt lat="47.82089700" lon="-3.26000400"><ele>7.7296582008</ele><time>2007-04-30T17:13:15Z</time></trkpt>
<trkpt lat="47.82086000" lon="-3.25987800"><ele>7.9192971408</ele><time>2007-04-30T17:13:18Z</time></trkpt>
<trkpt lat="47.82092700" lon="-3.25996800"><ele>7.6807079304</ele><time>2007-04-30T17:13:28Z</time></trkpt>
<trkpt lat="47.82102400" lon="-3.25995900"><ele>8.4813623616</ele><time>2007-04-30T17:13:32Z</time></trkpt>
<trkpt lat="47.82113900" lon="-3.25988700"><ele>10.7591562312</ele><time>2007-04-30T17:13:35Z</time></trkpt>
<trkpt lat="47.82122300" lon="-3.25983300"><ele>12.6480627912</ele><time>2007-04-30T17:13:37Z</time></trkpt>
<trkpt lat="47.82133200" lon="-3.25977100"><ele>15.346806492</ele><time>2007-04-30T17:13:40Z</time></trkpt>
<trkpt lat="47.82142900" lon="-3.25970800"><ele>18.0559310712</ele><time>2007-04-30T17:13:43Z</time></trkpt>
<trkpt lat="47.82151400" lon="-3.25965400"><ele>21.275663316</ele><time>2007-04-30T17:13:46Z</time></trkpt>
<trkpt lat="47.82156200" lon="-3.25951000"><ele>23.482608864</ele><time>2007-04-30T17:13:51Z</time></trkpt>
<trkpt lat="47.82154400" lon="-3.25937500"><ele>23.547235608</ele><time>2007-04-30T17:13:53Z</time></trkpt>
<trkpt lat="47.82152000" lon="-3.25918700"><ele>23.7404690544</ele><time>2007-04-30T17:13:56Z</time></trkpt>
<trkpt lat="47.82146500" lon="-3.25906100"><ele>23.0223523296</ele><time>2007-04-30T17:13:58Z</time></trkpt>
<trkpt lat="47.82138100" lon="-3.25892600"><ele>20.753271168</ele><time>2007-04-30T17:14:01Z</time></trkpt>
<trkpt lat="47.82131400" lon="-3.25882700"><ele>19.0438631568</ele><time>2007-04-30T17:14:03Z</time></trkpt>
<trkpt lat="47.82125300" lon="-3.25872900"><ele>17.6398431048</ele><time>2007-04-30T17:14:05Z</time></trkpt>
<trkpt lat="47.82119900" lon="-3.25861200"><ele>16.5524538648</ele><time>2007-04-30T17:14:07Z</time></trkpt>
<trkpt lat="47.82115700" lon="-3.25849500"><ele>15.9248066568</ele><time>2007-04-30T17:14:09Z</time></trkpt>
<trkpt lat="47.82111400" lon="-3.25836000"><ele>15.447859884</ele><time>2007-04-30T17:14:11Z</time></trkpt>
<trkpt lat="47.82108400" lon="-3.25822500"><ele>14.1534376824</ele><time>2007-04-30T17:14:13Z</time></trkpt>
<trkpt lat="47.82105400" lon="-3.25808200"><ele>12.77891526</ele><time>2007-04-30T17:14:15Z</time></trkpt>
<trkpt lat="47.82104200" lon="-3.25793800"><ele>11.9565974736</ele><time>2007-04-30T17:14:17Z</time></trkpt>
<trkpt lat="47.82103000" lon="-3.25780300"><ele>11.2469700384</ele><time>2007-04-30T17:14:19Z</time></trkpt>
<trkpt lat="47.82103000" lon="-3.25766900"><ele>10.6591528752</ele><time>2007-04-30T17:14:21Z</time></trkpt>
<trkpt lat="47.82104200" lon="-3.25753400"><ele>10.1507891472</ele><time>2007-04-30T17:14:23Z</time></trkpt>
<trkpt lat="47.82107200" lon="-3.25739900"><ele>9.6787109448</ele><time>2007-04-30T17:14:25Z</time></trkpt>
<trkpt lat="47.82111400" lon="-3.25728200"><ele>9.5214310968</ele><time>2007-04-30T17:14:27Z</time></trkpt>
<trkpt lat="47.82116900" lon="-3.25716500"><ele>9.8868847728</ele><time>2007-04-30T17:14:29Z</time></trkpt>
<trkpt lat="47.82123500" lon="-3.25705800"><ele>10.420225032</ele><time>2007-04-30T17:14:31Z</time></trkpt>
<trkpt lat="47.82130800" lon="-3.25695900"><ele>11.1594247728</ele><time>2007-04-30T17:14:33Z</time></trkpt>
<trkpt lat="47.82138100" lon="-3.25685100"><ele>11.6590748784</ele><time>2007-04-30T17:14:35Z</time></trkpt>
<trkpt lat="47.82144700" lon="-3.25674300"><ele>11.7747534888</ele><time>2007-04-30T17:14:37Z</time></trkpt>
<trkpt lat="47.82153800" lon="-3.25660000"><ele>11.5391159616</ele><time>2007-04-30T17:14:40Z</time></trkpt>
<trkpt lat="47.82160400" lon="-3.25649200"><ele>11.3417872224</ele><time>2007-04-30T17:14:42Z</time></trkpt>
<trkpt lat="47.82167100" lon="-3.25638400"><ele>12.0227966808</ele><time>2007-04-30T17:14:44Z</time></trkpt>
<trkpt lat="47.82173700" lon="-3.25628500"><ele>13.0107251088</ele><time>2007-04-30T17:14:46Z</time></trkpt>
<trkpt lat="47.82179800" lon="-3.25618600"><ele>13.6468372224</ele><time>2007-04-30T17:14:48Z</time></trkpt>
<trkpt lat="47.82185800" lon="-3.25607800"><ele>13.9763497968</ele><time>2007-04-30T17:14:50Z</time></trkpt>
<trkpt lat="47.82193100" lon="-3.25597100"><ele>14.2416812448</ele><time>2007-04-30T17:14:52Z</time></trkpt>
<trkpt lat="47.82200400" lon="-3.25587200"><ele>14.285462412</ele><time>2007-04-30T17:14:54Z</time></trkpt>
<trkpt lat="47.82206400" lon="-3.25577300"><ele>13.9090767792</ele><time>2007-04-30T17:14:56Z</time></trkpt>
<trkpt lat="47.82213100" lon="-3.25566500"><ele>14.8821135936</ele><time>2007-04-30T17:14:58Z</time></trkpt>
<trkpt lat="47.82219700" lon="-3.25556600"><ele>15.9006034032</ele><time>2007-04-30T17:15:00Z</time></trkpt>
<trkpt lat="47.82227000" lon="-3.25546800"><ele>16.9990520064</ele><time>2007-04-30T17:15:02Z</time></trkpt>
<trkpt lat="47.82233600" lon="-3.25536000"><ele>17.7859249056</ele><time>2007-04-30T17:15:04Z</time></trkpt>
<trkpt lat="47.82241500" lon="-3.25525200"><ele>18.7817839248</ele><time>2007-04-30T17:15:06Z</time></trkpt>
<trkpt lat="47.82248800" lon="-3.25514400"><ele>19.5078562344</ele><time>2007-04-30T17:15:08Z</time></trkpt>
<trkpt lat="47.82255400" lon="-3.25504500"><ele>19.7527313352</ele><time>2007-04-30T17:15:10Z</time></trkpt>
<trkpt lat="47.82263300" lon="-3.25494700"><ele>19.3515624144</ele><time>2007-04-30T17:15:12Z</time></trkpt>
<trkpt lat="47.82270500" lon="-3.25483900"><ele>18.741874632</ele><time>2007-04-30T17:15:14Z</time></trkpt>
<trkpt lat="47.82278400" lon="-3.25474000"><ele>18.2796877992</ele><time>2007-04-30T17:15:16Z</time></trkpt>
<trkpt lat="47.82285100" lon="-3.25463200"><ele>17.6165618712</ele><time>2007-04-30T17:15:18Z</time></trkpt>
<trkpt lat="47.82292300" lon="-3.25452400"><ele>17.0096684952</ele><time>2007-04-30T17:15:20Z</time></trkpt>
<trkpt lat="47.82300200" lon="-3.25441700"><ele>16.6634751312</ele><time>2007-04-30T17:15:22Z</time></trkpt>
<trkpt lat="47.82307400" lon="-3.25431800"><ele>16.3726941024</ele><time>2007-04-30T17:15:24Z</time></trkpt>
<trkpt lat="47.82314100" lon="-3.25421900"><ele>16.0770816888</ele><time>2007-04-30T17:15:26Z</time></trkpt>
<trkpt lat="47.82321400" lon="-3.25412000"><ele>15.7835998272</ele><time>2007-04-30T17:15:28Z</time></trkpt>
<trkpt lat="47.82329200" lon="-3.25400300"><ele>15.2173996896</ele><time>2007-04-30T17:15:30Z</time></trkpt>
<trkpt lat="47.82335900" lon="-3.25388700"><ele>14.5230244464</ele><time>2007-04-30T17:15:32Z</time></trkpt>
<trkpt lat="47.82342500" lon="-3.25377000"><ele>14.2096501176</ele><time>2007-04-30T17:15:34Z</time></trkpt>
<trkpt lat="47.82348000" lon="-3.25366200"><ele>13.7880001608</ele><time>2007-04-30T17:15:36Z</time></trkpt>
<trkpt lat="47.82353400" lon="-3.25353600"><ele>13.1523809088</ele><time>2007-04-30T17:15:38Z</time></trkpt>
<trkpt lat="47.82360100" lon="-3.25341900"><ele>12.8288497296</ele><time>2007-04-30T17:15:40Z</time></trkpt>
<trkpt lat="47.82368600" lon="-3.25332100"><ele>12.7329626976</ele><time>2007-04-30T17:15:42Z</time></trkpt>
<trkpt lat="47.82377600" lon="-3.25325800"><ele>12.9614048112</ele><time>2007-04-30T17:15:44Z</time></trkpt>
<trkpt lat="47.82387900" lon="-3.25320400"><ele>13.4143754064</ele><time>2007-04-30T17:15:46Z</time></trkpt>
<trkpt lat="47.82397600" lon="-3.25314100"><ele>13.6467972936</ele><time>2007-04-30T17:15:48Z</time></trkpt>
<trkpt lat="47.82407300" lon="-3.25307800"><ele>13.8296870472</ele><time>2007-04-30T17:15:50Z</time></trkpt>
<trkpt lat="47.82415700" lon="-3.25300600"><ele>13.8432159</ele><time>2007-04-30T17:15:52Z</time></trkpt>
<trkpt lat="47.82424800" lon="-3.25293400"><ele>13.8592425888</ele><time>2007-04-30T17:15:54Z</time></trkpt>
<trkpt lat="47.82433900" lon="-3.25287200"><ele>13.9135369176</ele><time>2007-04-30T17:15:56Z</time></trkpt>
<trkpt lat="47.82441800" lon="-3.25280000"><ele>13.7688532344</ele><time>2007-04-30T17:15:58Z</time></trkpt>
<trkpt lat="47.82450200" lon="-3.25272800"><ele>13.4587497144</ele><time>2007-04-30T17:16:00Z</time></trkpt>
<trkpt lat="47.82459300" lon="-3.25266500"><ele>13.1315621544</ele><time>2007-04-30T17:16:02Z</time></trkpt>
<trkpt lat="47.82468400" lon="-3.25258400"><ele>12.91968714</ele><time>2007-04-30T17:16:04Z</time></trkpt>
<trkpt lat="47.82476800" lon="-3.25252100"><ele>12.7781249136</ele><time>2007-04-30T17:16:06Z</time></trkpt>
<trkpt lat="47.82484700" lon="-3.25244900"><ele>12.5831251512</ele><time>2007-04-30T17:16:08Z</time></trkpt>
<trkpt lat="47.82493200" lon="-3.25238600"><ele>12.4456252992</ele><time>2007-04-30T17:16:10Z</time></trkpt>
<trkpt lat="47.82502200" lon="-3.25230600"><ele>11.9975775288</ele><time>2007-04-30T17:16:12Z</time></trkpt>
<trkpt lat="47.82510700" lon="-3.25222500"><ele>11.5777673448</ele><time>2007-04-30T17:16:14Z</time></trkpt>
<trkpt lat="47.82519200" lon="-3.25215300"><ele>11.2403372856</ele><time>2007-04-30T17:16:16Z</time></trkpt>
<trkpt lat="47.82526400" lon="-3.25206300"><ele>10.9518748704</ele><time>2007-04-30T17:16:18Z</time></trkpt>
<trkpt lat="47.82534900" lon="-3.25198200"><ele>10.817187408</ele><time>2007-04-30T17:16:20Z</time></trkpt>
<trkpt lat="47.82543400" lon="-3.25189200"><ele>10.7296189776</ele><time>2007-04-30T17:16:22Z</time></trkpt>
<trkpt lat="47.82551300" lon="-3.25182000"><ele>10.7856064704</ele><time>2007-04-30T17:16:24Z</time></trkpt>
<trkpt lat="47.82559100" lon="-3.25174000"><ele>10.7306251224</ele><time>2007-04-30T17:16:26Z</time></trkpt>
<trkpt lat="47.82567600" lon="-3.25166800"><ele>10.628712804</ele><time>2007-04-30T17:16:28Z</time></trkpt>
<trkpt lat="47.82576700" lon="-3.25161400"><ele>10.5059222952</ele><time>2007-04-30T17:16:30Z</time></trkpt>
<trkpt lat="47.82585700" lon="-3.25156900"><ele>10.347999624</ele><time>2007-04-30T17:16:32Z</time></trkpt>
<trkpt lat="47.82596000" lon="-3.25146100"><ele>10.58352468</ele><time>2007-04-30T17:16:35Z</time></trkpt>
<trkpt lat="47.82601500" lon="-3.25135300"><ele>10.747374492</ele><time>2007-04-30T17:16:37Z</time></trkpt>
<trkpt lat="47.82606900" lon="-3.25122800"><ele>10.791622308</ele><time>2007-04-30T17:16:39Z</time></trkpt>
<trkpt lat="47.82613000" lon="-3.25110200"><ele>10.7725439616</ele><time>2007-04-30T17:16:41Z</time></trkpt>
<trkpt lat="47.82620200" lon="-3.25100300"><ele>10.8182002584</ele><time>2007-04-30T17:16:43Z</time></trkpt>
<trkpt lat="47.82628100" lon="-3.25091300"><ele>10.8330498096</ele><time>2007-04-30T17:16:45Z</time></trkpt>
<trkpt lat="47.82635300" lon="-3.25081400"><ele>10.7707032744</ele><time>2007-04-30T17:16:47Z</time></trkpt>
<trkpt lat="47.82643200" lon="-3.25071600"><ele>10.8488503368</ele><time>2007-04-30T17:16:49Z</time></trkpt>
<trkpt lat="47.82650500" lon="-3.25061700"><ele>10.8157557624</ele><time>2007-04-30T17:16:51Z</time></trkpt>
<trkpt lat="47.82658300" lon="-3.25051800"><ele>10.7124060072</ele><time>2007-04-30T17:16:53Z</time></trkpt>
<trkpt lat="47.82665600" lon="-3.25041900"><ele>10.4829998112</ele><time>2007-04-30T17:16:55Z</time></trkpt>
<trkpt lat="47.82672200" lon="-3.25029300"><ele>9.9981498792</ele><time>2007-04-30T17:16:57Z</time></trkpt>
<trkpt lat="47.82675900" lon="-3.25014100"><ele>9.5198744832</ele><time>2007-04-30T17:16:59Z</time></trkpt>
<trkpt lat="47.82678900" lon="-3.24997000"><ele>9.0781717344</ele><time>2007-04-30T17:17:01Z</time></trkpt>
<trkpt lat="47.82680700" lon="-3.24979000"><ele>8.5828122984</ele><time>2007-04-30T17:17:03Z</time></trkpt>
<trkpt lat="47.82681900" lon="-3.24961100"><ele>8.0814455592</ele><time>2007-04-30T17:17:05Z</time></trkpt>
<trkpt lat="47.82682500" lon="-3.24944900"><ele>7.9999999512</ele><time>2007-04-30T17:17:07Z</time></trkpt>
<trkpt lat="47.82683700" lon="-3.24929600"><ele>7.9999999512</ele><time>2007-04-30T17:17:09Z</time></trkpt>
<trkpt lat="47.82686200" lon="-3.24915200"><ele>7.9999999512</ele><time>2007-04-30T17:17:11Z</time></trkpt>
<trkpt lat="47.82687400" lon="-3.24901800"><ele>7.9999999512</ele><time>2007-04-30T17:17:13Z</time></trkpt>
<trkpt lat="47.82686800" lon="-3.24888300"><ele>7.9999999512</ele><time>2007-04-30T17:17:15Z</time></trkpt>
<trkpt lat="47.82687400" lon="-3.24873900"><ele>7.9999999512</ele><time>2007-04-30T17:17:17Z</time></trkpt>
<trkpt lat="47.82689800" lon="-3.24858700"><ele>7.9999999512</ele><time>2007-04-30T17:17:19Z</time></trkpt>
<trkpt lat="47.82693400" lon="-3.24846100"><ele>7.9999999512</ele><time>2007-04-30T17:17:21Z</time></trkpt>
<trkpt lat="47.82696400" lon="-3.24827200"><ele>7.9999999512</ele><time>2007-04-30T17:17:24Z</time></trkpt>
<trkpt lat="47.82704900" lon="-3.24794000"><ele>7.9999999512</ele><time>2007-04-30T17:17:30Z</time></trkpt>
</trkseg></trk></gpx>